<?xml version="1.0" encoding="UTF-8" standalone="no" ?>
<gpx xmlns="http://www.topografix.com/GPX/1/1" xmlns:xsi="http://www.w3.org/2001/XMLSchema-instance" xsi:schemaLocation="http://www.topografix.com/GPX/1/1 http://www.topografix.com/GPX/1/1/gpx.xsd" version="1.1" creator="VisuGPX - https://www.visugpx.com">
  <metadata>
    <name>La Valmasque</name>
    <desc><![CDATA[Trace tres sympathique a effectuer sans difficultés majeures .]]></desc>
  </metadata>
  <trk>
    <name><![CDATA[Tracé actuel: 06 JUIN 2015 08:20]]></name>
    <trkseg>
      <trkpt lat="43.59398" lon="7.00869">
        <ele>197.69</ele>
        <time>2015-06-06T08:02:48Z</time>
      </trkpt>
      <trkpt lat="43.59398" lon="7.00867">
        <ele>197.69</ele>
        <time>2015-06-06T08:03:23Z</time>
      </trkpt>
      <trkpt lat="43.59401" lon="7.00867">
        <ele>197.69</ele>
        <time>2015-06-06T08:04:02Z</time>
      </trkpt>
      <trkpt lat="43.59403" lon="7.00866">
        <ele>197.69</ele>
        <time>2015-06-06T08:04:32Z</time>
      </trkpt>
      <trkpt lat="43.59403" lon="7.00867">
        <ele>197.69</ele>
        <time>2015-06-06T08:04:51Z</time>
      </trkpt>
      <trkpt lat="43.59404" lon="7.00869">
        <ele>197.69</ele>
        <time>2015-06-06T08:05:14Z</time>
      </trkpt>
      <trkpt lat="43.59405" lon="7.00869">
        <ele>197.69</ele>
        <time>2015-06-06T08:05:34Z</time>
      </trkpt>
      <trkpt lat="43.59407" lon="7.00868">
        <ele>197.69</ele>
        <time>2015-06-06T08:06:02Z</time>
      </trkpt>
      <trkpt lat="43.59409" lon="7.00869">
        <ele>197.69</ele>
        <time>2015-06-06T08:06:17Z</time>
      </trkpt>
      <trkpt lat="43.59409" lon="7.00868">
        <ele>197.69</ele>
        <time>2015-06-06T08:06:31Z</time>
      </trkpt>
      <trkpt lat="43.59412" lon="7.00872">
        <ele>197.21</ele>
        <time>2015-06-06T08:06:45Z</time>
      </trkpt>
      <trkpt lat="43.59415" lon="7.00874">
        <ele>197.21</ele>
        <time>2015-06-06T08:07:01Z</time>
      </trkpt>
      <trkpt lat="43.59419" lon="7.00874">
        <ele>197.21</ele>
        <time>2015-06-06T08:07:04Z</time>
      </trkpt>
      <trkpt lat="43.59431" lon="7.00867">
        <ele>197.21</ele>
        <time>2015-06-06T08:07:12Z</time>
      </trkpt>
      <trkpt lat="43.59434" lon="7.00867">
        <ele>197.21</ele>
        <time>2015-06-06T08:07:15Z</time>
      </trkpt>
      <trkpt lat="43.59436" lon="7.00867">
        <ele>197.21</ele>
        <time>2015-06-06T08:07:16Z</time>
      </trkpt>
      <trkpt lat="43.59438" lon="7.00867">
        <ele>197.21</ele>
        <time>2015-06-06T08:07:17Z</time>
      </trkpt>
      <trkpt lat="43.59446" lon="7.00869">
        <ele>196.73</ele>
        <time>2015-06-06T08:07:20Z</time>
      </trkpt>
      <trkpt lat="43.59448" lon="7.00872">
        <ele>196.73</ele>
        <time>2015-06-06T08:07:21Z</time>
      </trkpt>
      <trkpt lat="43.59453" lon="7.00906">
        <ele>195.28</ele>
        <time>2015-06-06T08:07:29Z</time>
      </trkpt>
      <trkpt lat="43.59456" lon="7.00908">
        <ele>195.28</ele>
        <time>2015-06-06T08:07:30Z</time>
      </trkpt>
      <trkpt lat="43.59458" lon="7.0091">
        <ele>195.28</ele>
        <time>2015-06-06T08:07:31Z</time>
      </trkpt>
      <trkpt lat="43.59462" lon="7.00913">
        <ele>195.28</ele>
        <time>2015-06-06T08:07:32Z</time>
      </trkpt>
      <trkpt lat="43.59471" lon="7.00922">
        <ele>195.28</ele>
        <time>2015-06-06T08:07:35Z</time>
      </trkpt>
      <trkpt lat="43.59475" lon="7.00925">
        <ele>194.8</ele>
        <time>2015-06-06T08:07:36Z</time>
      </trkpt>
      <trkpt lat="43.59478" lon="7.00929">
        <ele>194.8</ele>
        <time>2015-06-06T08:07:37Z</time>
      </trkpt>
      <trkpt lat="43.5949" lon="7.0094">
        <ele>194.32</ele>
        <time>2015-06-06T08:07:40Z</time>
      </trkpt>
      <trkpt lat="43.59493" lon="7.00943">
        <ele>194.32</ele>
        <time>2015-06-06T08:07:41Z</time>
      </trkpt>
      <trkpt lat="43.59497" lon="7.00947">
        <ele>194.32</ele>
        <time>2015-06-06T08:07:42Z</time>
      </trkpt>
      <trkpt lat="43.595" lon="7.00949">
        <ele>193.84</ele>
        <time>2015-06-06T08:07:43Z</time>
      </trkpt>
      <trkpt lat="43.59504" lon="7.00952">
        <ele>193.84</ele>
        <time>2015-06-06T08:07:44Z</time>
      </trkpt>
      <trkpt lat="43.59508" lon="7.00956">
        <ele>193.84</ele>
        <time>2015-06-06T08:07:45Z</time>
      </trkpt>
      <trkpt lat="43.59551" lon="7.00998">
        <ele>192.88</ele>
        <time>2015-06-06T08:07:58Z</time>
      </trkpt>
      <trkpt lat="43.5959" lon="7.01049">
        <ele>191.92</ele>
        <time>2015-06-06T08:08:14Z</time>
      </trkpt>
      <trkpt lat="43.59633" lon="7.01118">
        <ele>190.48</ele>
        <time>2015-06-06T08:08:32Z</time>
      </trkpt>
      <trkpt lat="43.59668" lon="7.01175">
        <ele>189.52</ele>
        <time>2015-06-06T08:08:46Z</time>
      </trkpt>
      <trkpt lat="43.59699" lon="7.01227">
        <ele>189.04</ele>
        <time>2015-06-06T08:09:01Z</time>
      </trkpt>
      <trkpt lat="43.5972" lon="7.01263">
        <ele>189.04</ele>
        <time>2015-06-06T08:09:13Z</time>
      </trkpt>
      <trkpt lat="43.5975" lon="7.01308">
        <ele>189.04</ele>
        <time>2015-06-06T08:09:27Z</time>
      </trkpt>
      <trkpt lat="43.59783" lon="7.01346">
        <ele>189.04</ele>
        <time>2015-06-06T08:09:43Z</time>
      </trkpt>
      <trkpt lat="43.59819" lon="7.01377">
        <ele>189.04</ele>
        <time>2015-06-06T08:09:57Z</time>
      </trkpt>
      <trkpt lat="43.59849" lon="7.01421">
        <ele>189.04</ele>
        <time>2015-06-06T08:10:13Z</time>
      </trkpt>
      <trkpt lat="43.59871" lon="7.01444">
        <ele>188.56</ele>
        <time>2015-06-06T08:10:22Z</time>
      </trkpt>
      <trkpt lat="43.59873" lon="7.01447">
        <ele>188.56</ele>
        <time>2015-06-06T08:10:23Z</time>
      </trkpt>
      <trkpt lat="43.59883" lon="7.01466">
        <ele>190</ele>
        <time>2015-06-06T08:10:29Z</time>
      </trkpt>
      <trkpt lat="43.59893" lon="7.0151">
        <ele>190</ele>
        <time>2015-06-06T08:10:41Z</time>
      </trkpt>
      <trkpt lat="43.599" lon="7.01541">
        <ele>190.48</ele>
        <time>2015-06-06T08:10:48Z</time>
      </trkpt>
      <trkpt lat="43.59899" lon="7.01544">
        <ele>190.48</ele>
        <time>2015-06-06T08:10:49Z</time>
      </trkpt>
      <trkpt lat="43.59898" lon="7.01546">
        <ele>190.48</ele>
        <time>2015-06-06T08:10:50Z</time>
      </trkpt>
      <trkpt lat="43.59897" lon="7.01549">
        <ele>190.48</ele>
        <time>2015-06-06T08:10:51Z</time>
      </trkpt>
      <trkpt lat="43.59896" lon="7.01551">
        <ele>190.48</ele>
        <time>2015-06-06T08:10:52Z</time>
      </trkpt>
      <trkpt lat="43.59894" lon="7.01553">
        <ele>190.48</ele>
        <time>2015-06-06T08:10:53Z</time>
      </trkpt>
      <trkpt lat="43.59893" lon="7.01555">
        <ele>190.48</ele>
        <time>2015-06-06T08:10:54Z</time>
      </trkpt>
      <trkpt lat="43.59892" lon="7.0156">
        <ele>191.44</ele>
        <time>2015-06-06T08:10:57Z</time>
      </trkpt>
      <trkpt lat="43.5989" lon="7.01561">
        <ele>191.44</ele>
        <time>2015-06-06T08:10:58Z</time>
      </trkpt>
      <trkpt lat="43.59889" lon="7.01562">
        <ele>191.44</ele>
        <time>2015-06-06T08:10:59Z</time>
      </trkpt>
      <trkpt lat="43.59888" lon="7.01562">
        <ele>191.44</ele>
        <time>2015-06-06T08:11:00Z</time>
      </trkpt>
      <trkpt lat="43.59887" lon="7.01562">
        <ele>191.44</ele>
        <time>2015-06-06T08:11:01Z</time>
      </trkpt>
      <trkpt lat="43.59882" lon="7.01568">
        <ele>191.92</ele>
        <time>2015-06-06T08:11:08Z</time>
      </trkpt>
      <trkpt lat="43.59881" lon="7.01569">
        <ele>191.92</ele>
        <time>2015-06-06T08:11:09Z</time>
      </trkpt>
      <trkpt lat="43.5988" lon="7.0157">
        <ele>191.92</ele>
        <time>2015-06-06T08:11:10Z</time>
      </trkpt>
      <trkpt lat="43.5986" lon="7.01592">
        <ele>193.36</ele>
        <time>2015-06-06T08:11:24Z</time>
      </trkpt>
      <trkpt lat="43.5985" lon="7.01604">
        <ele>195.28</ele>
        <time>2015-06-06T08:11:32Z</time>
      </trkpt>
      <trkpt lat="43.59849" lon="7.01606">
        <ele>195.28</ele>
        <time>2015-06-06T08:11:33Z</time>
      </trkpt>
      <trkpt lat="43.59832" lon="7.01623">
        <ele>198.17</ele>
        <time>2015-06-06T08:11:45Z</time>
      </trkpt>
      <trkpt lat="43.59831" lon="7.01624">
        <ele>198.65</ele>
        <time>2015-06-06T08:11:46Z</time>
      </trkpt>
      <trkpt lat="43.5983" lon="7.01626">
        <ele>198.65</ele>
        <time>2015-06-06T08:11:47Z</time>
      </trkpt>
      <trkpt lat="43.59829" lon="7.01627">
        <ele>198.65</ele>
        <time>2015-06-06T08:11:48Z</time>
      </trkpt>
      <trkpt lat="43.59828" lon="7.01628">
        <ele>198.65</ele>
        <time>2015-06-06T08:11:49Z</time>
      </trkpt>
      <trkpt lat="43.59824" lon="7.01633">
        <ele>199.61</ele>
        <time>2015-06-06T08:11:53Z</time>
      </trkpt>
      <trkpt lat="43.59824" lon="7.01635">
        <ele>199.61</ele>
        <time>2015-06-06T08:11:54Z</time>
      </trkpt>
      <trkpt lat="43.59824" lon="7.01637">
        <ele>199.61</ele>
        <time>2015-06-06T08:11:55Z</time>
      </trkpt>
      <trkpt lat="43.59824" lon="7.01638">
        <ele>199.61</ele>
        <time>2015-06-06T08:11:56Z</time>
      </trkpt>
      <trkpt lat="43.59823" lon="7.0164">
        <ele>199.61</ele>
        <time>2015-06-06T08:11:57Z</time>
      </trkpt>
      <trkpt lat="43.59822" lon="7.01642">
        <ele>200.09</ele>
        <time>2015-06-06T08:11:58Z</time>
      </trkpt>
      <trkpt lat="43.59821" lon="7.01643">
        <ele>200.09</ele>
        <time>2015-06-06T08:11:59Z</time>
      </trkpt>
      <trkpt lat="43.5982" lon="7.01645">
        <ele>200.09</ele>
        <time>2015-06-06T08:12:00Z</time>
      </trkpt>
      <trkpt lat="43.59819" lon="7.01647">
        <ele>200.09</ele>
        <time>2015-06-06T08:12:01Z</time>
      </trkpt>
      <trkpt lat="43.59818" lon="7.01649">
        <ele>200.57</ele>
        <time>2015-06-06T08:12:02Z</time>
      </trkpt>
      <trkpt lat="43.59817" lon="7.0165">
        <ele>200.57</ele>
        <time>2015-06-06T08:12:03Z</time>
      </trkpt>
      <trkpt lat="43.59815" lon="7.01652">
        <ele>200.57</ele>
        <time>2015-06-06T08:12:04Z</time>
      </trkpt>
      <trkpt lat="43.59794" lon="7.01678">
        <ele>203.46</ele>
        <time>2015-06-06T08:12:19Z</time>
      </trkpt>
      <trkpt lat="43.59788" lon="7.01675">
        <ele>203.94</ele>
        <time>2015-06-06T08:12:37Z</time>
      </trkpt>
      <trkpt lat="43.59787" lon="7.01675">
        <ele>203.94</ele>
        <time>2015-06-06T08:12:38Z</time>
      </trkpt>
      <trkpt lat="43.59786" lon="7.01675">
        <ele>203.94</ele>
        <time>2015-06-06T08:12:39Z</time>
      </trkpt>
      <trkpt lat="43.59785" lon="7.01676">
        <ele>203.94</ele>
        <time>2015-06-06T08:12:40Z</time>
      </trkpt>
      <trkpt lat="43.59784" lon="7.01677">
        <ele>203.94</ele>
        <time>2015-06-06T08:12:41Z</time>
      </trkpt>
      <trkpt lat="43.59783" lon="7.01679">
        <ele>204.42</ele>
        <time>2015-06-06T08:12:42Z</time>
      </trkpt>
      <trkpt lat="43.59774" lon="7.01696">
        <ele>204.9</ele>
        <time>2015-06-06T08:12:56Z</time>
      </trkpt>
      <trkpt lat="43.59773" lon="7.01704">
        <ele>204.9</ele>
        <time>2015-06-06T08:13:19Z</time>
      </trkpt>
      <trkpt lat="43.59771" lon="7.01706">
        <ele>204.9</ele>
        <time>2015-06-06T08:13:42Z</time>
      </trkpt>
      <trkpt lat="43.59771" lon="7.01707">
        <ele>204.9</ele>
        <time>2015-06-06T08:13:43Z</time>
      </trkpt>
      <trkpt lat="43.59772" lon="7.01706">
        <ele>204.9</ele>
        <time>2015-06-06T08:14:00Z</time>
      </trkpt>
      <trkpt lat="43.59773" lon="7.01707">
        <ele>205.38</ele>
        <time>2015-06-06T08:14:30Z</time>
      </trkpt>
      <trkpt lat="43.59772" lon="7.01708">
        <ele>205.38</ele>
        <time>2015-06-06T08:14:31Z</time>
      </trkpt>
      <trkpt lat="43.59766" lon="7.01723">
        <ele>205.38</ele>
        <time>2015-06-06T08:14:37Z</time>
      </trkpt>
      <trkpt lat="43.59765" lon="7.01729">
        <ele>205.38</ele>
        <time>2015-06-06T08:14:38Z</time>
      </trkpt>
      <trkpt lat="43.59764" lon="7.01737">
        <ele>205.38</ele>
        <time>2015-06-06T08:14:39Z</time>
      </trkpt>
      <trkpt lat="43.59765" lon="7.01746">
        <ele>205.38</ele>
        <time>2015-06-06T08:14:40Z</time>
      </trkpt>
      <trkpt lat="43.59766" lon="7.01754">
        <ele>203.46</ele>
        <time>2015-06-06T08:14:41Z</time>
      </trkpt>
      <trkpt lat="43.59768" lon="7.01776">
        <ele>202.49</ele>
        <time>2015-06-06T08:14:44Z</time>
      </trkpt>
      <trkpt lat="43.59767" lon="7.01782">
        <ele>202.01</ele>
        <time>2015-06-06T08:14:45Z</time>
      </trkpt>
      <trkpt lat="43.59766" lon="7.01787">
        <ele>201.53</ele>
        <time>2015-06-06T08:14:46Z</time>
      </trkpt>
      <trkpt lat="43.59765" lon="7.01792">
        <ele>201.53</ele>
        <time>2015-06-06T08:14:47Z</time>
      </trkpt>
      <trkpt lat="43.59764" lon="7.01795">
        <ele>201.53</ele>
        <time>2015-06-06T08:14:48Z</time>
      </trkpt>
      <trkpt lat="43.5976" lon="7.01808">
        <ele>201.05</ele>
        <time>2015-06-06T08:14:52Z</time>
      </trkpt>
      <trkpt lat="43.59758" lon="7.01811">
        <ele>201.05</ele>
        <time>2015-06-06T08:14:53Z</time>
      </trkpt>
      <trkpt lat="43.59757" lon="7.01814">
        <ele>201.05</ele>
        <time>2015-06-06T08:14:54Z</time>
      </trkpt>
      <trkpt lat="43.59756" lon="7.01818">
        <ele>201.05</ele>
        <time>2015-06-06T08:14:55Z</time>
      </trkpt>
      <trkpt lat="43.59755" lon="7.01821">
        <ele>201.05</ele>
        <time>2015-06-06T08:14:56Z</time>
      </trkpt>
      <trkpt lat="43.59754" lon="7.01823">
        <ele>200.57</ele>
        <time>2015-06-06T08:14:57Z</time>
      </trkpt>
      <trkpt lat="43.59744" lon="7.01838">
        <ele>200.57</ele>
        <time>2015-06-06T08:15:05Z</time>
      </trkpt>
      <trkpt lat="43.59743" lon="7.01839">
        <ele>200.57</ele>
        <time>2015-06-06T08:15:06Z</time>
      </trkpt>
      <trkpt lat="43.59741" lon="7.01841">
        <ele>202.01</ele>
        <time>2015-06-06T08:15:07Z</time>
      </trkpt>
      <trkpt lat="43.59739" lon="7.01842">
        <ele>202.01</ele>
        <time>2015-06-06T08:15:08Z</time>
      </trkpt>
      <trkpt lat="43.59737" lon="7.01844">
        <ele>202.01</ele>
        <time>2015-06-06T08:15:09Z</time>
      </trkpt>
      <trkpt lat="43.59736" lon="7.01846">
        <ele>202.49</ele>
        <time>2015-06-06T08:15:10Z</time>
      </trkpt>
      <trkpt lat="43.59734" lon="7.01848">
        <ele>202.49</ele>
        <time>2015-06-06T08:15:11Z</time>
      </trkpt>
      <trkpt lat="43.59732" lon="7.0185">
        <ele>202.49</ele>
        <time>2015-06-06T08:15:12Z</time>
      </trkpt>
      <trkpt lat="43.59731" lon="7.01851">
        <ele>202.98</ele>
        <time>2015-06-06T08:15:13Z</time>
      </trkpt>
      <trkpt lat="43.59729" lon="7.01853">
        <ele>202.98</ele>
        <time>2015-06-06T08:15:14Z</time>
      </trkpt>
      <trkpt lat="43.59728" lon="7.01855">
        <ele>202.98</ele>
        <time>2015-06-06T08:15:15Z</time>
      </trkpt>
      <trkpt lat="43.59726" lon="7.01857">
        <ele>202.98</ele>
        <time>2015-06-06T08:15:16Z</time>
      </trkpt>
      <trkpt lat="43.59724" lon="7.01859">
        <ele>203.46</ele>
        <time>2015-06-06T08:15:17Z</time>
      </trkpt>
      <trkpt lat="43.59721" lon="7.01863">
        <ele>203.46</ele>
        <time>2015-06-06T08:15:19Z</time>
      </trkpt>
      <trkpt lat="43.5972" lon="7.01864">
        <ele>203.94</ele>
        <time>2015-06-06T08:15:20Z</time>
      </trkpt>
      <trkpt lat="43.59719" lon="7.01866">
        <ele>203.94</ele>
        <time>2015-06-06T08:15:21Z</time>
      </trkpt>
      <trkpt lat="43.59709" lon="7.01885">
        <ele>204.9</ele>
        <time>2015-06-06T08:15:30Z</time>
      </trkpt>
      <trkpt lat="43.59708" lon="7.01888">
        <ele>204.9</ele>
        <time>2015-06-06T08:15:31Z</time>
      </trkpt>
      <trkpt lat="43.59707" lon="7.0189">
        <ele>205.38</ele>
        <time>2015-06-06T08:15:32Z</time>
      </trkpt>
      <trkpt lat="43.59707" lon="7.01893">
        <ele>205.38</ele>
        <time>2015-06-06T08:15:33Z</time>
      </trkpt>
      <trkpt lat="43.59706" lon="7.01895">
        <ele>205.38</ele>
        <time>2015-06-06T08:15:34Z</time>
      </trkpt>
      <trkpt lat="43.59705" lon="7.01899">
        <ele>205.38</ele>
        <time>2015-06-06T08:15:35Z</time>
      </trkpt>
      <trkpt lat="43.59704" lon="7.01902">
        <ele>205.38</ele>
        <time>2015-06-06T08:15:36Z</time>
      </trkpt>
      <trkpt lat="43.59691" lon="7.01932">
        <ele>205.86</ele>
        <time>2015-06-06T08:15:46Z</time>
      </trkpt>
      <trkpt lat="43.59668" lon="7.01966">
        <ele>205.86</ele>
        <time>2015-06-06T08:16:00Z</time>
      </trkpt>
      <trkpt lat="43.59641" lon="7.01992">
        <ele>205.86</ele>
        <time>2015-06-06T08:16:12Z</time>
      </trkpt>
      <trkpt lat="43.5962" lon="7.02014">
        <ele>206.34</ele>
        <time>2015-06-06T08:16:24Z</time>
      </trkpt>
      <trkpt lat="43.59594" lon="7.02032">
        <ele>206.82</ele>
        <time>2015-06-06T08:16:36Z</time>
      </trkpt>
      <trkpt lat="43.59555" lon="7.02055">
        <ele>207.78</ele>
        <time>2015-06-06T08:16:51Z</time>
      </trkpt>
      <trkpt lat="43.59528" lon="7.02073">
        <ele>208.74</ele>
        <time>2015-06-06T08:17:03Z</time>
      </trkpt>
      <trkpt lat="43.59503" lon="7.02082">
        <ele>209.7</ele>
        <time>2015-06-06T08:17:14Z</time>
      </trkpt>
      <trkpt lat="43.59491" lon="7.02092">
        <ele>210.67</ele>
        <time>2015-06-06T08:17:22Z</time>
      </trkpt>
      <trkpt lat="43.5949" lon="7.02095">
        <ele>210.67</ele>
        <time>2015-06-06T08:17:23Z</time>
      </trkpt>
      <trkpt lat="43.5949" lon="7.02097">
        <ele>210.67</ele>
        <time>2015-06-06T08:17:24Z</time>
      </trkpt>
      <trkpt lat="43.5949" lon="7.021">
        <ele>211.15</ele>
        <time>2015-06-06T08:17:25Z</time>
      </trkpt>
      <trkpt lat="43.59489" lon="7.02103">
        <ele>211.15</ele>
        <time>2015-06-06T08:17:26Z</time>
      </trkpt>
      <trkpt lat="43.59492" lon="7.02134">
        <ele>213.55</ele>
        <time>2015-06-06T08:17:39Z</time>
      </trkpt>
      <trkpt lat="43.59497" lon="7.02145">
        <ele>214.51</ele>
        <time>2015-06-06T08:17:44Z</time>
      </trkpt>
      <trkpt lat="43.59516" lon="7.02175">
        <ele>214.51</ele>
        <time>2015-06-06T08:17:55Z</time>
      </trkpt>
      <trkpt lat="43.59532" lon="7.02191">
        <ele>217.4</ele>
        <time>2015-06-06T08:18:07Z</time>
      </trkpt>
      <trkpt lat="43.5954" lon="7.02207">
        <ele>218.84</ele>
        <time>2015-06-06T08:18:14Z</time>
      </trkpt>
      <trkpt lat="43.5954" lon="7.0221">
        <ele>219.32</ele>
        <time>2015-06-06T08:18:15Z</time>
      </trkpt>
      <trkpt lat="43.59532" lon="7.02237">
        <ele>219.8</ele>
        <time>2015-06-06T08:18:29Z</time>
      </trkpt>
      <trkpt lat="43.59513" lon="7.02236">
        <ele>219.8</ele>
        <time>2015-06-06T08:18:42Z</time>
      </trkpt>
      <trkpt lat="43.59492" lon="7.02233">
        <ele>219.8</ele>
        <time>2015-06-06T08:18:55Z</time>
      </trkpt>
      <trkpt lat="43.59491" lon="7.02234">
        <ele>219.8</ele>
        <time>2015-06-06T08:18:56Z</time>
      </trkpt>
      <trkpt lat="43.5949" lon="7.02236">
        <ele>219.8</ele>
        <time>2015-06-06T08:18:57Z</time>
      </trkpt>
      <trkpt lat="43.5948" lon="7.02252">
        <ele>217.88</ele>
        <time>2015-06-06T08:19:04Z</time>
      </trkpt>
      <trkpt lat="43.59475" lon="7.02268">
        <ele>216.43</ele>
        <time>2015-06-06T08:19:07Z</time>
      </trkpt>
      <trkpt lat="43.5947" lon="7.02302">
        <ele>213.07</ele>
        <time>2015-06-06T08:19:11Z</time>
      </trkpt>
      <trkpt lat="43.59473" lon="7.02337">
        <ele>208.74</ele>
        <time>2015-06-06T08:19:16Z</time>
      </trkpt>
      <trkpt lat="43.59473" lon="7.02341">
        <ele>208.74</ele>
        <time>2015-06-06T08:19:17Z</time>
      </trkpt>
      <trkpt lat="43.59469" lon="7.02352">
        <ele>208.26</ele>
        <time>2015-06-06T08:19:27Z</time>
      </trkpt>
      <trkpt lat="43.59464" lon="7.02378">
        <ele>206.82</ele>
        <time>2015-06-06T08:19:40Z</time>
      </trkpt>
      <trkpt lat="43.59461" lon="7.02395">
        <ele>204.9</ele>
        <time>2015-06-06T08:19:45Z</time>
      </trkpt>
      <trkpt lat="43.59454" lon="7.02408">
        <ele>204.42</ele>
        <time>2015-06-06T08:19:48Z</time>
      </trkpt>
      <trkpt lat="43.59455" lon="7.02427">
        <ele>202.98</ele>
        <time>2015-06-06T08:19:52Z</time>
      </trkpt>
      <trkpt lat="43.59459" lon="7.02437">
        <ele>201.53</ele>
        <time>2015-06-06T08:19:54Z</time>
      </trkpt>
      <trkpt lat="43.5946" lon="7.02454">
        <ele>200.57</ele>
        <time>2015-06-06T08:19:57Z</time>
      </trkpt>
      <trkpt lat="43.59453" lon="7.02496">
        <ele>200.09</ele>
        <time>2015-06-06T08:20:06Z</time>
      </trkpt>
      <trkpt lat="43.5947" lon="7.02529">
        <ele>198.17</ele>
        <time>2015-06-06T08:20:16Z</time>
      </trkpt>
      <trkpt lat="43.59484" lon="7.02554">
        <ele>198.17</ele>
        <time>2015-06-06T08:20:22Z</time>
      </trkpt>
      <trkpt lat="43.59485" lon="7.02566">
        <ele>197.21</ele>
        <time>2015-06-06T08:20:24Z</time>
      </trkpt>
      <trkpt lat="43.59484" lon="7.02571">
        <ele>197.21</ele>
        <time>2015-06-06T08:20:25Z</time>
      </trkpt>
      <trkpt lat="43.59483" lon="7.02574">
        <ele>196.73</ele>
        <time>2015-06-06T08:20:26Z</time>
      </trkpt>
      <trkpt lat="43.59481" lon="7.02577">
        <ele>196.73</ele>
        <time>2015-06-06T08:20:27Z</time>
      </trkpt>
      <trkpt lat="43.59478" lon="7.0258">
        <ele>196.73</ele>
        <time>2015-06-06T08:20:28Z</time>
      </trkpt>
      <trkpt lat="43.59475" lon="7.02582">
        <ele>196.73</ele>
        <time>2015-06-06T08:20:29Z</time>
      </trkpt>
      <trkpt lat="43.59451" lon="7.02599">
        <ele>196.25</ele>
        <time>2015-06-06T08:20:36Z</time>
      </trkpt>
      <trkpt lat="43.59394" lon="7.02617">
        <ele>194.8</ele>
        <time>2015-06-06T08:20:50Z</time>
      </trkpt>
      <trkpt lat="43.59357" lon="7.02631">
        <ele>194.8</ele>
        <time>2015-06-06T08:21:01Z</time>
      </trkpt>
      <trkpt lat="43.59343" lon="7.02635">
        <ele>194.8</ele>
        <time>2015-06-06T08:21:10Z</time>
      </trkpt>
      <trkpt lat="43.59334" lon="7.02645">
        <ele>194.8</ele>
        <time>2015-06-06T08:21:29Z</time>
      </trkpt>
      <trkpt lat="43.59322" lon="7.02647">
        <ele>194.32</ele>
        <time>2015-06-06T08:21:36Z</time>
      </trkpt>
      <trkpt lat="43.59286" lon="7.02646">
        <ele>193.84</ele>
        <time>2015-06-06T08:21:47Z</time>
      </trkpt>
      <trkpt lat="43.59263" lon="7.02645">
        <ele>193.84</ele>
        <time>2015-06-06T08:21:56Z</time>
      </trkpt>
      <trkpt lat="43.59261" lon="7.0265">
        <ele>193.36</ele>
        <time>2015-06-06T08:21:58Z</time>
      </trkpt>
      <trkpt lat="43.59261" lon="7.02653">
        <ele>192.88</ele>
        <time>2015-06-06T08:21:59Z</time>
      </trkpt>
      <trkpt lat="43.59261" lon="7.02656">
        <ele>192.88</ele>
        <time>2015-06-06T08:22:00Z</time>
      </trkpt>
      <trkpt lat="43.59261" lon="7.02659">
        <ele>192.88</ele>
        <time>2015-06-06T08:22:01Z</time>
      </trkpt>
      <trkpt lat="43.59261" lon="7.02661">
        <ele>192.88</ele>
        <time>2015-06-06T08:22:02Z</time>
      </trkpt>
      <trkpt lat="43.59261" lon="7.02663">
        <ele>192.88</ele>
        <time>2015-06-06T08:22:03Z</time>
      </trkpt>
      <trkpt lat="43.5927" lon="7.02687">
        <ele>192.88</ele>
        <time>2015-06-06T08:22:15Z</time>
      </trkpt>
      <trkpt lat="43.59271" lon="7.0269">
        <ele>192.88</ele>
        <time>2015-06-06T08:22:16Z</time>
      </trkpt>
      <trkpt lat="43.59271" lon="7.02692">
        <ele>192.88</ele>
        <time>2015-06-06T08:22:17Z</time>
      </trkpt>
      <trkpt lat="43.59271" lon="7.02695">
        <ele>192.88</ele>
        <time>2015-06-06T08:22:18Z</time>
      </trkpt>
      <trkpt lat="43.5927" lon="7.02698">
        <ele>192.88</ele>
        <time>2015-06-06T08:22:19Z</time>
      </trkpt>
      <trkpt lat="43.59269" lon="7.02703">
        <ele>192.88</ele>
        <time>2015-06-06T08:22:21Z</time>
      </trkpt>
      <trkpt lat="43.59267" lon="7.02706">
        <ele>192.88</ele>
        <time>2015-06-06T08:22:22Z</time>
      </trkpt>
      <trkpt lat="43.59266" lon="7.02708">
        <ele>192.88</ele>
        <time>2015-06-06T08:22:23Z</time>
      </trkpt>
      <trkpt lat="43.59264" lon="7.0271">
        <ele>192.88</ele>
        <time>2015-06-06T08:22:24Z</time>
      </trkpt>
      <trkpt lat="43.59262" lon="7.02711">
        <ele>192.88</ele>
        <time>2015-06-06T08:22:25Z</time>
      </trkpt>
      <trkpt lat="43.5926" lon="7.02714">
        <ele>192.88</ele>
        <time>2015-06-06T08:22:26Z</time>
      </trkpt>
      <trkpt lat="43.59259" lon="7.02717">
        <ele>192.88</ele>
        <time>2015-06-06T08:22:27Z</time>
      </trkpt>
      <trkpt lat="43.59257" lon="7.02719">
        <ele>192.88</ele>
        <time>2015-06-06T08:22:28Z</time>
      </trkpt>
      <trkpt lat="43.59256" lon="7.02722">
        <ele>192.88</ele>
        <time>2015-06-06T08:22:29Z</time>
      </trkpt>
      <trkpt lat="43.59254" lon="7.02724">
        <ele>194.32</ele>
        <time>2015-06-06T08:22:30Z</time>
      </trkpt>
      <trkpt lat="43.59252" lon="7.02726">
        <ele>194.32</ele>
        <time>2015-06-06T08:22:31Z</time>
      </trkpt>
      <trkpt lat="43.5925" lon="7.02729">
        <ele>194.32</ele>
        <time>2015-06-06T08:22:32Z</time>
      </trkpt>
      <trkpt lat="43.59249" lon="7.02732">
        <ele>194.32</ele>
        <time>2015-06-06T08:22:33Z</time>
      </trkpt>
      <trkpt lat="43.59248" lon="7.02735">
        <ele>194.32</ele>
        <time>2015-06-06T08:22:34Z</time>
      </trkpt>
      <trkpt lat="43.59247" lon="7.02738">
        <ele>194.32</ele>
        <time>2015-06-06T08:22:35Z</time>
      </trkpt>
      <trkpt lat="43.59245" lon="7.02741">
        <ele>194.8</ele>
        <time>2015-06-06T08:22:36Z</time>
      </trkpt>
      <trkpt lat="43.59244" lon="7.02744">
        <ele>195.28</ele>
        <time>2015-06-06T08:22:37Z</time>
      </trkpt>
      <trkpt lat="43.59241" lon="7.02764">
        <ele>197.69</ele>
        <time>2015-06-06T08:22:43Z</time>
      </trkpt>
      <trkpt lat="43.59241" lon="7.02779">
        <ele>199.61</ele>
        <time>2015-06-06T08:22:48Z</time>
      </trkpt>
      <trkpt lat="43.59246" lon="7.02804">
        <ele>203.46</ele>
        <time>2015-06-06T08:22:56Z</time>
      </trkpt>
      <trkpt lat="43.59245" lon="7.02821">
        <ele>204.42</ele>
        <time>2015-06-06T08:23:08Z</time>
      </trkpt>
      <trkpt lat="43.59244" lon="7.02829">
        <ele>204.42</ele>
        <time>2015-06-06T08:23:33Z</time>
      </trkpt>
      <trkpt lat="43.59242" lon="7.02831">
        <ele>204.42</ele>
        <time>2015-06-06T08:24:04Z</time>
      </trkpt>
      <trkpt lat="43.59241" lon="7.02828">
        <ele>204.9</ele>
        <time>2015-06-06T08:24:29Z</time>
      </trkpt>
      <trkpt lat="43.5924" lon="7.02855">
        <ele>204.9</ele>
        <time>2015-06-06T08:24:40Z</time>
      </trkpt>
      <trkpt lat="43.5924" lon="7.02867">
        <ele>203.46</ele>
        <time>2015-06-06T08:24:42Z</time>
      </trkpt>
      <trkpt lat="43.5924" lon="7.02873">
        <ele>203.46</ele>
        <time>2015-06-06T08:24:43Z</time>
      </trkpt>
      <trkpt lat="43.5924" lon="7.02928">
        <ele>201.53</ele>
        <time>2015-06-06T08:24:53Z</time>
      </trkpt>
      <trkpt lat="43.59245" lon="7.02943">
        <ele>200.57</ele>
        <time>2015-06-06T08:24:56Z</time>
      </trkpt>
      <trkpt lat="43.59247" lon="7.02949">
        <ele>200.57</ele>
        <time>2015-06-06T08:24:57Z</time>
      </trkpt>
      <trkpt lat="43.59248" lon="7.02956">
        <ele>200.57</ele>
        <time>2015-06-06T08:24:58Z</time>
      </trkpt>
      <trkpt lat="43.59249" lon="7.02961">
        <ele>200.09</ele>
        <time>2015-06-06T08:24:59Z</time>
      </trkpt>
      <trkpt lat="43.5925" lon="7.02968">
        <ele>200.09</ele>
        <time>2015-06-06T08:25:00Z</time>
      </trkpt>
      <trkpt lat="43.59251" lon="7.02975">
        <ele>200.09</ele>
        <time>2015-06-06T08:25:01Z</time>
      </trkpt>
      <trkpt lat="43.59252" lon="7.02981">
        <ele>200.09</ele>
        <time>2015-06-06T08:25:02Z</time>
      </trkpt>
      <trkpt lat="43.59254" lon="7.03019">
        <ele>200.09</ele>
        <time>2015-06-06T08:25:11Z</time>
      </trkpt>
      <trkpt lat="43.59256" lon="7.03033">
        <ele>201.53</ele>
        <time>2015-06-06T08:25:16Z</time>
      </trkpt>
      <trkpt lat="43.59255" lon="7.03067">
        <ele>198.65</ele>
        <time>2015-06-06T08:25:26Z</time>
      </trkpt>
      <trkpt lat="43.59242" lon="7.03107">
        <ele>196.25</ele>
        <time>2015-06-06T08:25:35Z</time>
      </trkpt>
      <trkpt lat="43.59243" lon="7.03118">
        <ele>195.77</ele>
        <time>2015-06-06T08:25:39Z</time>
      </trkpt>
      <trkpt lat="43.5926" lon="7.03131">
        <ele>194.32</ele>
        <time>2015-06-06T08:25:44Z</time>
      </trkpt>
      <trkpt lat="43.59268" lon="7.03144">
        <ele>192.88</ele>
        <time>2015-06-06T08:25:47Z</time>
      </trkpt>
      <trkpt lat="43.5929" lon="7.0316">
        <ele>190</ele>
        <time>2015-06-06T08:25:56Z</time>
      </trkpt>
      <trkpt lat="43.59292" lon="7.03163">
        <ele>189.52</ele>
        <time>2015-06-06T08:25:57Z</time>
      </trkpt>
      <trkpt lat="43.59293" lon="7.03164">
        <ele>189.52</ele>
        <time>2015-06-06T08:25:58Z</time>
      </trkpt>
      <trkpt lat="43.593" lon="7.03176">
        <ele>189.04</ele>
        <time>2015-06-06T08:26:04Z</time>
      </trkpt>
      <trkpt lat="43.59301" lon="7.0318">
        <ele>189.52</ele>
        <time>2015-06-06T08:26:05Z</time>
      </trkpt>
      <trkpt lat="43.59302" lon="7.03184">
        <ele>189.52</ele>
        <time>2015-06-06T08:26:06Z</time>
      </trkpt>
      <trkpt lat="43.59305" lon="7.03188">
        <ele>189.52</ele>
        <time>2015-06-06T08:26:07Z</time>
      </trkpt>
      <trkpt lat="43.59308" lon="7.03192">
        <ele>189.52</ele>
        <time>2015-06-06T08:26:08Z</time>
      </trkpt>
      <trkpt lat="43.59311" lon="7.03196">
        <ele>189.52</ele>
        <time>2015-06-06T08:26:09Z</time>
      </trkpt>
      <trkpt lat="43.59315" lon="7.032">
        <ele>189.52</ele>
        <time>2015-06-06T08:26:10Z</time>
      </trkpt>
      <trkpt lat="43.5933" lon="7.03216">
        <ele>189.52</ele>
        <time>2015-06-06T08:26:18Z</time>
      </trkpt>
      <trkpt lat="43.59337" lon="7.03218">
        <ele>189.04</ele>
        <time>2015-06-06T08:26:43Z</time>
      </trkpt>
      <trkpt lat="43.59356" lon="7.03234">
        <ele>188.56</ele>
        <time>2015-06-06T08:26:52Z</time>
      </trkpt>
      <trkpt lat="43.59379" lon="7.03219">
        <ele>189.52</ele>
        <time>2015-06-06T08:27:01Z</time>
      </trkpt>
      <trkpt lat="43.59411" lon="7.03199">
        <ele>190.96</ele>
        <time>2015-06-06T08:27:11Z</time>
      </trkpt>
      <trkpt lat="43.59414" lon="7.03197">
        <ele>190.96</ele>
        <time>2015-06-06T08:27:12Z</time>
      </trkpt>
      <trkpt lat="43.59416" lon="7.03193">
        <ele>190.96</ele>
        <time>2015-06-06T08:27:13Z</time>
      </trkpt>
      <trkpt lat="43.59417" lon="7.03191">
        <ele>191.44</ele>
        <time>2015-06-06T08:27:14Z</time>
      </trkpt>
      <trkpt lat="43.5942" lon="7.0319">
        <ele>191.44</ele>
        <time>2015-06-06T08:27:15Z</time>
      </trkpt>
      <trkpt lat="43.59422" lon="7.03189">
        <ele>191.44</ele>
        <time>2015-06-06T08:27:16Z</time>
      </trkpt>
      <trkpt lat="43.59455" lon="7.03172">
        <ele>190</ele>
        <time>2015-06-06T08:27:27Z</time>
      </trkpt>
      <trkpt lat="43.59458" lon="7.03173">
        <ele>190</ele>
        <time>2015-06-06T08:27:28Z</time>
      </trkpt>
      <trkpt lat="43.5946" lon="7.03176">
        <ele>190</ele>
        <time>2015-06-06T08:27:29Z</time>
      </trkpt>
      <trkpt lat="43.59461" lon="7.03179">
        <ele>190</ele>
        <time>2015-06-06T08:27:30Z</time>
      </trkpt>
      <trkpt lat="43.5946" lon="7.03182">
        <ele>189.52</ele>
        <time>2015-06-06T08:27:31Z</time>
      </trkpt>
      <trkpt lat="43.5946" lon="7.03186">
        <ele>189.52</ele>
        <time>2015-06-06T08:27:32Z</time>
      </trkpt>
      <trkpt lat="43.5946" lon="7.03189">
        <ele>189.52</ele>
        <time>2015-06-06T08:27:33Z</time>
      </trkpt>
      <trkpt lat="43.5946" lon="7.03192">
        <ele>189.52</ele>
        <time>2015-06-06T08:27:34Z</time>
      </trkpt>
      <trkpt lat="43.5946" lon="7.03194">
        <ele>189.52</ele>
        <time>2015-06-06T08:27:35Z</time>
      </trkpt>
      <trkpt lat="43.5946" lon="7.03197">
        <ele>189.52</ele>
        <time>2015-06-06T08:27:36Z</time>
      </trkpt>
      <trkpt lat="43.59458" lon="7.03242">
        <ele>190</ele>
        <time>2015-06-06T08:27:48Z</time>
      </trkpt>
      <trkpt lat="43.59449" lon="7.03298">
        <ele>190</ele>
        <time>2015-06-06T08:28:02Z</time>
      </trkpt>
      <trkpt lat="43.59447" lon="7.03339">
        <ele>190.96</ele>
        <time>2015-06-06T08:28:14Z</time>
      </trkpt>
      <trkpt lat="43.59447" lon="7.03342">
        <ele>190.96</ele>
        <time>2015-06-06T08:28:15Z</time>
      </trkpt>
      <trkpt lat="43.59446" lon="7.03387">
        <ele>191.92</ele>
        <time>2015-06-06T08:28:28Z</time>
      </trkpt>
      <trkpt lat="43.59447" lon="7.03421">
        <ele>192.4</ele>
        <time>2015-06-06T08:28:39Z</time>
      </trkpt>
      <trkpt lat="43.59449" lon="7.03422">
        <ele>192.4</ele>
        <time>2015-06-06T08:28:40Z</time>
      </trkpt>
      <trkpt lat="43.5945" lon="7.03423">
        <ele>192.4</ele>
        <time>2015-06-06T08:28:41Z</time>
      </trkpt>
      <trkpt lat="43.59452" lon="7.03424">
        <ele>192.4</ele>
        <time>2015-06-06T08:28:42Z</time>
      </trkpt>
      <trkpt lat="43.59453" lon="7.03425">
        <ele>193.36</ele>
        <time>2015-06-06T08:28:43Z</time>
      </trkpt>
      <trkpt lat="43.59455" lon="7.03426">
        <ele>193.36</ele>
        <time>2015-06-06T08:28:44Z</time>
      </trkpt>
      <trkpt lat="43.59457" lon="7.03427">
        <ele>193.84</ele>
        <time>2015-06-06T08:28:45Z</time>
      </trkpt>
      <trkpt lat="43.59458" lon="7.03428">
        <ele>193.84</ele>
        <time>2015-06-06T08:28:46Z</time>
      </trkpt>
      <trkpt lat="43.59467" lon="7.03432">
        <ele>195.28</ele>
        <time>2015-06-06T08:28:52Z</time>
      </trkpt>
      <trkpt lat="43.59469" lon="7.03433">
        <ele>195.28</ele>
        <time>2015-06-06T08:28:53Z</time>
      </trkpt>
      <trkpt lat="43.5948" lon="7.03436">
        <ele>197.21</ele>
        <time>2015-06-06T08:28:59Z</time>
      </trkpt>
      <trkpt lat="43.59481" lon="7.03437">
        <ele>197.69</ele>
        <time>2015-06-06T08:29:00Z</time>
      </trkpt>
      <trkpt lat="43.59487" lon="7.03442">
        <ele>198.65</ele>
        <time>2015-06-06T08:29:04Z</time>
      </trkpt>
      <trkpt lat="43.59489" lon="7.03443">
        <ele>198.65</ele>
        <time>2015-06-06T08:29:05Z</time>
      </trkpt>
      <trkpt lat="43.5949" lon="7.03444">
        <ele>199.61</ele>
        <time>2015-06-06T08:29:06Z</time>
      </trkpt>
      <trkpt lat="43.59492" lon="7.03444">
        <ele>199.61</ele>
        <time>2015-06-06T08:29:07Z</time>
      </trkpt>
      <trkpt lat="43.59494" lon="7.03445">
        <ele>200.09</ele>
        <time>2015-06-06T08:29:08Z</time>
      </trkpt>
      <trkpt lat="43.59496" lon="7.03445">
        <ele>200.09</ele>
        <time>2015-06-06T08:29:09Z</time>
      </trkpt>
      <trkpt lat="43.59498" lon="7.03445">
        <ele>201.05</ele>
        <time>2015-06-06T08:29:10Z</time>
      </trkpt>
      <trkpt lat="43.595" lon="7.03444">
        <ele>201.05</ele>
        <time>2015-06-06T08:29:11Z</time>
      </trkpt>
      <trkpt lat="43.59501" lon="7.03445">
        <ele>201.53</ele>
        <time>2015-06-06T08:29:12Z</time>
      </trkpt>
      <trkpt lat="43.59503" lon="7.03445">
        <ele>201.53</ele>
        <time>2015-06-06T08:29:13Z</time>
      </trkpt>
      <trkpt lat="43.59505" lon="7.03444">
        <ele>201.53</ele>
        <time>2015-06-06T08:29:14Z</time>
      </trkpt>
      <trkpt lat="43.59506" lon="7.03442">
        <ele>202.49</ele>
        <time>2015-06-06T08:29:15Z</time>
      </trkpt>
      <trkpt lat="43.59507" lon="7.03441">
        <ele>202.49</ele>
        <time>2015-06-06T08:29:16Z</time>
      </trkpt>
      <trkpt lat="43.59508" lon="7.03439">
        <ele>202.49</ele>
        <time>2015-06-06T08:29:17Z</time>
      </trkpt>
      <trkpt lat="43.59513" lon="7.03421">
        <ele>202.98</ele>
        <time>2015-06-06T08:29:32Z</time>
      </trkpt>
      <trkpt lat="43.59513" lon="7.03409">
        <ele>202.98</ele>
        <time>2015-06-06T08:29:38Z</time>
      </trkpt>
      <trkpt lat="43.59513" lon="7.03407">
        <ele>202.98</ele>
        <time>2015-06-06T08:29:39Z</time>
      </trkpt>
      <trkpt lat="43.59513" lon="7.03405">
        <ele>202.98</ele>
        <time>2015-06-06T08:29:40Z</time>
      </trkpt>
      <trkpt lat="43.59514" lon="7.03402">
        <ele>202.98</ele>
        <time>2015-06-06T08:29:41Z</time>
      </trkpt>
      <trkpt lat="43.59514" lon="7.034">
        <ele>202.98</ele>
        <time>2015-06-06T08:29:42Z</time>
      </trkpt>
      <trkpt lat="43.59515" lon="7.03398">
        <ele>202.98</ele>
        <time>2015-06-06T08:29:43Z</time>
      </trkpt>
      <trkpt lat="43.59516" lon="7.03396">
        <ele>202.98</ele>
        <time>2015-06-06T08:29:44Z</time>
      </trkpt>
      <trkpt lat="43.59516" lon="7.03394">
        <ele>202.98</ele>
        <time>2015-06-06T08:29:45Z</time>
      </trkpt>
      <trkpt lat="43.59516" lon="7.03392">
        <ele>202.98</ele>
        <time>2015-06-06T08:29:46Z</time>
      </trkpt>
      <trkpt lat="43.59519" lon="7.03381">
        <ele>202.98</ele>
        <time>2015-06-06T08:30:00Z</time>
      </trkpt>
      <trkpt lat="43.5952" lon="7.03377">
        <ele>202.98</ele>
        <time>2015-06-06T08:30:12Z</time>
      </trkpt>
      <trkpt lat="43.59521" lon="7.03374">
        <ele>202.98</ele>
        <time>2015-06-06T08:30:13Z</time>
      </trkpt>
      <trkpt lat="43.59517" lon="7.03339">
        <ele>203.46</ele>
        <time>2015-06-06T08:30:23Z</time>
      </trkpt>
      <trkpt lat="43.59516" lon="7.03328">
        <ele>203.46</ele>
        <time>2015-06-06T08:30:26Z</time>
      </trkpt>
      <trkpt lat="43.59509" lon="7.03304">
        <ele>202.01</ele>
        <time>2015-06-06T08:30:31Z</time>
      </trkpt>
      <trkpt lat="43.59505" lon="7.03286">
        <ele>201.53</ele>
        <time>2015-06-06T08:30:34Z</time>
      </trkpt>
      <trkpt lat="43.59504" lon="7.0328">
        <ele>201.53</ele>
        <time>2015-06-06T08:30:35Z</time>
      </trkpt>
      <trkpt lat="43.59505" lon="7.03229">
        <ele>200.57</ele>
        <time>2015-06-06T08:30:45Z</time>
      </trkpt>
      <trkpt lat="43.59509" lon="7.03204">
        <ele>199.61</ele>
        <time>2015-06-06T08:30:49Z</time>
      </trkpt>
      <trkpt lat="43.59512" lon="7.03199">
        <ele>199.13</ele>
        <time>2015-06-06T08:30:50Z</time>
      </trkpt>
      <trkpt lat="43.59518" lon="7.03187">
        <ele>199.13</ele>
        <time>2015-06-06T08:30:52Z</time>
      </trkpt>
      <trkpt lat="43.5952" lon="7.0318">
        <ele>199.13</ele>
        <time>2015-06-06T08:30:53Z</time>
      </trkpt>
      <trkpt lat="43.59524" lon="7.0316">
        <ele>198.65</ele>
        <time>2015-06-06T08:30:56Z</time>
      </trkpt>
      <trkpt lat="43.59525" lon="7.03146">
        <ele>198.65</ele>
        <time>2015-06-06T08:30:58Z</time>
      </trkpt>
      <trkpt lat="43.59526" lon="7.0314">
        <ele>198.17</ele>
        <time>2015-06-06T08:30:59Z</time>
      </trkpt>
      <trkpt lat="43.59526" lon="7.03133">
        <ele>198.17</ele>
        <time>2015-06-06T08:31:00Z</time>
      </trkpt>
      <trkpt lat="43.59526" lon="7.03127">
        <ele>198.17</ele>
        <time>2015-06-06T08:31:01Z</time>
      </trkpt>
      <trkpt lat="43.59526" lon="7.0312">
        <ele>197.21</ele>
        <time>2015-06-06T08:31:02Z</time>
      </trkpt>
      <trkpt lat="43.59527" lon="7.03113">
        <ele>197.21</ele>
        <time>2015-06-06T08:31:03Z</time>
      </trkpt>
      <trkpt lat="43.59532" lon="7.03071">
        <ele>197.21</ele>
        <time>2015-06-06T08:31:11Z</time>
      </trkpt>
      <trkpt lat="43.59535" lon="7.03058">
        <ele>198.65</ele>
        <time>2015-06-06T08:31:14Z</time>
      </trkpt>
      <trkpt lat="43.59548" lon="7.03035">
        <ele>201.05</ele>
        <time>2015-06-06T08:31:20Z</time>
      </trkpt>
      <trkpt lat="43.5955" lon="7.0303">
        <ele>201.53</ele>
        <time>2015-06-06T08:31:21Z</time>
      </trkpt>
      <trkpt lat="43.59567" lon="7.02997">
        <ele>202.98</ele>
        <time>2015-06-06T08:31:31Z</time>
      </trkpt>
      <trkpt lat="43.59568" lon="7.02993">
        <ele>202.98</ele>
        <time>2015-06-06T08:31:44Z</time>
      </trkpt>
      <trkpt lat="43.59567" lon="7.02993">
        <ele>202.98</ele>
        <time>2015-06-06T08:31:59Z</time>
      </trkpt>
      <trkpt lat="43.59568" lon="7.02992">
        <ele>202.98</ele>
        <time>2015-06-06T08:32:18Z</time>
      </trkpt>
      <trkpt lat="43.59569" lon="7.02991">
        <ele>202.98</ele>
        <time>2015-06-06T08:32:19Z</time>
      </trkpt>
      <trkpt lat="43.59571" lon="7.0299">
        <ele>202.98</ele>
        <time>2015-06-06T08:32:20Z</time>
      </trkpt>
      <trkpt lat="43.59572" lon="7.02989">
        <ele>202.98</ele>
        <time>2015-06-06T08:32:21Z</time>
      </trkpt>
      <trkpt lat="43.59573" lon="7.02989">
        <ele>202.98</ele>
        <time>2015-06-06T08:32:22Z</time>
      </trkpt>
      <trkpt lat="43.5959" lon="7.02976">
        <ele>201.53</ele>
        <time>2015-06-06T08:32:29Z</time>
      </trkpt>
      <trkpt lat="43.59625" lon="7.02962">
        <ele>200.09</ele>
        <time>2015-06-06T08:32:39Z</time>
      </trkpt>
      <trkpt lat="43.59627" lon="7.02964">
        <ele>200.09</ele>
        <time>2015-06-06T08:32:40Z</time>
      </trkpt>
      <trkpt lat="43.59629" lon="7.02967">
        <ele>200.09</ele>
        <time>2015-06-06T08:32:41Z</time>
      </trkpt>
      <trkpt lat="43.59631" lon="7.0297">
        <ele>200.09</ele>
        <time>2015-06-06T08:32:42Z</time>
      </trkpt>
      <trkpt lat="43.59633" lon="7.02973">
        <ele>199.61</ele>
        <time>2015-06-06T08:32:43Z</time>
      </trkpt>
      <trkpt lat="43.59635" lon="7.02978">
        <ele>199.61</ele>
        <time>2015-06-06T08:32:44Z</time>
      </trkpt>
      <trkpt lat="43.59636" lon="7.02982">
        <ele>199.61</ele>
        <time>2015-06-06T08:32:45Z</time>
      </trkpt>
      <trkpt lat="43.59637" lon="7.02987">
        <ele>199.61</ele>
        <time>2015-06-06T08:32:46Z</time>
      </trkpt>
      <trkpt lat="43.59637" lon="7.02992">
        <ele>199.61</ele>
        <time>2015-06-06T08:32:47Z</time>
      </trkpt>
      <trkpt lat="43.59637" lon="7.03016">
        <ele>202.49</ele>
        <time>2015-06-06T08:32:51Z</time>
      </trkpt>
      <trkpt lat="43.59634" lon="7.03035">
        <ele>205.86</ele>
        <time>2015-06-06T08:32:55Z</time>
      </trkpt>
      <trkpt lat="43.59633" lon="7.03041">
        <ele>206.82</ele>
        <time>2015-06-06T08:32:57Z</time>
      </trkpt>
      <trkpt lat="43.59634" lon="7.03044">
        <ele>206.82</ele>
        <time>2015-06-06T08:32:58Z</time>
      </trkpt>
      <trkpt lat="43.59634" lon="7.03047">
        <ele>207.78</ele>
        <time>2015-06-06T08:32:59Z</time>
      </trkpt>
      <trkpt lat="43.59632" lon="7.03058">
        <ele>208.74</ele>
        <time>2015-06-06T08:33:04Z</time>
      </trkpt>
      <trkpt lat="43.59632" lon="7.0306">
        <ele>208.74</ele>
        <time>2015-06-06T08:33:05Z</time>
      </trkpt>
      <trkpt lat="43.59632" lon="7.03061">
        <ele>209.22</ele>
        <time>2015-06-06T08:33:06Z</time>
      </trkpt>
      <trkpt lat="43.59632" lon="7.03063">
        <ele>209.22</ele>
        <time>2015-06-06T08:33:07Z</time>
      </trkpt>
      <trkpt lat="43.59631" lon="7.03065">
        <ele>209.22</ele>
        <time>2015-06-06T08:33:08Z</time>
      </trkpt>
      <trkpt lat="43.59631" lon="7.03066">
        <ele>209.7</ele>
        <time>2015-06-06T08:33:09Z</time>
      </trkpt>
      <trkpt lat="43.5963" lon="7.03083">
        <ele>210.19</ele>
        <time>2015-06-06T08:33:23Z</time>
      </trkpt>
      <trkpt lat="43.59634" lon="7.03084">
        <ele>210.19</ele>
        <time>2015-06-06T08:33:58Z</time>
      </trkpt>
      <trkpt lat="43.59629" lon="7.03112">
        <ele>210.67</ele>
        <time>2015-06-06T08:34:15Z</time>
      </trkpt>
      <trkpt lat="43.59622" lon="7.03147">
        <ele>212.59</ele>
        <time>2015-06-06T08:34:26Z</time>
      </trkpt>
      <trkpt lat="43.59615" lon="7.03161">
        <ele>213.55</ele>
        <time>2015-06-06T08:34:33Z</time>
      </trkpt>
      <trkpt lat="43.59615" lon="7.03163">
        <ele>213.55</ele>
        <time>2015-06-06T08:34:34Z</time>
      </trkpt>
      <trkpt lat="43.59615" lon="7.03165">
        <ele>213.55</ele>
        <time>2015-06-06T08:34:35Z</time>
      </trkpt>
      <trkpt lat="43.59614" lon="7.03167">
        <ele>213.55</ele>
        <time>2015-06-06T08:34:36Z</time>
      </trkpt>
      <trkpt lat="43.59614" lon="7.03169">
        <ele>213.55</ele>
        <time>2015-06-06T08:34:37Z</time>
      </trkpt>
      <trkpt lat="43.59613" lon="7.03172">
        <ele>213.55</ele>
        <time>2015-06-06T08:34:38Z</time>
      </trkpt>
      <trkpt lat="43.59612" lon="7.03175">
        <ele>213.55</ele>
        <time>2015-06-06T08:34:39Z</time>
      </trkpt>
      <trkpt lat="43.59602" lon="7.0322">
        <ele>212.11</ele>
        <time>2015-06-06T08:34:49Z</time>
      </trkpt>
      <trkpt lat="43.59588" lon="7.03283">
        <ele>212.11</ele>
        <time>2015-06-06T08:35:03Z</time>
      </trkpt>
      <trkpt lat="43.59584" lon="7.03343">
        <ele>211.63</ele>
        <time>2015-06-06T08:35:17Z</time>
      </trkpt>
      <trkpt lat="43.59587" lon="7.0339">
        <ele>211.63</ele>
        <time>2015-06-06T08:35:29Z</time>
      </trkpt>
      <trkpt lat="43.59581" lon="7.03427">
        <ele>213.55</ele>
        <time>2015-06-06T08:35:40Z</time>
      </trkpt>
      <trkpt lat="43.59577" lon="7.03447">
        <ele>214.03</ele>
        <time>2015-06-06T08:35:46Z</time>
      </trkpt>
      <trkpt lat="43.59577" lon="7.0345">
        <ele>214.03</ele>
        <time>2015-06-06T08:35:47Z</time>
      </trkpt>
      <trkpt lat="43.59576" lon="7.03454">
        <ele>214.03</ele>
        <time>2015-06-06T08:35:48Z</time>
      </trkpt>
      <trkpt lat="43.59575" lon="7.03459">
        <ele>214.03</ele>
        <time>2015-06-06T08:35:49Z</time>
      </trkpt>
      <trkpt lat="43.59574" lon="7.03464">
        <ele>214.03</ele>
        <time>2015-06-06T08:35:50Z</time>
      </trkpt>
      <trkpt lat="43.59575" lon="7.0348">
        <ele>212.59</ele>
        <time>2015-06-06T08:35:54Z</time>
      </trkpt>
      <trkpt lat="43.59575" lon="7.03482">
        <ele>212.59</ele>
        <time>2015-06-06T08:35:55Z</time>
      </trkpt>
      <trkpt lat="43.59576" lon="7.03482">
        <ele>212.59</ele>
        <time>2015-06-06T08:35:56Z</time>
      </trkpt>
      <trkpt lat="43.59583" lon="7.03485">
        <ele>212.59</ele>
        <time>2015-06-06T08:35:59Z</time>
      </trkpt>
      <trkpt lat="43.59584" lon="7.03486">
        <ele>212.59</ele>
        <time>2015-06-06T08:36:00Z</time>
      </trkpt>
      <trkpt lat="43.59587" lon="7.03488">
        <ele>212.59</ele>
        <time>2015-06-06T08:36:01Z</time>
      </trkpt>
      <trkpt lat="43.59604" lon="7.03498">
        <ele>212.59</ele>
        <time>2015-06-06T08:36:08Z</time>
      </trkpt>
      <trkpt lat="43.59607" lon="7.03499">
        <ele>212.59</ele>
        <time>2015-06-06T08:36:09Z</time>
      </trkpt>
      <trkpt lat="43.5961" lon="7.03499">
        <ele>212.59</ele>
        <time>2015-06-06T08:36:10Z</time>
      </trkpt>
      <trkpt lat="43.59613" lon="7.03499">
        <ele>212.59</ele>
        <time>2015-06-06T08:36:11Z</time>
      </trkpt>
      <trkpt lat="43.59615" lon="7.03498">
        <ele>212.59</ele>
        <time>2015-06-06T08:36:12Z</time>
      </trkpt>
      <trkpt lat="43.59616" lon="7.03498">
        <ele>212.59</ele>
        <time>2015-06-06T08:36:13Z</time>
      </trkpt>
      <trkpt lat="43.59618" lon="7.035">
        <ele>212.59</ele>
        <time>2015-06-06T08:36:14Z</time>
      </trkpt>
      <trkpt lat="43.59619" lon="7.03502">
        <ele>212.59</ele>
        <time>2015-06-06T08:36:15Z</time>
      </trkpt>
      <trkpt lat="43.5962" lon="7.03503">
        <ele>212.59</ele>
        <time>2015-06-06T08:36:16Z</time>
      </trkpt>
      <trkpt lat="43.59622" lon="7.03505">
        <ele>212.59</ele>
        <time>2015-06-06T08:36:17Z</time>
      </trkpt>
      <trkpt lat="43.59624" lon="7.03508">
        <ele>212.59</ele>
        <time>2015-06-06T08:36:18Z</time>
      </trkpt>
      <trkpt lat="43.59634" lon="7.03533">
        <ele>212.59</ele>
        <time>2015-06-06T08:36:27Z</time>
      </trkpt>
      <trkpt lat="43.59639" lon="7.03545">
        <ele>212.11</ele>
        <time>2015-06-06T08:36:31Z</time>
      </trkpt>
      <trkpt lat="43.59658" lon="7.03587">
        <ele>210.19</ele>
        <time>2015-06-06T08:36:44Z</time>
      </trkpt>
      <trkpt lat="43.59677" lon="7.03617">
        <ele>207.3</ele>
        <time>2015-06-06T08:36:51Z</time>
      </trkpt>
      <trkpt lat="43.59687" lon="7.03637">
        <ele>206.82</ele>
        <time>2015-06-06T08:36:56Z</time>
      </trkpt>
      <trkpt lat="43.59707" lon="7.03656">
        <ele>205.86</ele>
        <time>2015-06-06T08:37:03Z</time>
      </trkpt>
      <trkpt lat="43.59735" lon="7.03668">
        <ele>204.9</ele>
        <time>2015-06-06T08:37:12Z</time>
      </trkpt>
      <trkpt lat="43.59739" lon="7.03681">
        <ele>204.42</ele>
        <time>2015-06-06T08:37:23Z</time>
      </trkpt>
      <trkpt lat="43.59743" lon="7.03688">
        <ele>204.42</ele>
        <time>2015-06-06T08:37:40Z</time>
      </trkpt>
      <trkpt lat="43.59749" lon="7.03695">
        <ele>204.42</ele>
        <time>2015-06-06T08:37:45Z</time>
      </trkpt>
      <trkpt lat="43.59752" lon="7.03697">
        <ele>204.42</ele>
        <time>2015-06-06T08:37:46Z</time>
      </trkpt>
      <trkpt lat="43.59753" lon="7.03702">
        <ele>204.42</ele>
        <time>2015-06-06T08:37:48Z</time>
      </trkpt>
      <trkpt lat="43.5975" lon="7.03705">
        <ele>204.42</ele>
        <time>2015-06-06T08:37:49Z</time>
      </trkpt>
      <trkpt lat="43.59746" lon="7.03708">
        <ele>203.46</ele>
        <time>2015-06-06T08:37:50Z</time>
      </trkpt>
      <trkpt lat="43.59742" lon="7.03711">
        <ele>202.98</ele>
        <time>2015-06-06T08:37:51Z</time>
      </trkpt>
      <trkpt lat="43.59736" lon="7.03713">
        <ele>202.98</ele>
        <time>2015-06-06T08:37:52Z</time>
      </trkpt>
      <trkpt lat="43.59729" lon="7.03715">
        <ele>202.49</ele>
        <time>2015-06-06T08:37:53Z</time>
      </trkpt>
      <trkpt lat="43.597" lon="7.03721">
        <ele>201.05</ele>
        <time>2015-06-06T08:38:00Z</time>
      </trkpt>
      <trkpt lat="43.59672" lon="7.03718">
        <ele>198.65</ele>
        <time>2015-06-06T08:38:08Z</time>
      </trkpt>
      <trkpt lat="43.59666" lon="7.03719">
        <ele>198.65</ele>
        <time>2015-06-06T08:38:09Z</time>
      </trkpt>
      <trkpt lat="43.59661" lon="7.03718">
        <ele>199.61</ele>
        <time>2015-06-06T08:38:10Z</time>
      </trkpt>
      <trkpt lat="43.59657" lon="7.03717">
        <ele>199.61</ele>
        <time>2015-06-06T08:38:11Z</time>
      </trkpt>
      <trkpt lat="43.59651" lon="7.03715">
        <ele>200.57</ele>
        <time>2015-06-06T08:38:13Z</time>
      </trkpt>
      <trkpt lat="43.59648" lon="7.03716">
        <ele>201.53</ele>
        <time>2015-06-06T08:38:14Z</time>
      </trkpt>
      <trkpt lat="43.59645" lon="7.03715">
        <ele>201.53</ele>
        <time>2015-06-06T08:38:15Z</time>
      </trkpt>
      <trkpt lat="43.59636" lon="7.03716">
        <ele>202.98</ele>
        <time>2015-06-06T08:38:19Z</time>
      </trkpt>
      <trkpt lat="43.59634" lon="7.03718">
        <ele>202.98</ele>
        <time>2015-06-06T08:38:20Z</time>
      </trkpt>
      <trkpt lat="43.59634" lon="7.0372">
        <ele>202.98</ele>
        <time>2015-06-06T08:38:21Z</time>
      </trkpt>
      <trkpt lat="43.59631" lon="7.03723">
        <ele>203.46</ele>
        <time>2015-06-06T08:38:37Z</time>
      </trkpt>
      <trkpt lat="43.59631" lon="7.03725">
        <ele>203.46</ele>
        <time>2015-06-06T08:39:00Z</time>
      </trkpt>
      <trkpt lat="43.59632" lon="7.03729">
        <ele>203.46</ele>
        <time>2015-06-06T08:39:28Z</time>
      </trkpt>
      <trkpt lat="43.59632" lon="7.03737">
        <ele>203.46</ele>
        <time>2015-06-06T08:39:31Z</time>
      </trkpt>
      <trkpt lat="43.59634" lon="7.03748">
        <ele>201.53</ele>
        <time>2015-06-06T08:39:34Z</time>
      </trkpt>
      <trkpt lat="43.59635" lon="7.03756">
        <ele>200.57</ele>
        <time>2015-06-06T08:39:36Z</time>
      </trkpt>
      <trkpt lat="43.59636" lon="7.0376">
        <ele>200.57</ele>
        <time>2015-06-06T08:39:37Z</time>
      </trkpt>
      <trkpt lat="43.59643" lon="7.03789">
        <ele>200.57</ele>
        <time>2015-06-06T08:39:47Z</time>
      </trkpt>
      <trkpt lat="43.59642" lon="7.03803">
        <ele>200.57</ele>
        <time>2015-06-06T08:39:53Z</time>
      </trkpt>
      <trkpt lat="43.59629" lon="7.03818">
        <ele>200.57</ele>
        <time>2015-06-06T08:40:00Z</time>
      </trkpt>
      <trkpt lat="43.5962" lon="7.0383">
        <ele>199.13</ele>
        <time>2015-06-06T08:40:04Z</time>
      </trkpt>
      <trkpt lat="43.59617" lon="7.03835">
        <ele>199.13</ele>
        <time>2015-06-06T08:40:05Z</time>
      </trkpt>
      <trkpt lat="43.59615" lon="7.03839">
        <ele>199.13</ele>
        <time>2015-06-06T08:40:06Z</time>
      </trkpt>
      <trkpt lat="43.59613" lon="7.03843">
        <ele>199.13</ele>
        <time>2015-06-06T08:40:07Z</time>
      </trkpt>
      <trkpt lat="43.59612" lon="7.03847">
        <ele>199.13</ele>
        <time>2015-06-06T08:40:08Z</time>
      </trkpt>
      <trkpt lat="43.59589" lon="7.03885">
        <ele>197.21</ele>
        <time>2015-06-06T08:40:18Z</time>
      </trkpt>
      <trkpt lat="43.59582" lon="7.03894">
        <ele>195.77</ele>
        <time>2015-06-06T08:40:21Z</time>
      </trkpt>
      <trkpt lat="43.59574" lon="7.03907">
        <ele>193.36</ele>
        <time>2015-06-06T08:40:33Z</time>
      </trkpt>
      <trkpt lat="43.59572" lon="7.03906">
        <ele>193.36</ele>
        <time>2015-06-06T08:40:41Z</time>
      </trkpt>
      <trkpt lat="43.5957" lon="7.03903">
        <ele>192.4</ele>
        <time>2015-06-06T08:40:42Z</time>
      </trkpt>
      <trkpt lat="43.59568" lon="7.03901">
        <ele>191.92</ele>
        <time>2015-06-06T08:40:43Z</time>
      </trkpt>
      <trkpt lat="43.59561" lon="7.03895">
        <ele>190.96</ele>
        <time>2015-06-06T08:40:45Z</time>
      </trkpt>
      <trkpt lat="43.59557" lon="7.03891">
        <ele>189.52</ele>
        <time>2015-06-06T08:40:46Z</time>
      </trkpt>
      <trkpt lat="43.59554" lon="7.03886">
        <ele>189.04</ele>
        <time>2015-06-06T08:40:47Z</time>
      </trkpt>
      <trkpt lat="43.59551" lon="7.03883">
        <ele>188.08</ele>
        <time>2015-06-06T08:40:48Z</time>
      </trkpt>
      <trkpt lat="43.59549" lon="7.03879">
        <ele>187.59</ele>
        <time>2015-06-06T08:40:49Z</time>
      </trkpt>
      <trkpt lat="43.59547" lon="7.03875">
        <ele>187.59</ele>
        <time>2015-06-06T08:40:50Z</time>
      </trkpt>
      <trkpt lat="43.59545" lon="7.03872">
        <ele>187.59</ele>
        <time>2015-06-06T08:40:51Z</time>
      </trkpt>
      <trkpt lat="43.59544" lon="7.03869">
        <ele>186.63</ele>
        <time>2015-06-06T08:40:52Z</time>
      </trkpt>
      <trkpt lat="43.59542" lon="7.03867">
        <ele>186.63</ele>
        <time>2015-06-06T08:40:53Z</time>
      </trkpt>
      <trkpt lat="43.59541" lon="7.03864">
        <ele>186.63</ele>
        <time>2015-06-06T08:40:54Z</time>
      </trkpt>
      <trkpt lat="43.59531" lon="7.0385">
        <ele>183.75</ele>
        <time>2015-06-06T08:40:59Z</time>
      </trkpt>
      <trkpt lat="43.59528" lon="7.0385">
        <ele>183.27</ele>
        <time>2015-06-06T08:41:00Z</time>
      </trkpt>
      <trkpt lat="43.59526" lon="7.03851">
        <ele>183.27</ele>
        <time>2015-06-06T08:41:01Z</time>
      </trkpt>
      <trkpt lat="43.59515" lon="7.03855">
        <ele>182.31</ele>
        <time>2015-06-06T08:41:14Z</time>
      </trkpt>
      <trkpt lat="43.59514" lon="7.03855">
        <ele>181.83</ele>
        <time>2015-06-06T08:41:31Z</time>
      </trkpt>
      <trkpt lat="43.59504" lon="7.03865">
        <ele>181.83</ele>
        <time>2015-06-06T08:41:37Z</time>
      </trkpt>
      <trkpt lat="43.59488" lon="7.0388">
        <ele>179.9</ele>
        <time>2015-06-06T08:41:44Z</time>
      </trkpt>
      <trkpt lat="43.5948" lon="7.03886">
        <ele>179.42</ele>
        <time>2015-06-06T08:41:46Z</time>
      </trkpt>
      <trkpt lat="43.59471" lon="7.03894">
        <ele>178.46</ele>
        <time>2015-06-06T08:41:49Z</time>
      </trkpt>
      <trkpt lat="43.59433" lon="7.03951">
        <ele>176.54</ele>
        <time>2015-06-06T08:41:58Z</time>
      </trkpt>
      <trkpt lat="43.5943" lon="7.03955">
        <ele>175.58</ele>
        <time>2015-06-06T08:41:59Z</time>
      </trkpt>
      <trkpt lat="43.59428" lon="7.03959">
        <ele>175.58</ele>
        <time>2015-06-06T08:42:00Z</time>
      </trkpt>
      <trkpt lat="43.59427" lon="7.03962">
        <ele>175.58</ele>
        <time>2015-06-06T08:42:01Z</time>
      </trkpt>
      <trkpt lat="43.59425" lon="7.03965">
        <ele>175.1</ele>
        <time>2015-06-06T08:42:02Z</time>
      </trkpt>
      <trkpt lat="43.59423" lon="7.03968">
        <ele>175.1</ele>
        <time>2015-06-06T08:42:03Z</time>
      </trkpt>
      <trkpt lat="43.5942" lon="7.03972">
        <ele>175.1</ele>
        <time>2015-06-06T08:42:04Z</time>
      </trkpt>
      <trkpt lat="43.59418" lon="7.03977">
        <ele>175.1</ele>
        <time>2015-06-06T08:42:05Z</time>
      </trkpt>
      <trkpt lat="43.59415" lon="7.03983">
        <ele>175.1</ele>
        <time>2015-06-06T08:42:06Z</time>
      </trkpt>
      <trkpt lat="43.59413" lon="7.0399">
        <ele>174.62</ele>
        <time>2015-06-06T08:42:08Z</time>
      </trkpt>
      <trkpt lat="43.59413" lon="7.03994">
        <ele>174.14</ele>
        <time>2015-06-06T08:42:09Z</time>
      </trkpt>
      <trkpt lat="43.59413" lon="7.04015">
        <ele>172.69</ele>
        <time>2015-06-06T08:42:15Z</time>
      </trkpt>
      <trkpt lat="43.59413" lon="7.04018">
        <ele>172.69</ele>
        <time>2015-06-06T08:42:16Z</time>
      </trkpt>
      <trkpt lat="43.59412" lon="7.0402">
        <ele>172.69</ele>
        <time>2015-06-06T08:42:17Z</time>
      </trkpt>
      <trkpt lat="43.5941" lon="7.0402">
        <ele>172.69</ele>
        <time>2015-06-06T08:42:18Z</time>
      </trkpt>
      <trkpt lat="43.5941" lon="7.04016">
        <ele>172.69</ele>
        <time>2015-06-06T08:42:23Z</time>
      </trkpt>
      <trkpt lat="43.5941" lon="7.04021">
        <ele>172.21</ele>
        <time>2015-06-06T08:42:37Z</time>
      </trkpt>
      <trkpt lat="43.5941" lon="7.04021">
        <ele>172.21</ele>
        <time>2015-06-06T08:42:55Z</time>
      </trkpt>
      <trkpt lat="43.59423" lon="7.04073">
        <ele>171.73</ele>
        <time>2015-06-06T08:43:07Z</time>
      </trkpt>
      <trkpt lat="43.59428" lon="7.04089">
        <ele>173.17</ele>
        <time>2015-06-06T08:43:09Z</time>
      </trkpt>
      <trkpt lat="43.59442" lon="7.04133">
        <ele>177.02</ele>
        <time>2015-06-06T08:43:15Z</time>
      </trkpt>
      <trkpt lat="43.59444" lon="7.04139">
        <ele>177.02</ele>
        <time>2015-06-06T08:43:16Z</time>
      </trkpt>
      <trkpt lat="43.59455" lon="7.04177">
        <ele>177.5</ele>
        <time>2015-06-06T08:43:23Z</time>
      </trkpt>
      <trkpt lat="43.59465" lon="7.04222">
        <ele>173.66</ele>
        <time>2015-06-06T08:43:28Z</time>
      </trkpt>
      <trkpt lat="43.59469" lon="7.04232">
        <ele>172.69</ele>
        <time>2015-06-06T08:43:29Z</time>
      </trkpt>
      <trkpt lat="43.59475" lon="7.04241">
        <ele>172.21</ele>
        <time>2015-06-06T08:43:30Z</time>
      </trkpt>
      <trkpt lat="43.59483" lon="7.04248">
        <ele>171.25</ele>
        <time>2015-06-06T08:43:31Z</time>
      </trkpt>
      <trkpt lat="43.5949" lon="7.04254">
        <ele>171.25</ele>
        <time>2015-06-06T08:43:32Z</time>
      </trkpt>
      <trkpt lat="43.59511" lon="7.04272">
        <ele>171.25</ele>
        <time>2015-06-06T08:43:35Z</time>
      </trkpt>
      <trkpt lat="43.59516" lon="7.04279">
        <ele>171.25</ele>
        <time>2015-06-06T08:43:36Z</time>
      </trkpt>
      <trkpt lat="43.5952" lon="7.04285">
        <ele>171.25</ele>
        <time>2015-06-06T08:43:37Z</time>
      </trkpt>
      <trkpt lat="43.59525" lon="7.04291">
        <ele>171.25</ele>
        <time>2015-06-06T08:43:38Z</time>
      </trkpt>
      <trkpt lat="43.59528" lon="7.04295">
        <ele>171.25</ele>
        <time>2015-06-06T08:43:39Z</time>
      </trkpt>
      <trkpt lat="43.59539" lon="7.0431">
        <ele>172.69</ele>
        <time>2015-06-06T08:43:43Z</time>
      </trkpt>
      <trkpt lat="43.59578" lon="7.04333">
        <ele>174.62</ele>
        <time>2015-06-06T08:43:57Z</time>
      </trkpt>
      <trkpt lat="43.59613" lon="7.04333">
        <ele>174.62</ele>
        <time>2015-06-06T08:44:10Z</time>
      </trkpt>
      <trkpt lat="43.59643" lon="7.04351">
        <ele>174.62</ele>
        <time>2015-06-06T08:44:20Z</time>
      </trkpt>
      <trkpt lat="43.59668" lon="7.04367">
        <ele>175.1</ele>
        <time>2015-06-06T08:44:32Z</time>
      </trkpt>
      <trkpt lat="43.59697" lon="7.04382">
        <ele>175.58</ele>
        <time>2015-06-06T08:44:46Z</time>
      </trkpt>
      <trkpt lat="43.59706" lon="7.04386">
        <ele>176.06</ele>
        <time>2015-06-06T08:44:59Z</time>
      </trkpt>
      <trkpt lat="43.59712" lon="7.04385">
        <ele>176.06</ele>
        <time>2015-06-06T08:45:20Z</time>
      </trkpt>
      <trkpt lat="43.59713" lon="7.0439">
        <ele>176.54</ele>
        <time>2015-06-06T08:45:33Z</time>
      </trkpt>
      <trkpt lat="43.59717" lon="7.04393">
        <ele>177.02</ele>
        <time>2015-06-06T08:45:50Z</time>
      </trkpt>
      <trkpt lat="43.59724" lon="7.04397">
        <ele>177.5</ele>
        <time>2015-06-06T08:46:01Z</time>
      </trkpt>
      <trkpt lat="43.59731" lon="7.044">
        <ele>178.46</ele>
        <time>2015-06-06T08:46:06Z</time>
      </trkpt>
      <trkpt lat="43.59732" lon="7.04401">
        <ele>178.46</ele>
        <time>2015-06-06T08:46:07Z</time>
      </trkpt>
      <trkpt lat="43.59733" lon="7.04402">
        <ele>178.46</ele>
        <time>2015-06-06T08:46:08Z</time>
      </trkpt>
      <trkpt lat="43.59735" lon="7.04403">
        <ele>178.46</ele>
        <time>2015-06-06T08:46:09Z</time>
      </trkpt>
      <trkpt lat="43.59736" lon="7.04403">
        <ele>178.94</ele>
        <time>2015-06-06T08:46:10Z</time>
      </trkpt>
      <trkpt lat="43.59737" lon="7.04404">
        <ele>178.94</ele>
        <time>2015-06-06T08:46:11Z</time>
      </trkpt>
      <trkpt lat="43.59739" lon="7.04405">
        <ele>178.94</ele>
        <time>2015-06-06T08:46:12Z</time>
      </trkpt>
      <trkpt lat="43.5974" lon="7.04405">
        <ele>179.42</ele>
        <time>2015-06-06T08:46:13Z</time>
      </trkpt>
      <trkpt lat="43.59748" lon="7.0441">
        <ele>179.42</ele>
        <time>2015-06-06T08:46:20Z</time>
      </trkpt>
      <trkpt lat="43.5975" lon="7.04411">
        <ele>179.42</ele>
        <time>2015-06-06T08:46:21Z</time>
      </trkpt>
      <trkpt lat="43.59778" lon="7.04431">
        <ele>182.31</ele>
        <time>2015-06-06T08:46:35Z</time>
      </trkpt>
      <trkpt lat="43.598" lon="7.04453">
        <ele>184.23</ele>
        <time>2015-06-06T08:46:48Z</time>
      </trkpt>
      <trkpt lat="43.59817" lon="7.04475">
        <ele>186.15</ele>
        <time>2015-06-06T08:47:00Z</time>
      </trkpt>
      <trkpt lat="43.59818" lon="7.04477">
        <ele>186.15</ele>
        <time>2015-06-06T08:47:01Z</time>
      </trkpt>
      <trkpt lat="43.59819" lon="7.04478">
        <ele>186.63</ele>
        <time>2015-06-06T08:47:02Z</time>
      </trkpt>
      <trkpt lat="43.5982" lon="7.0448">
        <ele>186.63</ele>
        <time>2015-06-06T08:47:03Z</time>
      </trkpt>
      <trkpt lat="43.59821" lon="7.04482">
        <ele>186.63</ele>
        <time>2015-06-06T08:47:04Z</time>
      </trkpt>
      <trkpt lat="43.59822" lon="7.04485">
        <ele>186.63</ele>
        <time>2015-06-06T08:47:05Z</time>
      </trkpt>
      <trkpt lat="43.59823" lon="7.04487">
        <ele>187.11</ele>
        <time>2015-06-06T08:47:06Z</time>
      </trkpt>
      <trkpt lat="43.59824" lon="7.04489">
        <ele>187.11</ele>
        <time>2015-06-06T08:47:07Z</time>
      </trkpt>
      <trkpt lat="43.59829" lon="7.045">
        <ele>187.59</ele>
        <time>2015-06-06T08:47:12Z</time>
      </trkpt>
      <trkpt lat="43.5983" lon="7.04502">
        <ele>187.59</ele>
        <time>2015-06-06T08:47:13Z</time>
      </trkpt>
      <trkpt lat="43.5983" lon="7.04504">
        <ele>188.08</ele>
        <time>2015-06-06T08:47:14Z</time>
      </trkpt>
      <trkpt lat="43.59839" lon="7.04532">
        <ele>190.48</ele>
        <time>2015-06-06T08:47:28Z</time>
      </trkpt>
      <trkpt lat="43.59848" lon="7.04558">
        <ele>192.4</ele>
        <time>2015-06-06T08:47:40Z</time>
      </trkpt>
      <trkpt lat="43.59849" lon="7.04562">
        <ele>191.92</ele>
        <time>2015-06-06T08:47:42Z</time>
      </trkpt>
      <trkpt lat="43.59849" lon="7.04565">
        <ele>191.92</ele>
        <time>2015-06-06T08:47:43Z</time>
      </trkpt>
      <trkpt lat="43.5985" lon="7.04567">
        <ele>192.4</ele>
        <time>2015-06-06T08:47:44Z</time>
      </trkpt>
      <trkpt lat="43.59852" lon="7.04574">
        <ele>192.4</ele>
        <time>2015-06-06T08:47:47Z</time>
      </trkpt>
      <trkpt lat="43.59852" lon="7.04576">
        <ele>192.4</ele>
        <time>2015-06-06T08:47:48Z</time>
      </trkpt>
      <trkpt lat="43.59853" lon="7.04587">
        <ele>192.88</ele>
        <time>2015-06-06T08:47:54Z</time>
      </trkpt>
      <trkpt lat="43.59854" lon="7.0459">
        <ele>192.88</ele>
        <time>2015-06-06T08:47:55Z</time>
      </trkpt>
      <trkpt lat="43.59854" lon="7.04593">
        <ele>192.88</ele>
        <time>2015-06-06T08:47:56Z</time>
      </trkpt>
      <trkpt lat="43.59855" lon="7.04596">
        <ele>192.88</ele>
        <time>2015-06-06T08:47:57Z</time>
      </trkpt>
      <trkpt lat="43.59855" lon="7.04599">
        <ele>192.88</ele>
        <time>2015-06-06T08:47:58Z</time>
      </trkpt>
      <trkpt lat="43.59853" lon="7.04646">
        <ele>192.88</ele>
        <time>2015-06-06T08:48:12Z</time>
      </trkpt>
      <trkpt lat="43.59836" lon="7.04686">
        <ele>192.88</ele>
        <time>2015-06-06T08:48:26Z</time>
      </trkpt>
      <trkpt lat="43.59822" lon="7.04728">
        <ele>192.88</ele>
        <time>2015-06-06T08:48:41Z</time>
      </trkpt>
      <trkpt lat="43.59818" lon="7.04748">
        <ele>192.4</ele>
        <time>2015-06-06T08:48:47Z</time>
      </trkpt>
      <trkpt lat="43.59819" lon="7.04752">
        <ele>191.44</ele>
        <time>2015-06-06T08:48:48Z</time>
      </trkpt>
      <trkpt lat="43.5982" lon="7.04755">
        <ele>191.44</ele>
        <time>2015-06-06T08:48:49Z</time>
      </trkpt>
      <trkpt lat="43.59821" lon="7.04759">
        <ele>191.44</ele>
        <time>2015-06-06T08:48:50Z</time>
      </trkpt>
      <trkpt lat="43.59823" lon="7.04762">
        <ele>191.44</ele>
        <time>2015-06-06T08:48:51Z</time>
      </trkpt>
      <trkpt lat="43.59846" lon="7.04803">
        <ele>188.56</ele>
        <time>2015-06-06T08:49:02Z</time>
      </trkpt>
      <trkpt lat="43.59869" lon="7.04831">
        <ele>185.67</ele>
        <time>2015-06-06T08:49:09Z</time>
      </trkpt>
      <trkpt lat="43.59895" lon="7.04841">
        <ele>182.79</ele>
        <time>2015-06-06T08:49:16Z</time>
      </trkpt>
      <trkpt lat="43.59898" lon="7.0484">
        <ele>182.79</ele>
        <time>2015-06-06T08:49:17Z</time>
      </trkpt>
      <trkpt lat="43.59902" lon="7.04838">
        <ele>182.79</ele>
        <time>2015-06-06T08:49:18Z</time>
      </trkpt>
      <trkpt lat="43.59904" lon="7.04835">
        <ele>181.83</ele>
        <time>2015-06-06T08:49:19Z</time>
      </trkpt>
      <trkpt lat="43.59907" lon="7.04832">
        <ele>181.83</ele>
        <time>2015-06-06T08:49:20Z</time>
      </trkpt>
      <trkpt lat="43.59909" lon="7.04827">
        <ele>181.35</ele>
        <time>2015-06-06T08:49:21Z</time>
      </trkpt>
      <trkpt lat="43.59911" lon="7.04823">
        <ele>180.38</ele>
        <time>2015-06-06T08:49:22Z</time>
      </trkpt>
      <trkpt lat="43.59913" lon="7.04819">
        <ele>180.38</ele>
        <time>2015-06-06T08:49:23Z</time>
      </trkpt>
      <trkpt lat="43.59914" lon="7.04815">
        <ele>179.9</ele>
        <time>2015-06-06T08:49:24Z</time>
      </trkpt>
      <trkpt lat="43.59916" lon="7.04811">
        <ele>179.9</ele>
        <time>2015-06-06T08:49:25Z</time>
      </trkpt>
      <trkpt lat="43.59919" lon="7.04808">
        <ele>179.42</ele>
        <time>2015-06-06T08:49:26Z</time>
      </trkpt>
      <trkpt lat="43.59923" lon="7.04807">
        <ele>178.46</ele>
        <time>2015-06-06T08:49:27Z</time>
      </trkpt>
      <trkpt lat="43.59927" lon="7.04806">
        <ele>177.98</ele>
        <time>2015-06-06T08:49:28Z</time>
      </trkpt>
      <trkpt lat="43.59932" lon="7.04807">
        <ele>177.98</ele>
        <time>2015-06-06T08:49:29Z</time>
      </trkpt>
      <trkpt lat="43.59938" lon="7.04808">
        <ele>177.98</ele>
        <time>2015-06-06T08:49:30Z</time>
      </trkpt>
      <trkpt lat="43.59945" lon="7.04811">
        <ele>177.02</ele>
        <time>2015-06-06T08:49:31Z</time>
      </trkpt>
      <trkpt lat="43.59953" lon="7.04814">
        <ele>176.06</ele>
        <time>2015-06-06T08:49:32Z</time>
      </trkpt>
      <trkpt lat="43.5996" lon="7.04813">
        <ele>175.58</ele>
        <time>2015-06-06T08:49:33Z</time>
      </trkpt>
      <trkpt lat="43.59966" lon="7.04811">
        <ele>175.1</ele>
        <time>2015-06-06T08:49:34Z</time>
      </trkpt>
      <trkpt lat="43.59971" lon="7.04807">
        <ele>174.14</ele>
        <time>2015-06-06T08:49:35Z</time>
      </trkpt>
      <trkpt lat="43.59977" lon="7.04802">
        <ele>174.14</ele>
        <time>2015-06-06T08:49:36Z</time>
      </trkpt>
      <trkpt lat="43.59982" lon="7.04796">
        <ele>173.17</ele>
        <time>2015-06-06T08:49:37Z</time>
      </trkpt>
      <trkpt lat="43.59985" lon="7.04791">
        <ele>173.17</ele>
        <time>2015-06-06T08:49:38Z</time>
      </trkpt>
      <trkpt lat="43.59987" lon="7.04783">
        <ele>171.73</ele>
        <time>2015-06-06T08:49:39Z</time>
      </trkpt>
      <trkpt lat="43.5999" lon="7.04775">
        <ele>171.73</ele>
        <time>2015-06-06T08:49:40Z</time>
      </trkpt>
      <trkpt lat="43.59991" lon="7.04766">
        <ele>170.77</ele>
        <time>2015-06-06T08:49:41Z</time>
      </trkpt>
      <trkpt lat="43.59992" lon="7.04756">
        <ele>169.81</ele>
        <time>2015-06-06T08:49:42Z</time>
      </trkpt>
      <trkpt lat="43.59991" lon="7.04712">
        <ele>166.93</ele>
        <time>2015-06-06T08:49:46Z</time>
      </trkpt>
      <trkpt lat="43.59987" lon="7.0467">
        <ele>163.08</ele>
        <time>2015-06-06T08:49:50Z</time>
      </trkpt>
      <trkpt lat="43.59986" lon="7.04662">
        <ele>162.12</ele>
        <time>2015-06-06T08:49:52Z</time>
      </trkpt>
      <trkpt lat="43.59987" lon="7.0466">
        <ele>162.12</ele>
        <time>2015-06-06T08:50:01Z</time>
      </trkpt>
      <trkpt lat="43.5999" lon="7.04659">
        <ele>162.12</ele>
        <time>2015-06-06T08:50:20Z</time>
      </trkpt>
      <trkpt lat="43.59991" lon="7.04658">
        <ele>162.12</ele>
        <time>2015-06-06T08:50:21Z</time>
      </trkpt>
      <trkpt lat="43.59992" lon="7.04657">
        <ele>161.16</ele>
        <time>2015-06-06T08:50:22Z</time>
      </trkpt>
      <trkpt lat="43.59994" lon="7.04654">
        <ele>160.68</ele>
        <time>2015-06-06T08:50:23Z</time>
      </trkpt>
      <trkpt lat="43.59996" lon="7.04651">
        <ele>160.2</ele>
        <time>2015-06-06T08:50:24Z</time>
      </trkpt>
      <trkpt lat="43.60013" lon="7.04642">
        <ele>156.83</ele>
        <time>2015-06-06T08:50:30Z</time>
      </trkpt>
      <trkpt lat="43.60015" lon="7.04642">
        <ele>155.87</ele>
        <time>2015-06-06T08:50:31Z</time>
      </trkpt>
      <trkpt lat="43.60016" lon="7.04643">
        <ele>155.87</ele>
        <time>2015-06-06T08:50:32Z</time>
      </trkpt>
      <trkpt lat="43.60017" lon="7.04644">
        <ele>155.39</ele>
        <time>2015-06-06T08:50:33Z</time>
      </trkpt>
      <trkpt lat="43.60017" lon="7.04644">
        <ele>155.87</ele>
        <time>2015-06-06T08:50:48Z</time>
      </trkpt>
      <trkpt lat="43.60019" lon="7.04649">
        <ele>155.39</ele>
        <time>2015-06-06T08:51:12Z</time>
      </trkpt>
      <trkpt lat="43.60019" lon="7.04652">
        <ele>155.39</ele>
        <time>2015-06-06T08:51:13Z</time>
      </trkpt>
      <trkpt lat="43.60019" lon="7.04656">
        <ele>155.39</ele>
        <time>2015-06-06T08:51:14Z</time>
      </trkpt>
      <trkpt lat="43.6002" lon="7.04659">
        <ele>155.39</ele>
        <time>2015-06-06T08:51:15Z</time>
      </trkpt>
      <trkpt lat="43.6002" lon="7.04664">
        <ele>155.39</ele>
        <time>2015-06-06T08:51:16Z</time>
      </trkpt>
      <trkpt lat="43.6003" lon="7.04708">
        <ele>154.91</ele>
        <time>2015-06-06T08:51:25Z</time>
      </trkpt>
      <trkpt lat="43.60038" lon="7.04734">
        <ele>154.43</ele>
        <time>2015-06-06T08:51:29Z</time>
      </trkpt>
      <trkpt lat="43.6004" lon="7.0474">
        <ele>154.43</ele>
        <time>2015-06-06T08:51:30Z</time>
      </trkpt>
      <trkpt lat="43.60041" lon="7.04748">
        <ele>154.43</ele>
        <time>2015-06-06T08:51:31Z</time>
      </trkpt>
      <trkpt lat="43.60044" lon="7.0476">
        <ele>154.43</ele>
        <time>2015-06-06T08:51:33Z</time>
      </trkpt>
      <trkpt lat="43.60046" lon="7.04766">
        <ele>154.43</ele>
        <time>2015-06-06T08:51:34Z</time>
      </trkpt>
      <trkpt lat="43.60047" lon="7.04772">
        <ele>154.43</ele>
        <time>2015-06-06T08:51:35Z</time>
      </trkpt>
      <trkpt lat="43.60048" lon="7.04779">
        <ele>154.43</ele>
        <time>2015-06-06T08:51:36Z</time>
      </trkpt>
      <trkpt lat="43.60048" lon="7.04785">
        <ele>154.43</ele>
        <time>2015-06-06T08:51:37Z</time>
      </trkpt>
      <trkpt lat="43.60048" lon="7.04792">
        <ele>154.43</ele>
        <time>2015-06-06T08:51:38Z</time>
      </trkpt>
      <trkpt lat="43.60049" lon="7.04797">
        <ele>154.43</ele>
        <time>2015-06-06T08:51:39Z</time>
      </trkpt>
      <trkpt lat="43.6005" lon="7.04804">
        <ele>154.43</ele>
        <time>2015-06-06T08:51:40Z</time>
      </trkpt>
      <trkpt lat="43.6005" lon="7.04811">
        <ele>154.43</ele>
        <time>2015-06-06T08:51:41Z</time>
      </trkpt>
      <trkpt lat="43.60051" lon="7.04817">
        <ele>154.43</ele>
        <time>2015-06-06T08:51:42Z</time>
      </trkpt>
      <trkpt lat="43.60053" lon="7.04822">
        <ele>154.43</ele>
        <time>2015-06-06T08:51:43Z</time>
      </trkpt>
      <trkpt lat="43.60061" lon="7.04846">
        <ele>153.47</ele>
        <time>2015-06-06T08:51:48Z</time>
      </trkpt>
      <trkpt lat="43.60061" lon="7.04851">
        <ele>153.95</ele>
        <time>2015-06-06T08:51:49Z</time>
      </trkpt>
      <trkpt lat="43.60062" lon="7.04856">
        <ele>153.47</ele>
        <time>2015-06-06T08:51:50Z</time>
      </trkpt>
      <trkpt lat="43.60064" lon="7.04862">
        <ele>153.47</ele>
        <time>2015-06-06T08:51:51Z</time>
      </trkpt>
      <trkpt lat="43.60065" lon="7.0487">
        <ele>153.47</ele>
        <time>2015-06-06T08:51:52Z</time>
      </trkpt>
      <trkpt lat="43.60066" lon="7.04877">
        <ele>153.47</ele>
        <time>2015-06-06T08:51:53Z</time>
      </trkpt>
      <trkpt lat="43.60068" lon="7.04884">
        <ele>152.51</ele>
        <time>2015-06-06T08:51:54Z</time>
      </trkpt>
      <trkpt lat="43.60069" lon="7.0489">
        <ele>152.03</ele>
        <time>2015-06-06T08:51:55Z</time>
      </trkpt>
      <trkpt lat="43.60069" lon="7.04897">
        <ele>152.03</ele>
        <time>2015-06-06T08:51:56Z</time>
      </trkpt>
      <trkpt lat="43.60068" lon="7.04903">
        <ele>152.03</ele>
        <time>2015-06-06T08:51:57Z</time>
      </trkpt>
      <trkpt lat="43.60066" lon="7.04909">
        <ele>152.03</ele>
        <time>2015-06-06T08:51:58Z</time>
      </trkpt>
      <trkpt lat="43.60064" lon="7.04916">
        <ele>151.54</ele>
        <time>2015-06-06T08:51:59Z</time>
      </trkpt>
      <trkpt lat="43.60061" lon="7.04926">
        <ele>151.06</ele>
        <time>2015-06-06T08:52:01Z</time>
      </trkpt>
      <trkpt lat="43.60061" lon="7.04928">
        <ele>151.06</ele>
        <time>2015-06-06T08:52:02Z</time>
      </trkpt>
      <trkpt lat="43.60062" lon="7.04931">
        <ele>150.1</ele>
        <time>2015-06-06T08:52:03Z</time>
      </trkpt>
      <trkpt lat="43.60062" lon="7.04939">
        <ele>148.66</ele>
        <time>2015-06-06T08:52:05Z</time>
      </trkpt>
      <trkpt lat="43.60061" lon="7.04943">
        <ele>148.66</ele>
        <time>2015-06-06T08:52:06Z</time>
      </trkpt>
      <trkpt lat="43.60059" lon="7.04947">
        <ele>148.18</ele>
        <time>2015-06-06T08:52:07Z</time>
      </trkpt>
      <trkpt lat="43.60057" lon="7.04951">
        <ele>148.18</ele>
        <time>2015-06-06T08:52:08Z</time>
      </trkpt>
      <trkpt lat="43.60056" lon="7.04955">
        <ele>147.7</ele>
        <time>2015-06-06T08:52:09Z</time>
      </trkpt>
      <trkpt lat="43.60054" lon="7.04958">
        <ele>147.7</ele>
        <time>2015-06-06T08:52:10Z</time>
      </trkpt>
      <trkpt lat="43.60045" lon="7.04971">
        <ele>147.7</ele>
        <time>2015-06-06T08:52:14Z</time>
      </trkpt>
      <trkpt lat="43.60045" lon="7.04983">
        <ele>147.7</ele>
        <time>2015-06-06T08:52:17Z</time>
      </trkpt>
      <trkpt lat="43.60043" lon="7.04987">
        <ele>147.7</ele>
        <time>2015-06-06T08:52:18Z</time>
      </trkpt>
      <trkpt lat="43.60041" lon="7.04989">
        <ele>147.7</ele>
        <time>2015-06-06T08:52:19Z</time>
      </trkpt>
      <trkpt lat="43.60039" lon="7.04992">
        <ele>147.22</ele>
        <time>2015-06-06T08:52:20Z</time>
      </trkpt>
      <trkpt lat="43.60036" lon="7.04996">
        <ele>147.22</ele>
        <time>2015-06-06T08:52:21Z</time>
      </trkpt>
      <trkpt lat="43.60027" lon="7.05009">
        <ele>147.22</ele>
        <time>2015-06-06T08:52:26Z</time>
      </trkpt>
      <trkpt lat="43.60026" lon="7.05018">
        <ele>148.18</ele>
        <time>2015-06-06T08:52:35Z</time>
      </trkpt>
      <trkpt lat="43.60026" lon="7.05028">
        <ele>149.14</ele>
        <time>2015-06-06T08:52:48Z</time>
      </trkpt>
      <trkpt lat="43.60026" lon="7.05033">
        <ele>148.66</ele>
        <time>2015-06-06T08:53:14Z</time>
      </trkpt>
      <trkpt lat="43.60026" lon="7.05045">
        <ele>149.14</ele>
        <time>2015-06-06T08:53:28Z</time>
      </trkpt>
      <trkpt lat="43.60023" lon="7.05047">
        <ele>149.62</ele>
        <time>2015-06-06T08:53:39Z</time>
      </trkpt>
      <trkpt lat="43.60022" lon="7.05047">
        <ele>149.62</ele>
        <time>2015-06-06T08:53:40Z</time>
      </trkpt>
      <trkpt lat="43.6001" lon="7.05053">
        <ele>152.03</ele>
        <time>2015-06-06T08:53:56Z</time>
      </trkpt>
      <trkpt lat="43.60008" lon="7.05058">
        <ele>152.03</ele>
        <time>2015-06-06T08:54:08Z</time>
      </trkpt>
      <trkpt lat="43.60007" lon="7.05059">
        <ele>152.03</ele>
        <time>2015-06-06T08:54:09Z</time>
      </trkpt>
      <trkpt lat="43.60006" lon="7.05061">
        <ele>152.03</ele>
        <time>2015-06-06T08:54:11Z</time>
      </trkpt>
      <trkpt lat="43.60005" lon="7.05063">
        <ele>152.03</ele>
        <time>2015-06-06T08:54:12Z</time>
      </trkpt>
      <trkpt lat="43.60004" lon="7.05064">
        <ele>152.03</ele>
        <time>2015-06-06T08:54:13Z</time>
      </trkpt>
      <trkpt lat="43.60003" lon="7.05066">
        <ele>152.03</ele>
        <time>2015-06-06T08:54:14Z</time>
      </trkpt>
      <trkpt lat="43.60002" lon="7.05068">
        <ele>152.03</ele>
        <time>2015-06-06T08:54:15Z</time>
      </trkpt>
      <trkpt lat="43.60002" lon="7.05071">
        <ele>152.03</ele>
        <time>2015-06-06T08:54:16Z</time>
      </trkpt>
      <trkpt lat="43.60001" lon="7.05076">
        <ele>152.03</ele>
        <time>2015-06-06T08:54:17Z</time>
      </trkpt>
      <trkpt lat="43.59999" lon="7.05081">
        <ele>152.03</ele>
        <time>2015-06-06T08:54:18Z</time>
      </trkpt>
      <trkpt lat="43.59997" lon="7.05086">
        <ele>152.03</ele>
        <time>2015-06-06T08:54:19Z</time>
      </trkpt>
      <trkpt lat="43.59992" lon="7.05098">
        <ele>150.58</ele>
        <time>2015-06-06T08:54:21Z</time>
      </trkpt>
      <trkpt lat="43.5999" lon="7.05104">
        <ele>150.58</ele>
        <time>2015-06-06T08:54:22Z</time>
      </trkpt>
      <trkpt lat="43.5999" lon="7.05111">
        <ele>150.58</ele>
        <time>2015-06-06T08:54:23Z</time>
      </trkpt>
      <trkpt lat="43.5999" lon="7.05117">
        <ele>150.58</ele>
        <time>2015-06-06T08:54:24Z</time>
      </trkpt>
      <trkpt lat="43.59991" lon="7.05122">
        <ele>150.58</ele>
        <time>2015-06-06T08:54:25Z</time>
      </trkpt>
      <trkpt lat="43.59992" lon="7.05127">
        <ele>150.58</ele>
        <time>2015-06-06T08:54:26Z</time>
      </trkpt>
      <trkpt lat="43.59993" lon="7.05132">
        <ele>150.58</ele>
        <time>2015-06-06T08:54:27Z</time>
      </trkpt>
      <trkpt lat="43.59995" lon="7.05137">
        <ele>150.58</ele>
        <time>2015-06-06T08:54:28Z</time>
      </trkpt>
      <trkpt lat="43.59998" lon="7.05141">
        <ele>150.58</ele>
        <time>2015-06-06T08:54:29Z</time>
      </trkpt>
      <trkpt lat="43.60005" lon="7.05147">
        <ele>150.58</ele>
        <time>2015-06-06T08:54:31Z</time>
      </trkpt>
      <trkpt lat="43.60008" lon="7.05151">
        <ele>150.58</ele>
        <time>2015-06-06T08:54:32Z</time>
      </trkpt>
      <trkpt lat="43.60011" lon="7.05156">
        <ele>150.58</ele>
        <time>2015-06-06T08:54:33Z</time>
      </trkpt>
      <trkpt lat="43.60014" lon="7.0516">
        <ele>150.58</ele>
        <time>2015-06-06T08:54:34Z</time>
      </trkpt>
      <trkpt lat="43.60016" lon="7.05162">
        <ele>150.58</ele>
        <time>2015-06-06T08:54:35Z</time>
      </trkpt>
      <trkpt lat="43.60019" lon="7.05163">
        <ele>150.58</ele>
        <time>2015-06-06T08:54:36Z</time>
      </trkpt>
      <trkpt lat="43.60031" lon="7.0517">
        <ele>150.58</ele>
        <time>2015-06-06T08:54:39Z</time>
      </trkpt>
      <trkpt lat="43.60034" lon="7.05174">
        <ele>150.1</ele>
        <time>2015-06-06T08:54:40Z</time>
      </trkpt>
      <trkpt lat="43.60037" lon="7.05179">
        <ele>150.1</ele>
        <time>2015-06-06T08:54:41Z</time>
      </trkpt>
      <trkpt lat="43.60039" lon="7.05184">
        <ele>150.1</ele>
        <time>2015-06-06T08:54:42Z</time>
      </trkpt>
      <trkpt lat="43.60042" lon="7.05188">
        <ele>149.62</ele>
        <time>2015-06-06T08:54:43Z</time>
      </trkpt>
      <trkpt lat="43.60046" lon="7.05191">
        <ele>149.62</ele>
        <time>2015-06-06T08:54:44Z</time>
      </trkpt>
      <trkpt lat="43.60049" lon="7.05195">
        <ele>149.14</ele>
        <time>2015-06-06T08:54:45Z</time>
      </trkpt>
      <trkpt lat="43.60053" lon="7.05199">
        <ele>149.14</ele>
        <time>2015-06-06T08:54:46Z</time>
      </trkpt>
      <trkpt lat="43.60056" lon="7.05201">
        <ele>149.14</ele>
        <time>2015-06-06T08:54:47Z</time>
      </trkpt>
      <trkpt lat="43.60059" lon="7.05202">
        <ele>148.66</ele>
        <time>2015-06-06T08:54:48Z</time>
      </trkpt>
      <trkpt lat="43.60068" lon="7.05199">
        <ele>147.22</ele>
        <time>2015-06-06T08:54:50Z</time>
      </trkpt>
      <trkpt lat="43.60072" lon="7.052">
        <ele>147.22</ele>
        <time>2015-06-06T08:54:51Z</time>
      </trkpt>
      <trkpt lat="43.60076" lon="7.05202">
        <ele>146.74</ele>
        <time>2015-06-06T08:54:52Z</time>
      </trkpt>
      <trkpt lat="43.6008" lon="7.05205">
        <ele>146.26</ele>
        <time>2015-06-06T08:54:53Z</time>
      </trkpt>
      <trkpt lat="43.60084" lon="7.05208">
        <ele>145.78</ele>
        <time>2015-06-06T08:54:54Z</time>
      </trkpt>
      <trkpt lat="43.60093" lon="7.05217">
        <ele>144.82</ele>
        <time>2015-06-06T08:54:56Z</time>
      </trkpt>
      <trkpt lat="43.60096" lon="7.05223">
        <ele>144.34</ele>
        <time>2015-06-06T08:54:57Z</time>
      </trkpt>
      <trkpt lat="43.60098" lon="7.0523">
        <ele>143.37</ele>
        <time>2015-06-06T08:54:58Z</time>
      </trkpt>
      <trkpt lat="43.60099" lon="7.05236">
        <ele>142.89</ele>
        <time>2015-06-06T08:54:59Z</time>
      </trkpt>
      <trkpt lat="43.60099" lon="7.05242">
        <ele>142.41</ele>
        <time>2015-06-06T08:55:00Z</time>
      </trkpt>
      <trkpt lat="43.60099" lon="7.05248">
        <ele>142.41</ele>
        <time>2015-06-06T08:55:01Z</time>
      </trkpt>
      <trkpt lat="43.60098" lon="7.05253">
        <ele>141.45</ele>
        <time>2015-06-06T08:55:02Z</time>
      </trkpt>
      <trkpt lat="43.60097" lon="7.05259">
        <ele>141.45</ele>
        <time>2015-06-06T08:55:03Z</time>
      </trkpt>
      <trkpt lat="43.60093" lon="7.0527">
        <ele>140.97</ele>
        <time>2015-06-06T08:55:05Z</time>
      </trkpt>
      <trkpt lat="43.60092" lon="7.05276">
        <ele>140.49</ele>
        <time>2015-06-06T08:55:06Z</time>
      </trkpt>
      <trkpt lat="43.60094" lon="7.0528">
        <ele>140.49</ele>
        <time>2015-06-06T08:55:07Z</time>
      </trkpt>
      <trkpt lat="43.60099" lon="7.0529">
        <ele>139.05</ele>
        <time>2015-06-06T08:55:10Z</time>
      </trkpt>
      <trkpt lat="43.601" lon="7.05303">
        <ele>138.09</ele>
        <time>2015-06-06T08:55:13Z</time>
      </trkpt>
      <trkpt lat="43.601" lon="7.05335">
        <ele>136.16</ele>
        <time>2015-06-06T08:55:19Z</time>
      </trkpt>
      <trkpt lat="43.60099" lon="7.05353">
        <ele>135.2</ele>
        <time>2015-06-06T08:55:28Z</time>
      </trkpt>
      <trkpt lat="43.601" lon="7.05357">
        <ele>134.72</ele>
        <time>2015-06-06T08:55:32Z</time>
      </trkpt>
      <trkpt lat="43.60104" lon="7.05358">
        <ele>134.72</ele>
        <time>2015-06-06T08:55:35Z</time>
      </trkpt>
      <trkpt lat="43.60105" lon="7.05358">
        <ele>134.72</ele>
        <time>2015-06-06T08:55:36Z</time>
      </trkpt>
      <trkpt lat="43.60107" lon="7.05358">
        <ele>134.72</ele>
        <time>2015-06-06T08:55:37Z</time>
      </trkpt>
      <trkpt lat="43.60108" lon="7.05358">
        <ele>134.72</ele>
        <time>2015-06-06T08:55:38Z</time>
      </trkpt>
      <trkpt lat="43.60109" lon="7.05357">
        <ele>134.72</ele>
        <time>2015-06-06T08:55:39Z</time>
      </trkpt>
      <trkpt lat="43.60116" lon="7.05359">
        <ele>134.72</ele>
        <time>2015-06-06T08:55:49Z</time>
      </trkpt>
      <trkpt lat="43.60117" lon="7.05363">
        <ele>134.72</ele>
        <time>2015-06-06T08:55:55Z</time>
      </trkpt>
      <trkpt lat="43.6012" lon="7.05366">
        <ele>136.16</ele>
        <time>2015-06-06T08:55:59Z</time>
      </trkpt>
      <trkpt lat="43.60125" lon="7.05369">
        <ele>137.13</ele>
        <time>2015-06-06T08:56:03Z</time>
      </trkpt>
      <trkpt lat="43.60131" lon="7.05373">
        <ele>137.61</ele>
        <time>2015-06-06T08:56:16Z</time>
      </trkpt>
      <trkpt lat="43.60132" lon="7.05372">
        <ele>138.09</ele>
        <time>2015-06-06T08:56:31Z</time>
      </trkpt>
      <trkpt lat="43.60135" lon="7.05373">
        <ele>138.09</ele>
        <time>2015-06-06T08:57:09Z</time>
      </trkpt>
      <trkpt lat="43.6013" lon="7.05375">
        <ele>138.09</ele>
        <time>2015-06-06T08:57:47Z</time>
      </trkpt>
      <trkpt lat="43.60131" lon="7.05374">
        <ele>138.09</ele>
        <time>2015-06-06T08:58:27Z</time>
      </trkpt>
      <trkpt lat="43.60133" lon="7.05375">
        <ele>138.09</ele>
        <time>2015-06-06T08:58:50Z</time>
      </trkpt>
      <trkpt lat="43.60137" lon="7.05376">
        <ele>138.09</ele>
        <time>2015-06-06T08:59:14Z</time>
      </trkpt>
      <trkpt lat="43.60141" lon="7.05374">
        <ele>138.09</ele>
        <time>2015-06-06T08:59:26Z</time>
      </trkpt>
      <trkpt lat="43.60142" lon="7.05373">
        <ele>138.09</ele>
        <time>2015-06-06T08:59:27Z</time>
      </trkpt>
      <trkpt lat="43.60144" lon="7.05371">
        <ele>138.57</ele>
        <time>2015-06-06T08:59:28Z</time>
      </trkpt>
      <trkpt lat="43.60145" lon="7.05369">
        <ele>139.05</ele>
        <time>2015-06-06T08:59:29Z</time>
      </trkpt>
      <trkpt lat="43.60146" lon="7.05367">
        <ele>139.53</ele>
        <time>2015-06-06T08:59:30Z</time>
      </trkpt>
      <trkpt lat="43.60148" lon="7.05365">
        <ele>140.01</ele>
        <time>2015-06-06T08:59:31Z</time>
      </trkpt>
      <trkpt lat="43.60149" lon="7.05363">
        <ele>140.49</ele>
        <time>2015-06-06T08:59:32Z</time>
      </trkpt>
      <trkpt lat="43.60149" lon="7.05362">
        <ele>140.49</ele>
        <time>2015-06-06T08:59:33Z</time>
      </trkpt>
      <trkpt lat="43.60149" lon="7.05354">
        <ele>141.45</ele>
        <time>2015-06-06T08:59:43Z</time>
      </trkpt>
      <trkpt lat="43.60149" lon="7.05327">
        <ele>143.37</ele>
        <time>2015-06-06T08:59:53Z</time>
      </trkpt>
      <trkpt lat="43.60149" lon="7.05325">
        <ele>143.37</ele>
        <time>2015-06-06T08:59:54Z</time>
      </trkpt>
      <trkpt lat="43.60155" lon="7.05305">
        <ele>143.85</ele>
        <time>2015-06-06T09:00:00Z</time>
      </trkpt>
      <trkpt lat="43.60157" lon="7.05299">
        <ele>144.34</ele>
        <time>2015-06-06T09:00:01Z</time>
      </trkpt>
      <trkpt lat="43.60159" lon="7.05292">
        <ele>144.34</ele>
        <time>2015-06-06T09:00:02Z</time>
      </trkpt>
      <trkpt lat="43.60165" lon="7.05277">
        <ele>145.3</ele>
        <time>2015-06-06T09:00:05Z</time>
      </trkpt>
      <trkpt lat="43.60166" lon="7.05273">
        <ele>145.3</ele>
        <time>2015-06-06T09:00:06Z</time>
      </trkpt>
      <trkpt lat="43.60167" lon="7.05267">
        <ele>145.3</ele>
        <time>2015-06-06T09:00:07Z</time>
      </trkpt>
      <trkpt lat="43.60169" lon="7.05262">
        <ele>145.78</ele>
        <time>2015-06-06T09:00:08Z</time>
      </trkpt>
      <trkpt lat="43.6017" lon="7.05258">
        <ele>145.78</ele>
        <time>2015-06-06T09:00:09Z</time>
      </trkpt>
      <trkpt lat="43.60179" lon="7.05232">
        <ele>148.18</ele>
        <time>2015-06-06T09:00:16Z</time>
      </trkpt>
      <trkpt lat="43.60182" lon="7.0523">
        <ele>148.18</ele>
        <time>2015-06-06T09:00:17Z</time>
      </trkpt>
      <trkpt lat="43.60184" lon="7.05228">
        <ele>148.66</ele>
        <time>2015-06-06T09:00:18Z</time>
      </trkpt>
      <trkpt lat="43.60186" lon="7.05225">
        <ele>148.66</ele>
        <time>2015-06-06T09:00:19Z</time>
      </trkpt>
      <trkpt lat="43.60187" lon="7.05223">
        <ele>149.14</ele>
        <time>2015-06-06T09:00:20Z</time>
      </trkpt>
      <trkpt lat="43.60188" lon="7.05222">
        <ele>149.14</ele>
        <time>2015-06-06T09:00:21Z</time>
      </trkpt>
      <trkpt lat="43.60189" lon="7.0522">
        <ele>149.14</ele>
        <time>2015-06-06T09:00:22Z</time>
      </trkpt>
      <trkpt lat="43.60191" lon="7.05219">
        <ele>149.14</ele>
        <time>2015-06-06T09:00:23Z</time>
      </trkpt>
      <trkpt lat="43.60194" lon="7.05209">
        <ele>150.1</ele>
        <time>2015-06-06T09:00:32Z</time>
      </trkpt>
      <trkpt lat="43.60198" lon="7.05201">
        <ele>150.58</ele>
        <time>2015-06-06T09:00:45Z</time>
      </trkpt>
      <trkpt lat="43.602" lon="7.052">
        <ele>151.06</ele>
        <time>2015-06-06T09:00:46Z</time>
      </trkpt>
      <trkpt lat="43.60201" lon="7.05198">
        <ele>151.54</ele>
        <time>2015-06-06T09:00:47Z</time>
      </trkpt>
      <trkpt lat="43.60202" lon="7.05197">
        <ele>151.54</ele>
        <time>2015-06-06T09:00:48Z</time>
      </trkpt>
      <trkpt lat="43.60203" lon="7.05195">
        <ele>152.03</ele>
        <time>2015-06-06T09:00:49Z</time>
      </trkpt>
      <trkpt lat="43.60203" lon="7.05193">
        <ele>152.03</ele>
        <time>2015-06-06T09:00:51Z</time>
      </trkpt>
      <trkpt lat="43.60203" lon="7.05191">
        <ele>152.03</ele>
        <time>2015-06-06T09:00:52Z</time>
      </trkpt>
      <trkpt lat="43.60203" lon="7.05188">
        <ele>152.03</ele>
        <time>2015-06-06T09:00:53Z</time>
      </trkpt>
      <trkpt lat="43.60203" lon="7.05185">
        <ele>152.51</ele>
        <time>2015-06-06T09:00:54Z</time>
      </trkpt>
      <trkpt lat="43.60202" lon="7.05182">
        <ele>152.99</ele>
        <time>2015-06-06T09:00:55Z</time>
      </trkpt>
      <trkpt lat="43.602" lon="7.0518">
        <ele>152.99</ele>
        <time>2015-06-06T09:00:56Z</time>
      </trkpt>
      <trkpt lat="43.60198" lon="7.05176">
        <ele>153.47</ele>
        <time>2015-06-06T09:00:57Z</time>
      </trkpt>
      <trkpt lat="43.60197" lon="7.05172">
        <ele>153.47</ele>
        <time>2015-06-06T09:00:58Z</time>
      </trkpt>
      <trkpt lat="43.60195" lon="7.05167">
        <ele>153.95</ele>
        <time>2015-06-06T09:00:59Z</time>
      </trkpt>
      <trkpt lat="43.60194" lon="7.05163">
        <ele>154.43</ele>
        <time>2015-06-06T09:01:00Z</time>
      </trkpt>
      <trkpt lat="43.60192" lon="7.0516">
        <ele>154.43</ele>
        <time>2015-06-06T09:01:01Z</time>
      </trkpt>
      <trkpt lat="43.6019" lon="7.05156">
        <ele>154.91</ele>
        <time>2015-06-06T09:01:02Z</time>
      </trkpt>
      <trkpt lat="43.6019" lon="7.05153">
        <ele>155.39</ele>
        <time>2015-06-06T09:01:03Z</time>
      </trkpt>
      <trkpt lat="43.60189" lon="7.05148">
        <ele>155.39</ele>
        <time>2015-06-06T09:01:04Z</time>
      </trkpt>
      <trkpt lat="43.60188" lon="7.05112">
        <ele>158.27</ele>
        <time>2015-06-06T09:01:13Z</time>
      </trkpt>
      <trkpt lat="43.60195" lon="7.05076">
        <ele>159.24</ele>
        <time>2015-06-06T09:01:27Z</time>
      </trkpt>
      <trkpt lat="43.60195" lon="7.05069">
        <ele>159.24</ele>
        <time>2015-06-06T09:01:54Z</time>
      </trkpt>
      <trkpt lat="43.60194" lon="7.05064">
        <ele>159.24</ele>
        <time>2015-06-06T09:02:03Z</time>
      </trkpt>
      <trkpt lat="43.60195" lon="7.05062">
        <ele>159.24</ele>
        <time>2015-06-06T09:02:04Z</time>
      </trkpt>
      <trkpt lat="43.60196" lon="7.0506">
        <ele>159.24</ele>
        <time>2015-06-06T09:02:05Z</time>
      </trkpt>
      <trkpt lat="43.60215" lon="7.0505">
        <ele>160.2</ele>
        <time>2015-06-06T09:02:14Z</time>
      </trkpt>
      <trkpt lat="43.60217" lon="7.05051">
        <ele>160.68</ele>
        <time>2015-06-06T09:02:16Z</time>
      </trkpt>
      <trkpt lat="43.60219" lon="7.05052">
        <ele>160.68</ele>
        <time>2015-06-06T09:02:17Z</time>
      </trkpt>
      <trkpt lat="43.6022" lon="7.05052">
        <ele>160.68</ele>
        <time>2015-06-06T09:02:18Z</time>
      </trkpt>
      <trkpt lat="43.60236" lon="7.05063">
        <ele>161.16</ele>
        <time>2015-06-06T09:02:28Z</time>
      </trkpt>
      <trkpt lat="43.60238" lon="7.05063">
        <ele>161.64</ele>
        <time>2015-06-06T09:02:48Z</time>
      </trkpt>
      <trkpt lat="43.60241" lon="7.05063">
        <ele>161.64</ele>
        <time>2015-06-06T09:03:11Z</time>
      </trkpt>
      <trkpt lat="43.60236" lon="7.05062">
        <ele>161.64</ele>
        <time>2015-06-06T09:03:27Z</time>
      </trkpt>
      <trkpt lat="43.60235" lon="7.05065">
        <ele>161.64</ele>
        <time>2015-06-06T09:03:39Z</time>
      </trkpt>
      <trkpt lat="43.60234" lon="7.05067">
        <ele>161.16</ele>
        <time>2015-06-06T09:04:02Z</time>
      </trkpt>
      <trkpt lat="43.60238" lon="7.05065">
        <ele>161.16</ele>
        <time>2015-06-06T09:04:13Z</time>
      </trkpt>
      <trkpt lat="43.6024" lon="7.05065">
        <ele>161.16</ele>
        <time>2015-06-06T09:04:14Z</time>
      </trkpt>
      <trkpt lat="43.60242" lon="7.05066">
        <ele>161.16</ele>
        <time>2015-06-06T09:04:15Z</time>
      </trkpt>
      <trkpt lat="43.60245" lon="7.05066">
        <ele>161.16</ele>
        <time>2015-06-06T09:04:16Z</time>
      </trkpt>
      <trkpt lat="43.60248" lon="7.05065">
        <ele>161.16</ele>
        <time>2015-06-06T09:04:17Z</time>
      </trkpt>
      <trkpt lat="43.60251" lon="7.05065">
        <ele>161.16</ele>
        <time>2015-06-06T09:04:18Z</time>
      </trkpt>
      <trkpt lat="43.60253" lon="7.05064">
        <ele>161.16</ele>
        <time>2015-06-06T09:04:19Z</time>
      </trkpt>
      <trkpt lat="43.60255" lon="7.05063">
        <ele>161.16</ele>
        <time>2015-06-06T09:04:20Z</time>
      </trkpt>
      <trkpt lat="43.60256" lon="7.05061">
        <ele>161.16</ele>
        <time>2015-06-06T09:04:21Z</time>
      </trkpt>
      <trkpt lat="43.60258" lon="7.0506">
        <ele>161.16</ele>
        <time>2015-06-06T09:04:22Z</time>
      </trkpt>
      <trkpt lat="43.60261" lon="7.05057">
        <ele>161.64</ele>
        <time>2015-06-06T09:04:32Z</time>
      </trkpt>
      <trkpt lat="43.60276" lon="7.05041">
        <ele>162.6</ele>
        <time>2015-06-06T09:04:43Z</time>
      </trkpt>
      <trkpt lat="43.60302" lon="7.05013">
        <ele>164.04</ele>
        <time>2015-06-06T09:04:55Z</time>
      </trkpt>
      <trkpt lat="43.60331" lon="7.04984">
        <ele>162.12</ele>
        <time>2015-06-06T09:05:04Z</time>
      </trkpt>
      <trkpt lat="43.60335" lon="7.04981">
        <ele>162.12</ele>
        <time>2015-06-06T09:05:05Z</time>
      </trkpt>
      <trkpt lat="43.60361" lon="7.04956">
        <ele>163.56</ele>
        <time>2015-06-06T09:05:15Z</time>
      </trkpt>
      <trkpt lat="43.60364" lon="7.04956">
        <ele>163.56</ele>
        <time>2015-06-06T09:05:16Z</time>
      </trkpt>
      <trkpt lat="43.60398" lon="7.04959">
        <ele>163.56</ele>
        <time>2015-06-06T09:05:29Z</time>
      </trkpt>
      <trkpt lat="43.60417" lon="7.04968">
        <ele>161.64</ele>
        <time>2015-06-06T09:05:40Z</time>
      </trkpt>
      <trkpt lat="43.60422" lon="7.0497">
        <ele>161.64</ele>
        <time>2015-06-06T09:06:00Z</time>
      </trkpt>
      <trkpt lat="43.60422" lon="7.04966">
        <ele>161.64</ele>
        <time>2015-06-06T09:06:24Z</time>
      </trkpt>
      <trkpt lat="43.60425" lon="7.04971">
        <ele>161.64</ele>
        <time>2015-06-06T09:06:38Z</time>
      </trkpt>
      <trkpt lat="43.6043" lon="7.04972">
        <ele>161.16</ele>
        <time>2015-06-06T09:06:52Z</time>
      </trkpt>
      <trkpt lat="43.60434" lon="7.0497">
        <ele>161.16</ele>
        <time>2015-06-06T09:06:53Z</time>
      </trkpt>
      <trkpt lat="43.60441" lon="7.04965">
        <ele>161.16</ele>
        <time>2015-06-06T09:06:55Z</time>
      </trkpt>
      <trkpt lat="43.60446" lon="7.04963">
        <ele>161.16</ele>
        <time>2015-06-06T09:06:56Z</time>
      </trkpt>
      <trkpt lat="43.60457" lon="7.04962">
        <ele>161.16</ele>
        <time>2015-06-06T09:06:59Z</time>
      </trkpt>
      <trkpt lat="43.6046" lon="7.04962">
        <ele>161.16</ele>
        <time>2015-06-06T09:07:00Z</time>
      </trkpt>
      <trkpt lat="43.60463" lon="7.04961">
        <ele>161.16</ele>
        <time>2015-06-06T09:07:01Z</time>
      </trkpt>
      <trkpt lat="43.60466" lon="7.04958">
        <ele>161.16</ele>
        <time>2015-06-06T09:07:02Z</time>
      </trkpt>
      <trkpt lat="43.60469" lon="7.04957">
        <ele>161.16</ele>
        <time>2015-06-06T09:07:03Z</time>
      </trkpt>
      <trkpt lat="43.60473" lon="7.04955">
        <ele>161.64</ele>
        <time>2015-06-06T09:07:04Z</time>
      </trkpt>
      <trkpt lat="43.60477" lon="7.04954">
        <ele>161.16</ele>
        <time>2015-06-06T09:07:05Z</time>
      </trkpt>
      <trkpt lat="43.60481" lon="7.04952">
        <ele>161.16</ele>
        <time>2015-06-06T09:07:06Z</time>
      </trkpt>
      <trkpt lat="43.60484" lon="7.04951">
        <ele>161.16</ele>
        <time>2015-06-06T09:07:07Z</time>
      </trkpt>
      <trkpt lat="43.60514" lon="7.04948">
        <ele>161.16</ele>
        <time>2015-06-06T09:07:17Z</time>
      </trkpt>
      <trkpt lat="43.60527" lon="7.04951">
        <ele>160.2</ele>
        <time>2015-06-06T09:07:21Z</time>
      </trkpt>
      <trkpt lat="43.60531" lon="7.04951">
        <ele>160.2</ele>
        <time>2015-06-06T09:07:22Z</time>
      </trkpt>
      <trkpt lat="43.60535" lon="7.04949">
        <ele>160.2</ele>
        <time>2015-06-06T09:07:23Z</time>
      </trkpt>
      <trkpt lat="43.60538" lon="7.04948">
        <ele>159.72</ele>
        <time>2015-06-06T09:07:24Z</time>
      </trkpt>
      <trkpt lat="43.60541" lon="7.04945">
        <ele>159.72</ele>
        <time>2015-06-06T09:07:25Z</time>
      </trkpt>
      <trkpt lat="43.60544" lon="7.04942">
        <ele>159.72</ele>
        <time>2015-06-06T09:07:26Z</time>
      </trkpt>
      <trkpt lat="43.60551" lon="7.04935">
        <ele>159.24</ele>
        <time>2015-06-06T09:07:28Z</time>
      </trkpt>
      <trkpt lat="43.60557" lon="7.04924">
        <ele>159.24</ele>
        <time>2015-06-06T09:07:30Z</time>
      </trkpt>
      <trkpt lat="43.60569" lon="7.04904">
        <ele>159.24</ele>
        <time>2015-06-06T09:07:33Z</time>
      </trkpt>
      <trkpt lat="43.60584" lon="7.04885">
        <ele>159.24</ele>
        <time>2015-06-06T09:07:36Z</time>
      </trkpt>
      <trkpt lat="43.60599" lon="7.0487">
        <ele>159.24</ele>
        <time>2015-06-06T09:07:39Z</time>
      </trkpt>
      <trkpt lat="43.60603" lon="7.04867">
        <ele>159.24</ele>
        <time>2015-06-06T09:07:40Z</time>
      </trkpt>
      <trkpt lat="43.6061" lon="7.0486">
        <ele>160.2</ele>
        <time>2015-06-06T09:07:43Z</time>
      </trkpt>
      <trkpt lat="43.60637" lon="7.04829">
        <ele>162.12</ele>
        <time>2015-06-06T09:07:57Z</time>
      </trkpt>
      <trkpt lat="43.6067" lon="7.04792">
        <ele>160.68</ele>
        <time>2015-06-06T09:08:09Z</time>
      </trkpt>
      <trkpt lat="43.60709" lon="7.04755">
        <ele>159.72</ele>
        <time>2015-06-06T09:08:23Z</time>
      </trkpt>
      <trkpt lat="43.60734" lon="7.04717">
        <ele>159.72</ele>
        <time>2015-06-06T09:08:33Z</time>
      </trkpt>
      <trkpt lat="43.60737" lon="7.04713">
        <ele>159.72</ele>
        <time>2015-06-06T09:08:34Z</time>
      </trkpt>
      <trkpt lat="43.60739" lon="7.04707">
        <ele>159.24</ele>
        <time>2015-06-06T09:08:35Z</time>
      </trkpt>
      <trkpt lat="43.60742" lon="7.04696">
        <ele>159.24</ele>
        <time>2015-06-06T09:08:37Z</time>
      </trkpt>
      <trkpt lat="43.60743" lon="7.0469">
        <ele>159.24</ele>
        <time>2015-06-06T09:08:38Z</time>
      </trkpt>
      <trkpt lat="43.60744" lon="7.04684">
        <ele>158.75</ele>
        <time>2015-06-06T09:08:39Z</time>
      </trkpt>
      <trkpt lat="43.60746" lon="7.04669">
        <ele>158.27</ele>
        <time>2015-06-06T09:08:41Z</time>
      </trkpt>
      <trkpt lat="43.60752" lon="7.0461">
        <ele>156.83</ele>
        <time>2015-06-06T09:08:50Z</time>
      </trkpt>
      <trkpt lat="43.60768" lon="7.04582">
        <ele>158.75</ele>
        <time>2015-06-06T09:09:00Z</time>
      </trkpt>
      <trkpt lat="43.60803" lon="7.04569">
        <ele>161.16</ele>
        <time>2015-06-06T09:09:13Z</time>
      </trkpt>
      <trkpt lat="43.60828" lon="7.0457">
        <ele>161.64</ele>
        <time>2015-06-06T09:09:22Z</time>
      </trkpt>
      <trkpt lat="43.60829" lon="7.04573">
        <ele>162.12</ele>
        <time>2015-06-06T09:09:23Z</time>
      </trkpt>
      <trkpt lat="43.6083" lon="7.04576">
        <ele>162.12</ele>
        <time>2015-06-06T09:09:24Z</time>
      </trkpt>
      <trkpt lat="43.60829" lon="7.04638">
        <ele>162.6</ele>
        <time>2015-06-06T09:09:38Z</time>
      </trkpt>
      <trkpt lat="43.60835" lon="7.04682">
        <ele>161.64</ele>
        <time>2015-06-06T09:09:49Z</time>
      </trkpt>
      <trkpt lat="43.60836" lon="7.04684">
        <ele>161.64</ele>
        <time>2015-06-06T09:09:54Z</time>
      </trkpt>
      <trkpt lat="43.60837" lon="7.04685">
        <ele>161.64</ele>
        <time>2015-06-06T09:09:55Z</time>
      </trkpt>
      <trkpt lat="43.60848" lon="7.04701">
        <ele>161.64</ele>
        <time>2015-06-06T09:10:03Z</time>
      </trkpt>
      <trkpt lat="43.6085" lon="7.04702">
        <ele>161.64</ele>
        <time>2015-06-06T09:10:04Z</time>
      </trkpt>
      <trkpt lat="43.60852" lon="7.04704">
        <ele>161.64</ele>
        <time>2015-06-06T09:10:05Z</time>
      </trkpt>
      <trkpt lat="43.6086" lon="7.04719">
        <ele>161.64</ele>
        <time>2015-06-06T09:10:11Z</time>
      </trkpt>
      <trkpt lat="43.60862" lon="7.04721">
        <ele>161.64</ele>
        <time>2015-06-06T09:10:12Z</time>
      </trkpt>
      <trkpt lat="43.60868" lon="7.04727">
        <ele>161.64</ele>
        <time>2015-06-06T09:10:16Z</time>
      </trkpt>
      <trkpt lat="43.60869" lon="7.04729">
        <ele>161.64</ele>
        <time>2015-06-06T09:10:17Z</time>
      </trkpt>
      <trkpt lat="43.6087" lon="7.04731">
        <ele>162.6</ele>
        <time>2015-06-06T09:10:18Z</time>
      </trkpt>
      <trkpt lat="43.60871" lon="7.04733">
        <ele>162.6</ele>
        <time>2015-06-06T09:10:19Z</time>
      </trkpt>
      <trkpt lat="43.60872" lon="7.04734">
        <ele>162.6</ele>
        <time>2015-06-06T09:10:20Z</time>
      </trkpt>
      <trkpt lat="43.60874" lon="7.04734">
        <ele>162.6</ele>
        <time>2015-06-06T09:10:21Z</time>
      </trkpt>
      <trkpt lat="43.60876" lon="7.04732">
        <ele>162.6</ele>
        <time>2015-06-06T09:10:22Z</time>
      </trkpt>
      <trkpt lat="43.60876" lon="7.04731">
        <ele>162.6</ele>
        <time>2015-06-06T09:10:23Z</time>
      </trkpt>
      <trkpt lat="43.60876" lon="7.0473">
        <ele>162.6</ele>
        <time>2015-06-06T09:10:24Z</time>
      </trkpt>
      <trkpt lat="43.60876" lon="7.04728">
        <ele>162.6</ele>
        <time>2015-06-06T09:10:25Z</time>
      </trkpt>
      <trkpt lat="43.60876" lon="7.04726">
        <ele>162.6</ele>
        <time>2015-06-06T09:10:26Z</time>
      </trkpt>
      <trkpt lat="43.60875" lon="7.04724">
        <ele>163.08</ele>
        <time>2015-06-06T09:10:27Z</time>
      </trkpt>
      <trkpt lat="43.60875" lon="7.04722">
        <ele>163.08</ele>
        <time>2015-06-06T09:10:28Z</time>
      </trkpt>
      <trkpt lat="43.60875" lon="7.04719">
        <ele>163.56</ele>
        <time>2015-06-06T09:10:29Z</time>
      </trkpt>
      <trkpt lat="43.60874" lon="7.04716">
        <ele>163.56</ele>
        <time>2015-06-06T09:10:30Z</time>
      </trkpt>
      <trkpt lat="43.60873" lon="7.04696">
        <ele>165</ele>
        <time>2015-06-06T09:10:39Z</time>
      </trkpt>
      <trkpt lat="43.60873" lon="7.04694">
        <ele>165</ele>
        <time>2015-06-06T09:10:40Z</time>
      </trkpt>
      <trkpt lat="43.60873" lon="7.04691">
        <ele>165</ele>
        <time>2015-06-06T09:10:41Z</time>
      </trkpt>
      <trkpt lat="43.60873" lon="7.04688">
        <ele>165.48</ele>
        <time>2015-06-06T09:10:42Z</time>
      </trkpt>
      <trkpt lat="43.60873" lon="7.04686">
        <ele>165.48</ele>
        <time>2015-06-06T09:10:43Z</time>
      </trkpt>
      <trkpt lat="43.60873" lon="7.04683">
        <ele>165.48</ele>
        <time>2015-06-06T09:10:44Z</time>
      </trkpt>
      <trkpt lat="43.60873" lon="7.04681">
        <ele>165.48</ele>
        <time>2015-06-06T09:10:45Z</time>
      </trkpt>
      <trkpt lat="43.60873" lon="7.04679">
        <ele>165.96</ele>
        <time>2015-06-06T09:10:46Z</time>
      </trkpt>
      <trkpt lat="43.60873" lon="7.04677">
        <ele>165.96</ele>
        <time>2015-06-06T09:10:47Z</time>
      </trkpt>
      <trkpt lat="43.60874" lon="7.04675">
        <ele>166.45</ele>
        <time>2015-06-06T09:10:48Z</time>
      </trkpt>
      <trkpt lat="43.60874" lon="7.04672">
        <ele>166.45</ele>
        <time>2015-06-06T09:10:49Z</time>
      </trkpt>
      <trkpt lat="43.6088" lon="7.04645">
        <ele>167.41</ele>
        <time>2015-06-06T09:11:00Z</time>
      </trkpt>
      <trkpt lat="43.60892" lon="7.04623">
        <ele>169.81</ele>
        <time>2015-06-06T09:11:11Z</time>
      </trkpt>
      <trkpt lat="43.609" lon="7.04611">
        <ele>170.77</ele>
        <time>2015-06-06T09:11:18Z</time>
      </trkpt>
      <trkpt lat="43.60901" lon="7.04609">
        <ele>171.25</ele>
        <time>2015-06-06T09:11:19Z</time>
      </trkpt>
      <trkpt lat="43.60902" lon="7.04607">
        <ele>171.25</ele>
        <time>2015-06-06T09:11:20Z</time>
      </trkpt>
      <trkpt lat="43.60903" lon="7.04604">
        <ele>171.73</ele>
        <time>2015-06-06T09:11:21Z</time>
      </trkpt>
      <trkpt lat="43.60904" lon="7.04602">
        <ele>171.73</ele>
        <time>2015-06-06T09:11:22Z</time>
      </trkpt>
      <trkpt lat="43.60905" lon="7.046">
        <ele>172.21</ele>
        <time>2015-06-06T09:11:23Z</time>
      </trkpt>
      <trkpt lat="43.60906" lon="7.04598">
        <ele>172.21</ele>
        <time>2015-06-06T09:11:24Z</time>
      </trkpt>
      <trkpt lat="43.60907" lon="7.04596">
        <ele>172.21</ele>
        <time>2015-06-06T09:11:25Z</time>
      </trkpt>
      <trkpt lat="43.60908" lon="7.04594">
        <ele>172.69</ele>
        <time>2015-06-06T09:11:26Z</time>
      </trkpt>
      <trkpt lat="43.60909" lon="7.04591">
        <ele>172.69</ele>
        <time>2015-06-06T09:11:27Z</time>
      </trkpt>
      <trkpt lat="43.6091" lon="7.04588">
        <ele>172.69</ele>
        <time>2015-06-06T09:11:28Z</time>
      </trkpt>
      <trkpt lat="43.60924" lon="7.04554">
        <ele>174.14</ele>
        <time>2015-06-06T09:11:39Z</time>
      </trkpt>
      <trkpt lat="43.60928" lon="7.04545">
        <ele>174.62</ele>
        <time>2015-06-06T09:11:42Z</time>
      </trkpt>
      <trkpt lat="43.60929" lon="7.04541">
        <ele>175.1</ele>
        <time>2015-06-06T09:11:43Z</time>
      </trkpt>
      <trkpt lat="43.60932" lon="7.04528">
        <ele>174.62</ele>
        <time>2015-06-06T09:11:49Z</time>
      </trkpt>
      <trkpt lat="43.60932" lon="7.04526">
        <ele>174.62</ele>
        <time>2015-06-06T09:11:50Z</time>
      </trkpt>
      <trkpt lat="43.60933" lon="7.04526">
        <ele>174.62</ele>
        <time>2015-06-06T09:11:51Z</time>
      </trkpt>
      <trkpt lat="43.60934" lon="7.04529">
        <ele>174.62</ele>
        <time>2015-06-06T09:11:53Z</time>
      </trkpt>
      <trkpt lat="43.60957" lon="7.04538">
        <ele>176.54</ele>
        <time>2015-06-06T09:12:07Z</time>
      </trkpt>
      <trkpt lat="43.60975" lon="7.04541">
        <ele>175.1</ele>
        <time>2015-06-06T09:12:16Z</time>
      </trkpt>
      <trkpt lat="43.61005" lon="7.0451">
        <ele>170.77</ele>
        <time>2015-06-06T09:12:24Z</time>
      </trkpt>
      <trkpt lat="43.61007" lon="7.04504">
        <ele>170.77</ele>
        <time>2015-06-06T09:12:25Z</time>
      </trkpt>
      <trkpt lat="43.6103" lon="7.0444">
        <ele>169.33</ele>
        <time>2015-06-06T09:12:37Z</time>
      </trkpt>
      <trkpt lat="43.61034" lon="7.04426">
        <ele>170.77</ele>
        <time>2015-06-06T09:12:40Z</time>
      </trkpt>
      <trkpt lat="43.61063" lon="7.04382">
        <ele>172.21</ele>
        <time>2015-06-06T09:12:51Z</time>
      </trkpt>
      <trkpt lat="43.61065" lon="7.0438">
        <ele>172.69</ele>
        <time>2015-06-06T09:12:52Z</time>
      </trkpt>
      <trkpt lat="43.61088" lon="7.04375">
        <ele>174.62</ele>
        <time>2015-06-06T09:13:00Z</time>
      </trkpt>
      <trkpt lat="43.61102" lon="7.04382">
        <ele>175.58</ele>
        <time>2015-06-06T09:13:10Z</time>
      </trkpt>
      <trkpt lat="43.61108" lon="7.04385">
        <ele>175.58</ele>
        <time>2015-06-06T09:13:27Z</time>
      </trkpt>
      <trkpt lat="43.61108" lon="7.04386">
        <ele>175.1</ele>
        <time>2015-06-06T09:13:53Z</time>
      </trkpt>
      <trkpt lat="43.61108" lon="7.04386">
        <ele>175.1</ele>
        <time>2015-06-06T09:13:55Z</time>
      </trkpt>
      <trkpt lat="43.61105" lon="7.04388">
        <ele>175.1</ele>
        <time>2015-06-06T09:13:57Z</time>
      </trkpt>
      <trkpt lat="43.61093" lon="7.044">
        <ele>173.66</ele>
        <time>2015-06-06T09:14:02Z</time>
      </trkpt>
      <trkpt lat="43.61092" lon="7.04405">
        <ele>173.66</ele>
        <time>2015-06-06T09:14:03Z</time>
      </trkpt>
      <trkpt lat="43.61092" lon="7.0441">
        <ele>172.69</ele>
        <time>2015-06-06T09:14:04Z</time>
      </trkpt>
      <trkpt lat="43.61093" lon="7.04415">
        <ele>172.69</ele>
        <time>2015-06-06T09:14:05Z</time>
      </trkpt>
      <trkpt lat="43.61094" lon="7.04421">
        <ele>172.21</ele>
        <time>2015-06-06T09:14:06Z</time>
      </trkpt>
      <trkpt lat="43.61095" lon="7.04428">
        <ele>172.21</ele>
        <time>2015-06-06T09:14:07Z</time>
      </trkpt>
      <trkpt lat="43.61097" lon="7.04436">
        <ele>172.21</ele>
        <time>2015-06-06T09:14:08Z</time>
      </trkpt>
      <trkpt lat="43.61099" lon="7.04444">
        <ele>172.21</ele>
        <time>2015-06-06T09:14:09Z</time>
      </trkpt>
      <trkpt lat="43.61101" lon="7.04453">
        <ele>172.21</ele>
        <time>2015-06-06T09:14:10Z</time>
      </trkpt>
      <trkpt lat="43.61102" lon="7.04462">
        <ele>172.21</ele>
        <time>2015-06-06T09:14:11Z</time>
      </trkpt>
      <trkpt lat="43.61102" lon="7.0447">
        <ele>172.21</ele>
        <time>2015-06-06T09:14:12Z</time>
      </trkpt>
      <trkpt lat="43.61102" lon="7.0448">
        <ele>172.21</ele>
        <time>2015-06-06T09:14:13Z</time>
      </trkpt>
      <trkpt lat="43.61101" lon="7.04488">
        <ele>171.73</ele>
        <time>2015-06-06T09:14:14Z</time>
      </trkpt>
      <trkpt lat="43.61101" lon="7.04497">
        <ele>171.73</ele>
        <time>2015-06-06T09:14:15Z</time>
      </trkpt>
      <trkpt lat="43.61103" lon="7.04504">
        <ele>171.25</ele>
        <time>2015-06-06T09:14:16Z</time>
      </trkpt>
      <trkpt lat="43.61109" lon="7.04535">
        <ele>170.29</ele>
        <time>2015-06-06T09:14:20Z</time>
      </trkpt>
      <trkpt lat="43.61114" lon="7.0455">
        <ele>169.33</ele>
        <time>2015-06-06T09:14:22Z</time>
      </trkpt>
      <trkpt lat="43.61115" lon="7.04558">
        <ele>169.33</ele>
        <time>2015-06-06T09:14:23Z</time>
      </trkpt>
      <trkpt lat="43.61117" lon="7.04567">
        <ele>169.33</ele>
        <time>2015-06-06T09:14:24Z</time>
      </trkpt>
      <trkpt lat="43.6112" lon="7.04588">
        <ele>169.33</ele>
        <time>2015-06-06T09:14:27Z</time>
      </trkpt>
      <trkpt lat="43.61121" lon="7.04595">
        <ele>169.33</ele>
        <time>2015-06-06T09:14:28Z</time>
      </trkpt>
      <trkpt lat="43.61122" lon="7.04603">
        <ele>169.33</ele>
        <time>2015-06-06T09:14:29Z</time>
      </trkpt>
      <trkpt lat="43.61123" lon="7.04612">
        <ele>169.33</ele>
        <time>2015-06-06T09:14:30Z</time>
      </trkpt>
      <trkpt lat="43.61124" lon="7.0462">
        <ele>169.33</ele>
        <time>2015-06-06T09:14:31Z</time>
      </trkpt>
      <trkpt lat="43.61126" lon="7.04626">
        <ele>169.33</ele>
        <time>2015-06-06T09:14:32Z</time>
      </trkpt>
      <trkpt lat="43.61129" lon="7.04632">
        <ele>169.33</ele>
        <time>2015-06-06T09:14:33Z</time>
      </trkpt>
      <trkpt lat="43.61131" lon="7.04637">
        <ele>169.33</ele>
        <time>2015-06-06T09:14:34Z</time>
      </trkpt>
      <trkpt lat="43.61133" lon="7.04643">
        <ele>169.33</ele>
        <time>2015-06-06T09:14:35Z</time>
      </trkpt>
      <trkpt lat="43.61135" lon="7.04648">
        <ele>169.33</ele>
        <time>2015-06-06T09:14:36Z</time>
      </trkpt>
      <trkpt lat="43.61139" lon="7.04653">
        <ele>169.33</ele>
        <time>2015-06-06T09:14:37Z</time>
      </trkpt>
      <trkpt lat="43.61142" lon="7.04659">
        <ele>168.85</ele>
        <time>2015-06-06T09:14:38Z</time>
      </trkpt>
      <trkpt lat="43.6117" lon="7.04693">
        <ele>165.48</ele>
        <time>2015-06-06T09:14:48Z</time>
      </trkpt>
      <trkpt lat="43.61176" lon="7.04697">
        <ele>165</ele>
        <time>2015-06-06T09:14:50Z</time>
      </trkpt>
      <trkpt lat="43.61191" lon="7.04712">
        <ele>161.64</ele>
        <time>2015-06-06T09:14:55Z</time>
      </trkpt>
      <trkpt lat="43.61198" lon="7.04719">
        <ele>160.68</ele>
        <time>2015-06-06T09:15:04Z</time>
      </trkpt>
      <trkpt lat="43.61201" lon="7.04723">
        <ele>160.68</ele>
        <time>2015-06-06T09:15:38Z</time>
      </trkpt>
      <trkpt lat="43.612" lon="7.04724">
        <ele>160.68</ele>
        <time>2015-06-06T09:16:02Z</time>
      </trkpt>
      <trkpt lat="43.61203" lon="7.04723">
        <ele>160.2</ele>
        <time>2015-06-06T09:16:29Z</time>
      </trkpt>
      <trkpt lat="43.61205" lon="7.04722">
        <ele>160.2</ele>
        <time>2015-06-06T09:16:31Z</time>
      </trkpt>
      <trkpt lat="43.6121" lon="7.04722">
        <ele>159.72</ele>
        <time>2015-06-06T09:16:36Z</time>
      </trkpt>
      <trkpt lat="43.61214" lon="7.04722">
        <ele>159.72</ele>
        <time>2015-06-06T09:16:39Z</time>
      </trkpt>
      <trkpt lat="43.61216" lon="7.04721">
        <ele>159.72</ele>
        <time>2015-06-06T09:16:40Z</time>
      </trkpt>
      <trkpt lat="43.61219" lon="7.04721">
        <ele>159.72</ele>
        <time>2015-06-06T09:16:41Z</time>
      </trkpt>
      <trkpt lat="43.61245" lon="7.04707">
        <ele>159.72</ele>
        <time>2015-06-06T09:16:50Z</time>
      </trkpt>
      <trkpt lat="43.61247" lon="7.04704">
        <ele>159.72</ele>
        <time>2015-06-06T09:16:51Z</time>
      </trkpt>
      <trkpt lat="43.61248" lon="7.04701">
        <ele>161.16</ele>
        <time>2015-06-06T09:16:52Z</time>
      </trkpt>
      <trkpt lat="43.6125" lon="7.04697">
        <ele>161.64</ele>
        <time>2015-06-06T09:16:54Z</time>
      </trkpt>
      <trkpt lat="43.61252" lon="7.04694">
        <ele>162.12</ele>
        <time>2015-06-06T09:16:55Z</time>
      </trkpt>
      <trkpt lat="43.61254" lon="7.04692">
        <ele>162.12</ele>
        <time>2015-06-06T09:16:56Z</time>
      </trkpt>
      <trkpt lat="43.61255" lon="7.0469">
        <ele>162.6</ele>
        <time>2015-06-06T09:16:57Z</time>
      </trkpt>
      <trkpt lat="43.61257" lon="7.04687">
        <ele>162.6</ele>
        <time>2015-06-06T09:16:58Z</time>
      </trkpt>
      <trkpt lat="43.61258" lon="7.04684">
        <ele>163.08</ele>
        <time>2015-06-06T09:16:59Z</time>
      </trkpt>
      <trkpt lat="43.6126" lon="7.04682">
        <ele>163.08</ele>
        <time>2015-06-06T09:17:00Z</time>
      </trkpt>
      <trkpt lat="43.61262" lon="7.0468">
        <ele>163.56</ele>
        <time>2015-06-06T09:17:01Z</time>
      </trkpt>
      <trkpt lat="43.61263" lon="7.04677">
        <ele>163.56</ele>
        <time>2015-06-06T09:17:02Z</time>
      </trkpt>
      <trkpt lat="43.61265" lon="7.04674">
        <ele>163.56</ele>
        <time>2015-06-06T09:17:03Z</time>
      </trkpt>
      <trkpt lat="43.61266" lon="7.04671">
        <ele>163.56</ele>
        <time>2015-06-06T09:17:04Z</time>
      </trkpt>
      <trkpt lat="43.61268" lon="7.04667">
        <ele>164.04</ele>
        <time>2015-06-06T09:17:05Z</time>
      </trkpt>
      <trkpt lat="43.6127" lon="7.04663">
        <ele>164.04</ele>
        <time>2015-06-06T09:17:06Z</time>
      </trkpt>
      <trkpt lat="43.61272" lon="7.04658">
        <ele>164.04</ele>
        <time>2015-06-06T09:17:07Z</time>
      </trkpt>
      <trkpt lat="43.61273" lon="7.04653">
        <ele>164.04</ele>
        <time>2015-06-06T09:17:08Z</time>
      </trkpt>
      <trkpt lat="43.61275" lon="7.04649">
        <ele>164.52</ele>
        <time>2015-06-06T09:17:09Z</time>
      </trkpt>
      <trkpt lat="43.61284" lon="7.04625">
        <ele>164.52</ele>
        <time>2015-06-06T09:17:13Z</time>
      </trkpt>
      <trkpt lat="43.61288" lon="7.04603">
        <ele>162.12</ele>
        <time>2015-06-06T09:17:16Z</time>
      </trkpt>
      <trkpt lat="43.61289" lon="7.04598">
        <ele>161.64</ele>
        <time>2015-06-06T09:17:17Z</time>
      </trkpt>
      <trkpt lat="43.61291" lon="7.04592">
        <ele>161.16</ele>
        <time>2015-06-06T09:17:18Z</time>
      </trkpt>
      <trkpt lat="43.61293" lon="7.04586">
        <ele>161.16</ele>
        <time>2015-06-06T09:17:19Z</time>
      </trkpt>
      <trkpt lat="43.61294" lon="7.04579">
        <ele>161.16</ele>
        <time>2015-06-06T09:17:20Z</time>
      </trkpt>
      <trkpt lat="43.61294" lon="7.04573">
        <ele>161.16</ele>
        <time>2015-06-06T09:17:21Z</time>
      </trkpt>
      <trkpt lat="43.61295" lon="7.04565">
        <ele>160.68</ele>
        <time>2015-06-06T09:17:22Z</time>
      </trkpt>
      <trkpt lat="43.61296" lon="7.04558">
        <ele>160.2</ele>
        <time>2015-06-06T09:17:23Z</time>
      </trkpt>
      <trkpt lat="43.61299" lon="7.04542">
        <ele>159.24</ele>
        <time>2015-06-06T09:17:30Z</time>
      </trkpt>
      <trkpt lat="43.61303" lon="7.04535">
        <ele>158.75</ele>
        <time>2015-06-06T09:17:57Z</time>
      </trkpt>
      <trkpt lat="43.61302" lon="7.04534">
        <ele>158.75</ele>
        <time>2015-06-06T09:18:26Z</time>
      </trkpt>
      <trkpt lat="43.61305" lon="7.04535">
        <ele>158.75</ele>
        <time>2015-06-06T09:18:52Z</time>
      </trkpt>
      <trkpt lat="43.61305" lon="7.04528">
        <ele>158.27</ele>
        <time>2015-06-06T09:18:55Z</time>
      </trkpt>
      <trkpt lat="43.61306" lon="7.04515">
        <ele>157.31</ele>
        <time>2015-06-06T09:18:57Z</time>
      </trkpt>
      <trkpt lat="43.6131" lon="7.04497">
        <ele>155.87</ele>
        <time>2015-06-06T09:18:59Z</time>
      </trkpt>
      <trkpt lat="43.61314" lon="7.04482">
        <ele>155.39</ele>
        <time>2015-06-06T09:19:01Z</time>
      </trkpt>
      <trkpt lat="43.61319" lon="7.04474">
        <ele>153.47</ele>
        <time>2015-06-06T09:19:03Z</time>
      </trkpt>
      <trkpt lat="43.61321" lon="7.0447">
        <ele>152.51</ele>
        <time>2015-06-06T09:19:05Z</time>
      </trkpt>
      <trkpt lat="43.61322" lon="7.04461">
        <ele>151.06</ele>
        <time>2015-06-06T09:19:08Z</time>
      </trkpt>
      <trkpt lat="43.61322" lon="7.04456">
        <ele>150.58</ele>
        <time>2015-06-06T09:19:09Z</time>
      </trkpt>
      <trkpt lat="43.61324" lon="7.04438">
        <ele>150.1</ele>
        <time>2015-06-06T09:19:17Z</time>
      </trkpt>
      <trkpt lat="43.6133" lon="7.04428">
        <ele>150.1</ele>
        <time>2015-06-06T09:19:41Z</time>
      </trkpt>
      <trkpt lat="43.61334" lon="7.04419">
        <ele>150.1</ele>
        <time>2015-06-06T09:19:44Z</time>
      </trkpt>
      <trkpt lat="43.61344" lon="7.04397">
        <ele>148.66</ele>
        <time>2015-06-06T09:19:52Z</time>
      </trkpt>
      <trkpt lat="43.61348" lon="7.04386">
        <ele>148.18</ele>
        <time>2015-06-06T09:19:54Z</time>
      </trkpt>
      <trkpt lat="43.61354" lon="7.04371">
        <ele>146.74</ele>
        <time>2015-06-06T09:19:58Z</time>
      </trkpt>
      <trkpt lat="43.6136" lon="7.04361">
        <ele>144.34</ele>
        <time>2015-06-06T09:20:02Z</time>
      </trkpt>
      <trkpt lat="43.61361" lon="7.04358">
        <ele>143.37</ele>
        <time>2015-06-06T09:20:03Z</time>
      </trkpt>
      <trkpt lat="43.6137" lon="7.04338">
        <ele>140.97</ele>
        <time>2015-06-06T09:20:07Z</time>
      </trkpt>
      <trkpt lat="43.61378" lon="7.04326">
        <ele>140.01</ele>
        <time>2015-06-06T09:20:17Z</time>
      </trkpt>
      <trkpt lat="43.61383" lon="7.04318">
        <ele>140.01</ele>
        <time>2015-06-06T09:20:41Z</time>
      </trkpt>
      <trkpt lat="43.61385" lon="7.04319">
        <ele>141.45</ele>
        <time>2015-06-06T09:20:54Z</time>
      </trkpt>
      <trkpt lat="43.6141" lon="7.04292">
        <ele>138.09</ele>
        <time>2015-06-06T09:21:05Z</time>
      </trkpt>
      <trkpt lat="43.61411" lon="7.0429">
        <ele>138.09</ele>
        <time>2015-06-06T09:21:06Z</time>
      </trkpt>
      <trkpt lat="43.61411" lon="7.04287">
        <ele>137.61</ele>
        <time>2015-06-06T09:21:07Z</time>
      </trkpt>
      <trkpt lat="43.61411" lon="7.04268">
        <ele>137.13</ele>
        <time>2015-06-06T09:21:12Z</time>
      </trkpt>
      <trkpt lat="43.61411" lon="7.04262">
        <ele>137.13</ele>
        <time>2015-06-06T09:21:14Z</time>
      </trkpt>
      <trkpt lat="43.61411" lon="7.04227">
        <ele>141.45</ele>
        <time>2015-06-06T09:21:24Z</time>
      </trkpt>
      <trkpt lat="43.61411" lon="7.04221">
        <ele>141.45</ele>
        <time>2015-06-06T09:21:25Z</time>
      </trkpt>
      <trkpt lat="43.61412" lon="7.04191">
        <ele>141.45</ele>
        <time>2015-06-06T09:21:30Z</time>
      </trkpt>
      <trkpt lat="43.61407" lon="7.04153">
        <ele>141.45</ele>
        <time>2015-06-06T09:21:40Z</time>
      </trkpt>
      <trkpt lat="43.61402" lon="7.0414">
        <ele>144.34</ele>
        <time>2015-06-06T09:21:48Z</time>
      </trkpt>
      <trkpt lat="43.61398" lon="7.04131">
        <ele>142.41</ele>
        <time>2015-06-06T09:22:05Z</time>
      </trkpt>
      <trkpt lat="43.61397" lon="7.04122">
        <ele>142.41</ele>
        <time>2015-06-06T09:22:29Z</time>
      </trkpt>
      <trkpt lat="43.61397" lon="7.04119">
        <ele>142.41</ele>
        <time>2015-06-06T09:22:30Z</time>
      </trkpt>
      <trkpt lat="43.61398" lon="7.0411">
        <ele>140.97</ele>
        <time>2015-06-06T09:22:32Z</time>
      </trkpt>
      <trkpt lat="43.61397" lon="7.04104">
        <ele>140.97</ele>
        <time>2015-06-06T09:22:33Z</time>
      </trkpt>
      <trkpt lat="43.61396" lon="7.04097">
        <ele>140.49</ele>
        <time>2015-06-06T09:22:34Z</time>
      </trkpt>
      <trkpt lat="43.61396" lon="7.04091">
        <ele>140.49</ele>
        <time>2015-06-06T09:22:35Z</time>
      </trkpt>
      <trkpt lat="43.61396" lon="7.04086">
        <ele>140.49</ele>
        <time>2015-06-06T09:22:36Z</time>
      </trkpt>
      <trkpt lat="43.61394" lon="7.0407">
        <ele>140.49</ele>
        <time>2015-06-06T09:22:41Z</time>
      </trkpt>
      <trkpt lat="43.61394" lon="7.04063">
        <ele>140.01</ele>
        <time>2015-06-06T09:22:46Z</time>
      </trkpt>
      <trkpt lat="43.61393" lon="7.04061">
        <ele>140.01</ele>
        <time>2015-06-06T09:22:47Z</time>
      </trkpt>
      <trkpt lat="43.61393" lon="7.04059">
        <ele>139.53</ele>
        <time>2015-06-06T09:22:48Z</time>
      </trkpt>
      <trkpt lat="43.61392" lon="7.04055">
        <ele>139.05</ele>
        <time>2015-06-06T09:22:49Z</time>
      </trkpt>
      <trkpt lat="43.61391" lon="7.0405">
        <ele>138.57</ele>
        <time>2015-06-06T09:22:50Z</time>
      </trkpt>
      <trkpt lat="43.6139" lon="7.04044">
        <ele>137.61</ele>
        <time>2015-06-06T09:22:51Z</time>
      </trkpt>
      <trkpt lat="43.61387" lon="7.04038">
        <ele>136.64</ele>
        <time>2015-06-06T09:22:52Z</time>
      </trkpt>
      <trkpt lat="43.61383" lon="7.04033">
        <ele>136.64</ele>
        <time>2015-06-06T09:22:53Z</time>
      </trkpt>
      <trkpt lat="43.61379" lon="7.04029">
        <ele>136.64</ele>
        <time>2015-06-06T09:22:54Z</time>
      </trkpt>
      <trkpt lat="43.61374" lon="7.04025">
        <ele>136.16</ele>
        <time>2015-06-06T09:22:55Z</time>
      </trkpt>
      <trkpt lat="43.6137" lon="7.04021">
        <ele>136.16</ele>
        <time>2015-06-06T09:22:56Z</time>
      </trkpt>
      <trkpt lat="43.61365" lon="7.04018">
        <ele>136.16</ele>
        <time>2015-06-06T09:22:57Z</time>
      </trkpt>
      <trkpt lat="43.61361" lon="7.04014">
        <ele>136.16</ele>
        <time>2015-06-06T09:22:58Z</time>
      </trkpt>
      <trkpt lat="43.61357" lon="7.04011">
        <ele>136.16</ele>
        <time>2015-06-06T09:22:59Z</time>
      </trkpt>
      <trkpt lat="43.61353" lon="7.04008">
        <ele>136.16</ele>
        <time>2015-06-06T09:23:00Z</time>
      </trkpt>
      <trkpt lat="43.61317" lon="7.0397">
        <ele>137.61</ele>
        <time>2015-06-06T09:23:12Z</time>
      </trkpt>
      <trkpt lat="43.61285" lon="7.03922">
        <ele>137.61</ele>
        <time>2015-06-06T09:23:24Z</time>
      </trkpt>
      <trkpt lat="43.61265" lon="7.03888">
        <ele>139.05</ele>
        <time>2015-06-06T09:23:34Z</time>
      </trkpt>
      <trkpt lat="43.61258" lon="7.03855">
        <ele>139.05</ele>
        <time>2015-06-06T09:23:40Z</time>
      </trkpt>
      <trkpt lat="43.61254" lon="7.03837">
        <ele>139.05</ele>
        <time>2015-06-06T09:23:43Z</time>
      </trkpt>
      <trkpt lat="43.61254" lon="7.03831">
        <ele>139.05</ele>
        <time>2015-06-06T09:23:44Z</time>
      </trkpt>
      <trkpt lat="43.61254" lon="7.03825">
        <ele>139.05</ele>
        <time>2015-06-06T09:23:45Z</time>
      </trkpt>
      <trkpt lat="43.61253" lon="7.03819">
        <ele>139.05</ele>
        <time>2015-06-06T09:23:46Z</time>
      </trkpt>
      <trkpt lat="43.61251" lon="7.03814">
        <ele>139.05</ele>
        <time>2015-06-06T09:23:47Z</time>
      </trkpt>
      <trkpt lat="43.6125" lon="7.03809">
        <ele>139.05</ele>
        <time>2015-06-06T09:23:48Z</time>
      </trkpt>
      <trkpt lat="43.61248" lon="7.03805">
        <ele>139.05</ele>
        <time>2015-06-06T09:23:49Z</time>
      </trkpt>
      <trkpt lat="43.61246" lon="7.03801">
        <ele>139.05</ele>
        <time>2015-06-06T09:23:50Z</time>
      </trkpt>
      <trkpt lat="43.61243" lon="7.03797">
        <ele>139.05</ele>
        <time>2015-06-06T09:23:51Z</time>
      </trkpt>
      <trkpt lat="43.6124" lon="7.03794">
        <ele>139.05</ele>
        <time>2015-06-06T09:23:52Z</time>
      </trkpt>
      <trkpt lat="43.61236" lon="7.03791">
        <ele>139.05</ele>
        <time>2015-06-06T09:23:53Z</time>
      </trkpt>
      <trkpt lat="43.61233" lon="7.03789">
        <ele>139.05</ele>
        <time>2015-06-06T09:23:54Z</time>
      </trkpt>
      <trkpt lat="43.61229" lon="7.03788">
        <ele>139.05</ele>
        <time>2015-06-06T09:23:55Z</time>
      </trkpt>
      <trkpt lat="43.61227" lon="7.03788">
        <ele>139.53</ele>
        <time>2015-06-06T09:23:56Z</time>
      </trkpt>
      <trkpt lat="43.61225" lon="7.03789">
        <ele>139.53</ele>
        <time>2015-06-06T09:23:57Z</time>
      </trkpt>
      <trkpt lat="43.61223" lon="7.0379">
        <ele>140.49</ele>
        <time>2015-06-06T09:23:58Z</time>
      </trkpt>
      <trkpt lat="43.61221" lon="7.0379">
        <ele>140.49</ele>
        <time>2015-06-06T09:23:59Z</time>
      </trkpt>
      <trkpt lat="43.61218" lon="7.0379">
        <ele>141.45</ele>
        <time>2015-06-06T09:24:03Z</time>
      </trkpt>
      <trkpt lat="43.61216" lon="7.0379">
        <ele>141.93</ele>
        <time>2015-06-06T09:24:04Z</time>
      </trkpt>
      <trkpt lat="43.6121" lon="7.03786">
        <ele>141.93</ele>
        <time>2015-06-06T09:24:07Z</time>
      </trkpt>
      <trkpt lat="43.61209" lon="7.03785">
        <ele>142.41</ele>
        <time>2015-06-06T09:24:08Z</time>
      </trkpt>
      <trkpt lat="43.61206" lon="7.03784">
        <ele>142.41</ele>
        <time>2015-06-06T09:24:20Z</time>
      </trkpt>
      <trkpt lat="43.61204" lon="7.03782">
        <ele>142.41</ele>
        <time>2015-06-06T09:24:28Z</time>
      </trkpt>
      <trkpt lat="43.61202" lon="7.0378">
        <ele>142.41</ele>
        <time>2015-06-06T09:24:29Z</time>
      </trkpt>
      <trkpt lat="43.61201" lon="7.03779">
        <ele>142.41</ele>
        <time>2015-06-06T09:24:30Z</time>
      </trkpt>
      <trkpt lat="43.61199" lon="7.03779">
        <ele>142.41</ele>
        <time>2015-06-06T09:24:31Z</time>
      </trkpt>
      <trkpt lat="43.61198" lon="7.03778">
        <ele>142.41</ele>
        <time>2015-06-06T09:24:32Z</time>
      </trkpt>
      <trkpt lat="43.61194" lon="7.03776">
        <ele>142.41</ele>
        <time>2015-06-06T09:24:47Z</time>
      </trkpt>
      <trkpt lat="43.61191" lon="7.03774">
        <ele>142.41</ele>
        <time>2015-06-06T09:25:08Z</time>
      </trkpt>
      <trkpt lat="43.61169" lon="7.03755">
        <ele>140.49</ele>
        <time>2015-06-06T09:25:16Z</time>
      </trkpt>
      <trkpt lat="43.61166" lon="7.03752">
        <ele>140.49</ele>
        <time>2015-06-06T09:25:18Z</time>
      </trkpt>
      <trkpt lat="43.61165" lon="7.03749">
        <ele>140.49</ele>
        <time>2015-06-06T09:25:19Z</time>
      </trkpt>
      <trkpt lat="43.61162" lon="7.03739">
        <ele>141.93</ele>
        <time>2015-06-06T09:25:22Z</time>
      </trkpt>
      <trkpt lat="43.6116" lon="7.03736">
        <ele>141.93</ele>
        <time>2015-06-06T09:25:23Z</time>
      </trkpt>
      <trkpt lat="43.61158" lon="7.03734">
        <ele>141.93</ele>
        <time>2015-06-06T09:25:24Z</time>
      </trkpt>
      <trkpt lat="43.61144" lon="7.03709">
        <ele>142.89</ele>
        <time>2015-06-06T09:25:34Z</time>
      </trkpt>
      <trkpt lat="43.61142" lon="7.03703">
        <ele>142.89</ele>
        <time>2015-06-06T09:25:36Z</time>
      </trkpt>
      <trkpt lat="43.6114" lon="7.037">
        <ele>142.89</ele>
        <time>2015-06-06T09:25:37Z</time>
      </trkpt>
      <trkpt lat="43.61138" lon="7.03697">
        <ele>142.89</ele>
        <time>2015-06-06T09:25:38Z</time>
      </trkpt>
      <trkpt lat="43.61111" lon="7.03667">
        <ele>143.37</ele>
        <time>2015-06-06T09:25:49Z</time>
      </trkpt>
      <trkpt lat="43.61099" lon="7.0365">
        <ele>143.37</ele>
        <time>2015-06-06T09:25:54Z</time>
      </trkpt>
      <trkpt lat="43.61095" lon="7.03648">
        <ele>143.37</ele>
        <time>2015-06-06T09:25:55Z</time>
      </trkpt>
      <trkpt lat="43.61091" lon="7.03645">
        <ele>143.85</ele>
        <time>2015-06-06T09:25:56Z</time>
      </trkpt>
      <trkpt lat="43.61089" lon="7.03643">
        <ele>143.85</ele>
        <time>2015-06-06T09:25:57Z</time>
      </trkpt>
      <trkpt lat="43.61086" lon="7.03641">
        <ele>144.34</ele>
        <time>2015-06-06T09:25:58Z</time>
      </trkpt>
      <trkpt lat="43.61083" lon="7.03639">
        <ele>144.34</ele>
        <time>2015-06-06T09:25:59Z</time>
      </trkpt>
      <trkpt lat="43.61081" lon="7.03637">
        <ele>145.3</ele>
        <time>2015-06-06T09:26:00Z</time>
      </trkpt>
      <trkpt lat="43.61078" lon="7.03636">
        <ele>145.3</ele>
        <time>2015-06-06T09:26:01Z</time>
      </trkpt>
      <trkpt lat="43.61071" lon="7.03639">
        <ele>145.78</ele>
        <time>2015-06-06T09:26:05Z</time>
      </trkpt>
      <trkpt lat="43.61068" lon="7.03641">
        <ele>146.74</ele>
        <time>2015-06-06T09:26:07Z</time>
      </trkpt>
      <trkpt lat="43.61049" lon="7.0365">
        <ele>148.18</ele>
        <time>2015-06-06T09:26:20Z</time>
      </trkpt>
      <trkpt lat="43.61044" lon="7.03653">
        <ele>148.18</ele>
        <time>2015-06-06T09:26:24Z</time>
      </trkpt>
      <trkpt lat="43.61037" lon="7.03653">
        <ele>148.18</ele>
        <time>2015-06-06T09:26:40Z</time>
      </trkpt>
      <trkpt lat="43.61031" lon="7.03655">
        <ele>148.66</ele>
        <time>2015-06-06T09:27:08Z</time>
      </trkpt>
      <trkpt lat="43.61029" lon="7.03654">
        <ele>148.66</ele>
        <time>2015-06-06T09:27:34Z</time>
      </trkpt>
      <trkpt lat="43.61029" lon="7.03651">
        <ele>148.66</ele>
        <time>2015-06-06T09:28:00Z</time>
      </trkpt>
      <trkpt lat="43.61034" lon="7.03649">
        <ele>148.66</ele>
        <time>2015-06-06T09:28:32Z</time>
      </trkpt>
      <trkpt lat="43.61034" lon="7.0365">
        <ele>148.66</ele>
        <time>2015-06-06T09:28:50Z</time>
      </trkpt>
      <trkpt lat="43.61031" lon="7.03651">
        <ele>148.66</ele>
        <time>2015-06-06T09:29:09Z</time>
      </trkpt>
      <trkpt lat="43.6103" lon="7.03649">
        <ele>148.66</ele>
        <time>2015-06-06T09:29:11Z</time>
      </trkpt>
      <trkpt lat="43.60998" lon="7.0363">
        <ele>149.14</ele>
        <time>2015-06-06T09:29:20Z</time>
      </trkpt>
      <trkpt lat="43.60992" lon="7.03624">
        <ele>149.14</ele>
        <time>2015-06-06T09:29:21Z</time>
      </trkpt>
      <trkpt lat="43.60989" lon="7.0362">
        <ele>150.58</ele>
        <time>2015-06-06T09:29:22Z</time>
      </trkpt>
      <trkpt lat="43.60986" lon="7.03615">
        <ele>151.54</ele>
        <time>2015-06-06T09:29:23Z</time>
      </trkpt>
      <trkpt lat="43.60983" lon="7.0361">
        <ele>152.03</ele>
        <time>2015-06-06T09:29:24Z</time>
      </trkpt>
      <trkpt lat="43.60983" lon="7.03606">
        <ele>152.51</ele>
        <time>2015-06-06T09:29:25Z</time>
      </trkpt>
      <trkpt lat="43.60983" lon="7.03602">
        <ele>153.47</ele>
        <time>2015-06-06T09:29:26Z</time>
      </trkpt>
      <trkpt lat="43.60984" lon="7.03598">
        <ele>153.47</ele>
        <time>2015-06-06T09:29:27Z</time>
      </trkpt>
      <trkpt lat="43.60984" lon="7.03594">
        <ele>153.47</ele>
        <time>2015-06-06T09:29:28Z</time>
      </trkpt>
      <trkpt lat="43.60965" lon="7.03557">
        <ele>150.1</ele>
        <time>2015-06-06T09:29:37Z</time>
      </trkpt>
      <trkpt lat="43.60961" lon="7.03558">
        <ele>149.62</ele>
        <time>2015-06-06T09:29:38Z</time>
      </trkpt>
      <trkpt lat="43.60956" lon="7.0356">
        <ele>148.66</ele>
        <time>2015-06-06T09:29:39Z</time>
      </trkpt>
      <trkpt lat="43.60951" lon="7.0356">
        <ele>148.66</ele>
        <time>2015-06-06T09:29:40Z</time>
      </trkpt>
      <trkpt lat="43.60946" lon="7.0356">
        <ele>147.7</ele>
        <time>2015-06-06T09:29:41Z</time>
      </trkpt>
      <trkpt lat="43.60942" lon="7.03558">
        <ele>147.7</ele>
        <time>2015-06-06T09:29:42Z</time>
      </trkpt>
      <trkpt lat="43.60938" lon="7.03555">
        <ele>147.7</ele>
        <time>2015-06-06T09:29:43Z</time>
      </trkpt>
      <trkpt lat="43.60934" lon="7.03551">
        <ele>147.7</ele>
        <time>2015-06-06T09:29:44Z</time>
      </trkpt>
      <trkpt lat="43.60931" lon="7.03546">
        <ele>147.7</ele>
        <time>2015-06-06T09:29:45Z</time>
      </trkpt>
      <trkpt lat="43.60929" lon="7.03541">
        <ele>147.7</ele>
        <time>2015-06-06T09:29:46Z</time>
      </trkpt>
      <trkpt lat="43.60928" lon="7.03537">
        <ele>147.7</ele>
        <time>2015-06-06T09:29:47Z</time>
      </trkpt>
      <trkpt lat="43.60928" lon="7.03532">
        <ele>149.62</ele>
        <time>2015-06-06T09:29:48Z</time>
      </trkpt>
      <trkpt lat="43.60927" lon="7.03528">
        <ele>149.62</ele>
        <time>2015-06-06T09:29:49Z</time>
      </trkpt>
      <trkpt lat="43.60922" lon="7.03506">
        <ele>152.03</ele>
        <time>2015-06-06T09:29:56Z</time>
      </trkpt>
      <trkpt lat="43.60921" lon="7.03503">
        <ele>152.51</ele>
        <time>2015-06-06T09:29:57Z</time>
      </trkpt>
      <trkpt lat="43.60921" lon="7.035">
        <ele>152.51</ele>
        <time>2015-06-06T09:29:58Z</time>
      </trkpt>
      <trkpt lat="43.60921" lon="7.03497">
        <ele>152.99</ele>
        <time>2015-06-06T09:29:59Z</time>
      </trkpt>
      <trkpt lat="43.60921" lon="7.03494">
        <ele>152.99</ele>
        <time>2015-06-06T09:30:00Z</time>
      </trkpt>
      <trkpt lat="43.6092" lon="7.03491">
        <ele>153.95</ele>
        <time>2015-06-06T09:30:01Z</time>
      </trkpt>
      <trkpt lat="43.6092" lon="7.03488">
        <ele>153.95</ele>
        <time>2015-06-06T09:30:02Z</time>
      </trkpt>
      <trkpt lat="43.60918" lon="7.0348">
        <ele>154.43</ele>
        <time>2015-06-06T09:30:16Z</time>
      </trkpt>
      <trkpt lat="43.60917" lon="7.03475">
        <ele>154.43</ele>
        <time>2015-06-06T09:30:36Z</time>
      </trkpt>
      <trkpt lat="43.6091" lon="7.03462">
        <ele>155.39</ele>
        <time>2015-06-06T09:30:50Z</time>
      </trkpt>
      <trkpt lat="43.60909" lon="7.0346">
        <ele>155.39</ele>
        <time>2015-06-06T09:30:51Z</time>
      </trkpt>
      <trkpt lat="43.60908" lon="7.03459">
        <ele>155.87</ele>
        <time>2015-06-06T09:30:52Z</time>
      </trkpt>
      <trkpt lat="43.60907" lon="7.03457">
        <ele>155.87</ele>
        <time>2015-06-06T09:30:53Z</time>
      </trkpt>
      <trkpt lat="43.60906" lon="7.03456">
        <ele>155.87</ele>
        <time>2015-06-06T09:30:54Z</time>
      </trkpt>
      <trkpt lat="43.60905" lon="7.03454">
        <ele>155.87</ele>
        <time>2015-06-06T09:30:55Z</time>
      </trkpt>
      <trkpt lat="43.60903" lon="7.03453">
        <ele>155.87</ele>
        <time>2015-06-06T09:30:56Z</time>
      </trkpt>
      <trkpt lat="43.60899" lon="7.03449">
        <ele>156.35</ele>
        <time>2015-06-06T09:30:59Z</time>
      </trkpt>
      <trkpt lat="43.60898" lon="7.03448">
        <ele>156.35</ele>
        <time>2015-06-06T09:31:00Z</time>
      </trkpt>
      <trkpt lat="43.60881" lon="7.0344">
        <ele>154.43</ele>
        <time>2015-06-06T09:31:12Z</time>
      </trkpt>
      <trkpt lat="43.60863" lon="7.03441">
        <ele>151.54</ele>
        <time>2015-06-06T09:31:17Z</time>
      </trkpt>
      <trkpt lat="43.60859" lon="7.0344">
        <ele>150.58</ele>
        <time>2015-06-06T09:31:18Z</time>
      </trkpt>
      <trkpt lat="43.60857" lon="7.03438">
        <ele>150.58</ele>
        <time>2015-06-06T09:31:19Z</time>
      </trkpt>
      <trkpt lat="43.60855" lon="7.03434">
        <ele>150.1</ele>
        <time>2015-06-06T09:31:20Z</time>
      </trkpt>
      <trkpt lat="43.60854" lon="7.0343">
        <ele>150.1</ele>
        <time>2015-06-06T09:31:21Z</time>
      </trkpt>
      <trkpt lat="43.60853" lon="7.03425">
        <ele>150.1</ele>
        <time>2015-06-06T09:31:22Z</time>
      </trkpt>
      <trkpt lat="43.60852" lon="7.0342">
        <ele>150.1</ele>
        <time>2015-06-06T09:31:23Z</time>
      </trkpt>
      <trkpt lat="43.60853" lon="7.03414">
        <ele>149.62</ele>
        <time>2015-06-06T09:31:24Z</time>
      </trkpt>
      <trkpt lat="43.60855" lon="7.03408">
        <ele>149.62</ele>
        <time>2015-06-06T09:31:25Z</time>
      </trkpt>
      <trkpt lat="43.60857" lon="7.03403">
        <ele>149.14</ele>
        <time>2015-06-06T09:31:26Z</time>
      </trkpt>
      <trkpt lat="43.60852" lon="7.03363">
        <ele>147.7</ele>
        <time>2015-06-06T09:31:34Z</time>
      </trkpt>
      <trkpt lat="43.60826" lon="7.03324">
        <ele>147.7</ele>
        <time>2015-06-06T09:31:46Z</time>
      </trkpt>
      <trkpt lat="43.60804" lon="7.03289">
        <ele>149.14</ele>
        <time>2015-06-06T09:31:57Z</time>
      </trkpt>
      <trkpt lat="43.60803" lon="7.03286">
        <ele>149.14</ele>
        <time>2015-06-06T09:31:58Z</time>
      </trkpt>
      <trkpt lat="43.60782" lon="7.03256">
        <ele>149.14</ele>
        <time>2015-06-06T09:32:10Z</time>
      </trkpt>
      <trkpt lat="43.60761" lon="7.03228">
        <ele>149.14</ele>
        <time>2015-06-06T09:32:22Z</time>
      </trkpt>
      <trkpt lat="43.60739" lon="7.03203">
        <ele>151.06</ele>
        <time>2015-06-06T09:32:36Z</time>
      </trkpt>
      <trkpt lat="43.60723" lon="7.03173">
        <ele>151.06</ele>
        <time>2015-06-06T09:32:49Z</time>
      </trkpt>
      <trkpt lat="43.60711" lon="7.03136">
        <ele>152.03</ele>
        <time>2015-06-06T09:33:03Z</time>
      </trkpt>
      <trkpt lat="43.60692" lon="7.03096">
        <ele>152.51</ele>
        <time>2015-06-06T09:33:18Z</time>
      </trkpt>
      <trkpt lat="43.60685" lon="7.03086">
        <ele>152.99</ele>
        <time>2015-06-06T09:33:23Z</time>
      </trkpt>
      <trkpt lat="43.60684" lon="7.03084">
        <ele>152.99</ele>
        <time>2015-06-06T09:33:24Z</time>
      </trkpt>
      <trkpt lat="43.60659" lon="7.03057">
        <ele>153.47</ele>
        <time>2015-06-06T09:33:38Z</time>
      </trkpt>
      <trkpt lat="43.60631" lon="7.03035">
        <ele>154.43</ele>
        <time>2015-06-06T09:33:52Z</time>
      </trkpt>
      <trkpt lat="43.60606" lon="7.03002">
        <ele>154.43</ele>
        <time>2015-06-06T09:34:05Z</time>
      </trkpt>
      <trkpt lat="43.60576" lon="7.0297">
        <ele>155.39</ele>
        <time>2015-06-06T09:34:18Z</time>
      </trkpt>
      <trkpt lat="43.60553" lon="7.02932">
        <ele>155.39</ele>
        <time>2015-06-06T09:34:30Z</time>
      </trkpt>
      <trkpt lat="43.60532" lon="7.0289">
        <ele>155.87</ele>
        <time>2015-06-06T09:34:42Z</time>
      </trkpt>
      <trkpt lat="43.60503" lon="7.02848">
        <ele>157.79</ele>
        <time>2015-06-06T09:34:57Z</time>
      </trkpt>
      <trkpt lat="43.60481" lon="7.0284">
        <ele>158.27</ele>
        <time>2015-06-06T09:35:09Z</time>
      </trkpt>
      <trkpt lat="43.6048" lon="7.02842">
        <ele>158.27</ele>
        <time>2015-06-06T09:35:10Z</time>
      </trkpt>
      <trkpt lat="43.60478" lon="7.02842">
        <ele>158.75</ele>
        <time>2015-06-06T09:35:11Z</time>
      </trkpt>
      <trkpt lat="43.60476" lon="7.02841">
        <ele>158.75</ele>
        <time>2015-06-06T09:35:12Z</time>
      </trkpt>
      <trkpt lat="43.60474" lon="7.0284">
        <ele>158.75</ele>
        <time>2015-06-06T09:35:13Z</time>
      </trkpt>
      <trkpt lat="43.60456" lon="7.02832">
        <ele>158.75</ele>
        <time>2015-06-06T09:35:25Z</time>
      </trkpt>
      <trkpt lat="43.60434" lon="7.02825">
        <ele>159.72</ele>
        <time>2015-06-06T09:35:38Z</time>
      </trkpt>
      <trkpt lat="43.60405" lon="7.02815">
        <ele>160.68</ele>
        <time>2015-06-06T09:35:51Z</time>
      </trkpt>
      <trkpt lat="43.60368" lon="7.02806">
        <ele>161.16</ele>
        <time>2015-06-06T09:36:05Z</time>
      </trkpt>
      <trkpt lat="43.6034" lon="7.02799">
        <ele>161.64</ele>
        <time>2015-06-06T09:36:15Z</time>
      </trkpt>
      <trkpt lat="43.60295" lon="7.028">
        <ele>162.12</ele>
        <time>2015-06-06T09:36:30Z</time>
      </trkpt>
      <trkpt lat="43.60259" lon="7.02816">
        <ele>163.56</ele>
        <time>2015-06-06T09:36:43Z</time>
      </trkpt>
      <trkpt lat="43.60224" lon="7.02831">
        <ele>164.52</ele>
        <time>2015-06-06T09:36:57Z</time>
      </trkpt>
      <trkpt lat="43.6019" lon="7.02846">
        <ele>165.48</ele>
        <time>2015-06-06T09:37:11Z</time>
      </trkpt>
      <trkpt lat="43.60164" lon="7.0286">
        <ele>165.48</ele>
        <time>2015-06-06T09:37:22Z</time>
      </trkpt>
      <trkpt lat="43.60137" lon="7.02877">
        <ele>166.45</ele>
        <time>2015-06-06T09:37:35Z</time>
      </trkpt>
      <trkpt lat="43.60133" lon="7.0288">
        <ele>166.45</ele>
        <time>2015-06-06T09:37:38Z</time>
      </trkpt>
      <trkpt lat="43.60131" lon="7.02879">
        <ele>166.93</ele>
        <time>2015-06-06T09:37:39Z</time>
      </trkpt>
      <trkpt lat="43.6013" lon="7.02877">
        <ele>166.93</ele>
        <time>2015-06-06T09:37:40Z</time>
      </trkpt>
      <trkpt lat="43.60128" lon="7.02875">
        <ele>166.93</ele>
        <time>2015-06-06T09:37:41Z</time>
      </trkpt>
      <trkpt lat="43.60127" lon="7.02873">
        <ele>166.93</ele>
        <time>2015-06-06T09:37:42Z</time>
      </trkpt>
      <trkpt lat="43.60126" lon="7.0287">
        <ele>166.93</ele>
        <time>2015-06-06T09:37:43Z</time>
      </trkpt>
      <trkpt lat="43.60126" lon="7.02868">
        <ele>166.93</ele>
        <time>2015-06-06T09:37:44Z</time>
      </trkpt>
      <trkpt lat="43.60126" lon="7.02866">
        <ele>166.93</ele>
        <time>2015-06-06T09:37:45Z</time>
      </trkpt>
      <trkpt lat="43.60127" lon="7.02863">
        <ele>166.93</ele>
        <time>2015-06-06T09:37:46Z</time>
      </trkpt>
      <trkpt lat="43.60128" lon="7.0286">
        <ele>166.93</ele>
        <time>2015-06-06T09:37:47Z</time>
      </trkpt>
      <trkpt lat="43.60128" lon="7.02857">
        <ele>166.93</ele>
        <time>2015-06-06T09:37:48Z</time>
      </trkpt>
      <trkpt lat="43.60126" lon="7.02854">
        <ele>166.93</ele>
        <time>2015-06-06T09:37:49Z</time>
      </trkpt>
      <trkpt lat="43.60125" lon="7.02852">
        <ele>166.93</ele>
        <time>2015-06-06T09:37:50Z</time>
      </trkpt>
      <trkpt lat="43.60124" lon="7.0285">
        <ele>166.93</ele>
        <time>2015-06-06T09:37:51Z</time>
      </trkpt>
      <trkpt lat="43.60122" lon="7.02848">
        <ele>166.93</ele>
        <time>2015-06-06T09:37:52Z</time>
      </trkpt>
      <trkpt lat="43.6012" lon="7.02845">
        <ele>166.93</ele>
        <time>2015-06-06T09:37:53Z</time>
      </trkpt>
      <trkpt lat="43.60102" lon="7.0283">
        <ele>166.93</ele>
        <time>2015-06-06T09:38:03Z</time>
      </trkpt>
      <trkpt lat="43.60079" lon="7.02825">
        <ele>166.93</ele>
        <time>2015-06-06T09:38:15Z</time>
      </trkpt>
      <trkpt lat="43.60075" lon="7.02826">
        <ele>166.93</ele>
        <time>2015-06-06T09:38:17Z</time>
      </trkpt>
      <trkpt lat="43.60074" lon="7.02828">
        <ele>166.93</ele>
        <time>2015-06-06T09:38:18Z</time>
      </trkpt>
      <trkpt lat="43.60073" lon="7.0283">
        <ele>166.93</ele>
        <time>2015-06-06T09:38:19Z</time>
      </trkpt>
      <trkpt lat="43.60071" lon="7.02831">
        <ele>166.93</ele>
        <time>2015-06-06T09:38:20Z</time>
      </trkpt>
      <trkpt lat="43.6007" lon="7.02832">
        <ele>166.93</ele>
        <time>2015-06-06T09:38:21Z</time>
      </trkpt>
      <trkpt lat="43.60068" lon="7.02833">
        <ele>166.93</ele>
        <time>2015-06-06T09:38:22Z</time>
      </trkpt>
      <trkpt lat="43.60066" lon="7.02834">
        <ele>166.93</ele>
        <time>2015-06-06T09:38:23Z</time>
      </trkpt>
      <trkpt lat="43.60059" lon="7.02835">
        <ele>167.41</ele>
        <time>2015-06-06T09:38:26Z</time>
      </trkpt>
      <trkpt lat="43.60056" lon="7.02837">
        <ele>167.41</ele>
        <time>2015-06-06T09:38:27Z</time>
      </trkpt>
      <trkpt lat="43.60023" lon="7.02851">
        <ele>167.89</ele>
        <time>2015-06-06T09:38:42Z</time>
      </trkpt>
      <trkpt lat="43.59995" lon="7.02858">
        <ele>168.37</ele>
        <time>2015-06-06T09:38:54Z</time>
      </trkpt>
      <trkpt lat="43.59974" lon="7.0287">
        <ele>168.85</ele>
        <time>2015-06-06T09:39:06Z</time>
      </trkpt>
      <trkpt lat="43.59972" lon="7.02871">
        <ele>168.85</ele>
        <time>2015-06-06T09:39:07Z</time>
      </trkpt>
      <trkpt lat="43.5997" lon="7.02872">
        <ele>168.85</ele>
        <time>2015-06-06T09:39:08Z</time>
      </trkpt>
      <trkpt lat="43.59969" lon="7.02872">
        <ele>168.85</ele>
        <time>2015-06-06T09:39:09Z</time>
      </trkpt>
      <trkpt lat="43.59967" lon="7.02873">
        <ele>168.85</ele>
        <time>2015-06-06T09:39:10Z</time>
      </trkpt>
      <trkpt lat="43.59965" lon="7.02873">
        <ele>168.85</ele>
        <time>2015-06-06T09:39:11Z</time>
      </trkpt>
      <trkpt lat="43.59948" lon="7.02877">
        <ele>169.81</ele>
        <time>2015-06-06T09:39:20Z</time>
      </trkpt>
      <trkpt lat="43.59916" lon="7.02889">
        <ele>170.77</ele>
        <time>2015-06-06T09:39:34Z</time>
      </trkpt>
      <trkpt lat="43.59887" lon="7.02915">
        <ele>171.25</ele>
        <time>2015-06-06T09:39:49Z</time>
      </trkpt>
      <trkpt lat="43.59856" lon="7.02944">
        <ele>172.21</ele>
        <time>2015-06-06T09:40:05Z</time>
      </trkpt>
      <trkpt lat="43.59839" lon="7.0297">
        <ele>172.69</ele>
        <time>2015-06-06T09:40:16Z</time>
      </trkpt>
      <trkpt lat="43.59837" lon="7.02971">
        <ele>172.69</ele>
        <time>2015-06-06T09:40:17Z</time>
      </trkpt>
      <trkpt lat="43.59811" lon="7.02979">
        <ele>173.66</ele>
        <time>2015-06-06T09:40:30Z</time>
      </trkpt>
      <trkpt lat="43.59809" lon="7.02979">
        <ele>173.66</ele>
        <time>2015-06-06T09:40:31Z</time>
      </trkpt>
      <trkpt lat="43.59807" lon="7.02978">
        <ele>173.66</ele>
        <time>2015-06-06T09:40:32Z</time>
      </trkpt>
      <trkpt lat="43.59806" lon="7.02977">
        <ele>174.14</ele>
        <time>2015-06-06T09:40:33Z</time>
      </trkpt>
      <trkpt lat="43.59804" lon="7.02976">
        <ele>174.14</ele>
        <time>2015-06-06T09:40:34Z</time>
      </trkpt>
      <trkpt lat="43.59796" lon="7.02973">
        <ele>175.1</ele>
        <time>2015-06-06T09:40:40Z</time>
      </trkpt>
      <trkpt lat="43.59793" lon="7.02968">
        <ele>176.06</ele>
        <time>2015-06-06T09:40:43Z</time>
      </trkpt>
      <trkpt lat="43.59792" lon="7.02963">
        <ele>176.54</ele>
        <time>2015-06-06T09:40:45Z</time>
      </trkpt>
      <trkpt lat="43.59793" lon="7.0296">
        <ele>176.54</ele>
        <time>2015-06-06T09:40:46Z</time>
      </trkpt>
      <trkpt lat="43.59794" lon="7.02957">
        <ele>177.02</ele>
        <time>2015-06-06T09:40:47Z</time>
      </trkpt>
      <trkpt lat="43.59795" lon="7.02954">
        <ele>177.02</ele>
        <time>2015-06-06T09:40:48Z</time>
      </trkpt>
      <trkpt lat="43.59796" lon="7.02951">
        <ele>177.02</ele>
        <time>2015-06-06T09:40:49Z</time>
      </trkpt>
      <trkpt lat="43.59796" lon="7.02948">
        <ele>177.02</ele>
        <time>2015-06-06T09:40:50Z</time>
      </trkpt>
      <trkpt lat="43.59802" lon="7.02906">
        <ele>177.5</ele>
        <time>2015-06-06T09:41:03Z</time>
      </trkpt>
      <trkpt lat="43.598" lon="7.02864">
        <ele>178.46</ele>
        <time>2015-06-06T09:41:16Z</time>
      </trkpt>
      <trkpt lat="43.59794" lon="7.02809">
        <ele>179.42</ele>
        <time>2015-06-06T09:41:32Z</time>
      </trkpt>
      <trkpt lat="43.59797" lon="7.02799">
        <ele>179.42</ele>
        <time>2015-06-06T09:41:35Z</time>
      </trkpt>
      <trkpt lat="43.59799" lon="7.02796">
        <ele>179.42</ele>
        <time>2015-06-06T09:41:36Z</time>
      </trkpt>
      <trkpt lat="43.59801" lon="7.02795">
        <ele>179.42</ele>
        <time>2015-06-06T09:41:37Z</time>
      </trkpt>
      <trkpt lat="43.59803" lon="7.02794">
        <ele>179.42</ele>
        <time>2015-06-06T09:41:38Z</time>
      </trkpt>
      <trkpt lat="43.59806" lon="7.02793">
        <ele>179.42</ele>
        <time>2015-06-06T09:41:39Z</time>
      </trkpt>
      <trkpt lat="43.59808" lon="7.02793">
        <ele>179.9</ele>
        <time>2015-06-06T09:41:40Z</time>
      </trkpt>
      <trkpt lat="43.59849" lon="7.02801">
        <ele>179.9</ele>
        <time>2015-06-06T09:41:53Z</time>
      </trkpt>
      <trkpt lat="43.59883" lon="7.02795">
        <ele>180.87</ele>
        <time>2015-06-06T09:42:05Z</time>
      </trkpt>
      <trkpt lat="43.5991" lon="7.02771">
        <ele>182.31</ele>
        <time>2015-06-06T09:42:20Z</time>
      </trkpt>
      <trkpt lat="43.59928" lon="7.02748">
        <ele>182.79</ele>
        <time>2015-06-06T09:42:31Z</time>
      </trkpt>
      <trkpt lat="43.59938" lon="7.02714">
        <ele>183.75</ele>
        <time>2015-06-06T09:42:43Z</time>
      </trkpt>
      <trkpt lat="43.59949" lon="7.02672">
        <ele>183.27</ele>
        <time>2015-06-06T09:42:56Z</time>
      </trkpt>
      <trkpt lat="43.59954" lon="7.02632">
        <ele>184.23</ele>
        <time>2015-06-06T09:43:08Z</time>
      </trkpt>
      <trkpt lat="43.5996" lon="7.02581">
        <ele>185.19</ele>
        <time>2015-06-06T09:43:22Z</time>
      </trkpt>
      <trkpt lat="43.59959" lon="7.02537">
        <ele>185.67</ele>
        <time>2015-06-06T09:43:36Z</time>
      </trkpt>
      <trkpt lat="43.59962" lon="7.025">
        <ele>185.67</ele>
        <time>2015-06-06T09:43:47Z</time>
      </trkpt>
      <trkpt lat="43.59968" lon="7.02492">
        <ele>186.15</ele>
        <time>2015-06-06T09:43:51Z</time>
      </trkpt>
      <trkpt lat="43.5997" lon="7.02492">
        <ele>186.15</ele>
        <time>2015-06-06T09:43:52Z</time>
      </trkpt>
      <trkpt lat="43.59971" lon="7.02492">
        <ele>186.15</ele>
        <time>2015-06-06T09:43:53Z</time>
      </trkpt>
      <trkpt lat="43.59973" lon="7.02492">
        <ele>186.15</ele>
        <time>2015-06-06T09:43:54Z</time>
      </trkpt>
      <trkpt lat="43.59975" lon="7.02492">
        <ele>186.15</ele>
        <time>2015-06-06T09:43:55Z</time>
      </trkpt>
      <trkpt lat="43.59976" lon="7.02492">
        <ele>186.63</ele>
        <time>2015-06-06T09:43:56Z</time>
      </trkpt>
      <trkpt lat="43.59978" lon="7.02493">
        <ele>186.63</ele>
        <time>2015-06-06T09:43:57Z</time>
      </trkpt>
      <trkpt lat="43.5998" lon="7.02494">
        <ele>186.63</ele>
        <time>2015-06-06T09:43:58Z</time>
      </trkpt>
      <trkpt lat="43.59982" lon="7.02495">
        <ele>186.63</ele>
        <time>2015-06-06T09:43:59Z</time>
      </trkpt>
      <trkpt lat="43.59984" lon="7.02496">
        <ele>186.63</ele>
        <time>2015-06-06T09:44:00Z</time>
      </trkpt>
      <trkpt lat="43.59985" lon="7.02498">
        <ele>186.63</ele>
        <time>2015-06-06T09:44:01Z</time>
      </trkpt>
      <trkpt lat="43.59987" lon="7.025">
        <ele>186.63</ele>
        <time>2015-06-06T09:44:02Z</time>
      </trkpt>
      <trkpt lat="43.59989" lon="7.02502">
        <ele>186.63</ele>
        <time>2015-06-06T09:44:03Z</time>
      </trkpt>
      <trkpt lat="43.60008" lon="7.02531">
        <ele>187.59</ele>
        <time>2015-06-06T09:44:16Z</time>
      </trkpt>
      <trkpt lat="43.60029" lon="7.02558">
        <ele>188.08</ele>
        <time>2015-06-06T09:44:29Z</time>
      </trkpt>
      <trkpt lat="43.60052" lon="7.02579">
        <ele>188.56</ele>
        <time>2015-06-06T09:44:41Z</time>
      </trkpt>
      <trkpt lat="43.60085" lon="7.02578">
        <ele>190</ele>
        <time>2015-06-06T09:44:54Z</time>
      </trkpt>
      <trkpt lat="43.60109" lon="7.02559">
        <ele>192.4</ele>
        <time>2015-06-06T09:45:05Z</time>
      </trkpt>
      <trkpt lat="43.60128" lon="7.02535">
        <ele>194.32</ele>
        <time>2015-06-06T09:45:18Z</time>
      </trkpt>
      <trkpt lat="43.60145" lon="7.02511">
        <ele>195.77</ele>
        <time>2015-06-06T09:45:31Z</time>
      </trkpt>
      <trkpt lat="43.60146" lon="7.02509">
        <ele>196.25</ele>
        <time>2015-06-06T09:45:32Z</time>
      </trkpt>
      <trkpt lat="43.60147" lon="7.02507">
        <ele>196.25</ele>
        <time>2015-06-06T09:45:33Z</time>
      </trkpt>
      <trkpt lat="43.60159" lon="7.02478">
        <ele>198.17</ele>
        <time>2015-06-06T09:45:46Z</time>
      </trkpt>
      <trkpt lat="43.60165" lon="7.02439">
        <ele>200.09</ele>
        <time>2015-06-06T09:46:00Z</time>
      </trkpt>
      <trkpt lat="43.60168" lon="7.02402">
        <ele>201.53</ele>
        <time>2015-06-06T09:46:12Z</time>
      </trkpt>
      <trkpt lat="43.60168" lon="7.02363">
        <ele>203.46</ele>
        <time>2015-06-06T09:46:25Z</time>
      </trkpt>
      <trkpt lat="43.60153" lon="7.02327">
        <ele>204.9</ele>
        <time>2015-06-06T09:46:39Z</time>
      </trkpt>
      <trkpt lat="43.60133" lon="7.02302">
        <ele>207.3</ele>
        <time>2015-06-06T09:46:53Z</time>
      </trkpt>
      <trkpt lat="43.60116" lon="7.02277">
        <ele>209.7</ele>
        <time>2015-06-06T09:47:05Z</time>
      </trkpt>
      <trkpt lat="43.60107" lon="7.02262">
        <ele>210.67</ele>
        <time>2015-06-06T09:47:12Z</time>
      </trkpt>
      <trkpt lat="43.60105" lon="7.0226">
        <ele>210.67</ele>
        <time>2015-06-06T09:47:13Z</time>
      </trkpt>
      <trkpt lat="43.60104" lon="7.02257">
        <ele>210.67</ele>
        <time>2015-06-06T09:47:14Z</time>
      </trkpt>
      <trkpt lat="43.60099" lon="7.02249">
        <ele>211.15</ele>
        <time>2015-06-06T09:47:18Z</time>
      </trkpt>
      <trkpt lat="43.60098" lon="7.02246">
        <ele>211.63</ele>
        <time>2015-06-06T09:47:19Z</time>
      </trkpt>
      <trkpt lat="43.60097" lon="7.02244">
        <ele>211.63</ele>
        <time>2015-06-06T09:47:20Z</time>
      </trkpt>
      <trkpt lat="43.60096" lon="7.02241">
        <ele>211.63</ele>
        <time>2015-06-06T09:47:21Z</time>
      </trkpt>
      <trkpt lat="43.60095" lon="7.02238">
        <ele>211.63</ele>
        <time>2015-06-06T09:47:22Z</time>
      </trkpt>
      <trkpt lat="43.60081" lon="7.02203">
        <ele>213.07</ele>
        <time>2015-06-06T09:47:36Z</time>
      </trkpt>
      <trkpt lat="43.60069" lon="7.02176">
        <ele>214.03</ele>
        <time>2015-06-06T09:47:45Z</time>
      </trkpt>
      <trkpt lat="43.60067" lon="7.02175">
        <ele>214.03</ele>
        <time>2015-06-06T09:47:46Z</time>
      </trkpt>
      <trkpt lat="43.60062" lon="7.02171">
        <ele>214.99</ele>
        <time>2015-06-06T09:47:49Z</time>
      </trkpt>
      <trkpt lat="43.60059" lon="7.02188">
        <ele>217.4</ele>
        <time>2015-06-06T09:47:59Z</time>
      </trkpt>
      <trkpt lat="43.6006" lon="7.02195">
        <ele>217.4</ele>
        <time>2015-06-06T09:48:02Z</time>
      </trkpt>
      <trkpt lat="43.60063" lon="7.02233">
        <ele>218.36</ele>
        <time>2015-06-06T09:48:18Z</time>
      </trkpt>
      <trkpt lat="43.60064" lon="7.02248">
        <ele>219.32</ele>
        <time>2015-06-06T09:48:25Z</time>
      </trkpt>
      <trkpt lat="43.60069" lon="7.02269">
        <ele>219.32</ele>
        <time>2015-06-06T09:48:37Z</time>
      </trkpt>
      <trkpt lat="43.6007" lon="7.02277">
        <ele>219.32</ele>
        <time>2015-06-06T09:48:52Z</time>
      </trkpt>
      <trkpt lat="43.60077" lon="7.02281">
        <ele>219.32</ele>
        <time>2015-06-06T09:49:15Z</time>
      </trkpt>
      <trkpt lat="43.60085" lon="7.0229">
        <ele>219.32</ele>
        <time>2015-06-06T09:49:49Z</time>
      </trkpt>
      <trkpt lat="43.6008" lon="7.0229">
        <ele>219.8</ele>
        <time>2015-06-06T09:50:17Z</time>
      </trkpt>
      <trkpt lat="43.60073" lon="7.02291">
        <ele>219.8</ele>
        <time>2015-06-06T09:50:54Z</time>
      </trkpt>
      <trkpt lat="43.60073" lon="7.02292">
        <ele>220.28</ele>
        <time>2015-06-06T09:51:38Z</time>
      </trkpt>
      <trkpt lat="43.60076" lon="7.02294">
        <ele>220.28</ele>
        <time>2015-06-06T09:52:08Z</time>
      </trkpt>
      <trkpt lat="43.60073" lon="7.02301">
        <ele>220.28</ele>
        <time>2015-06-06T09:52:12Z</time>
      </trkpt>
      <trkpt lat="43.60071" lon="7.02304">
        <ele>220.28</ele>
        <time>2015-06-06T09:52:13Z</time>
      </trkpt>
      <trkpt lat="43.6007" lon="7.02305">
        <ele>220.28</ele>
        <time>2015-06-06T09:52:14Z</time>
      </trkpt>
      <trkpt lat="43.60068" lon="7.02304">
        <ele>220.28</ele>
        <time>2015-06-06T09:52:15Z</time>
      </trkpt>
      <trkpt lat="43.60067" lon="7.02302">
        <ele>221.24</ele>
        <time>2015-06-06T09:52:16Z</time>
      </trkpt>
      <trkpt lat="43.60067" lon="7.023">
        <ele>221.24</ele>
        <time>2015-06-06T09:52:17Z</time>
      </trkpt>
      <trkpt lat="43.60066" lon="7.02297">
        <ele>221.24</ele>
        <time>2015-06-06T09:52:18Z</time>
      </trkpt>
      <trkpt lat="43.60065" lon="7.02294">
        <ele>221.24</ele>
        <time>2015-06-06T09:52:19Z</time>
      </trkpt>
      <trkpt lat="43.6005" lon="7.02267">
        <ele>222.2</ele>
        <time>2015-06-06T09:52:30Z</time>
      </trkpt>
      <trkpt lat="43.6004" lon="7.02229">
        <ele>223.64</ele>
        <time>2015-06-06T09:52:43Z</time>
      </trkpt>
      <trkpt lat="43.6003" lon="7.02197">
        <ele>226.05</ele>
        <time>2015-06-06T09:52:55Z</time>
      </trkpt>
      <trkpt lat="43.60012" lon="7.02165">
        <ele>228.93</ele>
        <time>2015-06-06T09:53:09Z</time>
      </trkpt>
      <trkpt lat="43.59996" lon="7.02156">
        <ele>230.37</ele>
        <time>2015-06-06T09:53:20Z</time>
      </trkpt>
      <trkpt lat="43.5998" lon="7.02159">
        <ele>230.37</ele>
        <time>2015-06-06T09:53:31Z</time>
      </trkpt>
      <trkpt lat="43.59971" lon="7.02168">
        <ele>230.37</ele>
        <time>2015-06-06T09:53:35Z</time>
      </trkpt>
      <trkpt lat="43.59953" lon="7.02201">
        <ele>227.01</ele>
        <time>2015-06-06T09:53:40Z</time>
      </trkpt>
      <trkpt lat="43.59934" lon="7.02224">
        <ele>225.09</ele>
        <time>2015-06-06T09:53:44Z</time>
      </trkpt>
      <trkpt lat="43.59909" lon="7.02238">
        <ele>222.2</ele>
        <time>2015-06-06T09:53:48Z</time>
      </trkpt>
      <trkpt lat="43.5989" lon="7.02249">
        <ele>222.2</ele>
        <time>2015-06-06T09:53:51Z</time>
      </trkpt>
      <trkpt lat="43.59884" lon="7.02249">
        <ele>222.2</ele>
        <time>2015-06-06T09:53:52Z</time>
      </trkpt>
      <trkpt lat="43.59878" lon="7.02248">
        <ele>221.24</ele>
        <time>2015-06-06T09:53:53Z</time>
      </trkpt>
      <trkpt lat="43.59871" lon="7.02244">
        <ele>221.24</ele>
        <time>2015-06-06T09:53:54Z</time>
      </trkpt>
      <trkpt lat="43.59865" lon="7.0224">
        <ele>220.76</ele>
        <time>2015-06-06T09:53:55Z</time>
      </trkpt>
      <trkpt lat="43.59858" lon="7.02236">
        <ele>220.76</ele>
        <time>2015-06-06T09:53:56Z</time>
      </trkpt>
      <trkpt lat="43.59831" lon="7.02222">
        <ele>220.28</ele>
        <time>2015-06-06T09:54:00Z</time>
      </trkpt>
      <trkpt lat="43.59817" lon="7.02218">
        <ele>219.8</ele>
        <time>2015-06-06T09:54:02Z</time>
      </trkpt>
      <trkpt lat="43.59794" lon="7.02208">
        <ele>219.8</ele>
        <time>2015-06-06T09:54:06Z</time>
      </trkpt>
      <trkpt lat="43.59754" lon="7.02228">
        <ele>218.36</ele>
        <time>2015-06-06T09:54:15Z</time>
      </trkpt>
      <trkpt lat="43.59739" lon="7.02235">
        <ele>216.91</ele>
        <time>2015-06-06T09:54:18Z</time>
      </trkpt>
      <trkpt lat="43.59733" lon="7.02235">
        <ele>215.95</ele>
        <time>2015-06-06T09:54:19Z</time>
      </trkpt>
      <trkpt lat="43.59728" lon="7.02235">
        <ele>215.95</ele>
        <time>2015-06-06T09:54:20Z</time>
      </trkpt>
      <trkpt lat="43.59722" lon="7.02235">
        <ele>214.99</ele>
        <time>2015-06-06T09:54:21Z</time>
      </trkpt>
      <trkpt lat="43.59701" lon="7.02235">
        <ele>214.03</ele>
        <time>2015-06-06T09:54:28Z</time>
      </trkpt>
      <trkpt lat="43.59689" lon="7.02235">
        <ele>214.03</ele>
        <time>2015-06-06T09:54:56Z</time>
      </trkpt>
      <trkpt lat="43.59682" lon="7.02234">
        <ele>214.03</ele>
        <time>2015-06-06T09:55:14Z</time>
      </trkpt>
      <trkpt lat="43.5966" lon="7.02225">
        <ele>213.55</ele>
        <time>2015-06-06T09:55:23Z</time>
      </trkpt>
      <trkpt lat="43.59629" lon="7.02214">
        <ele>212.11</ele>
        <time>2015-06-06T09:55:34Z</time>
      </trkpt>
      <trkpt lat="43.59612" lon="7.02197">
        <ele>212.11</ele>
        <time>2015-06-06T09:55:40Z</time>
      </trkpt>
      <trkpt lat="43.59608" lon="7.02188">
        <ele>212.11</ele>
        <time>2015-06-06T09:55:43Z</time>
      </trkpt>
      <trkpt lat="43.59608" lon="7.02183">
        <ele>212.11</ele>
        <time>2015-06-06T09:55:44Z</time>
      </trkpt>
      <trkpt lat="43.59608" lon="7.0218">
        <ele>212.11</ele>
        <time>2015-06-06T09:55:45Z</time>
      </trkpt>
      <trkpt lat="43.59609" lon="7.02176">
        <ele>212.11</ele>
        <time>2015-06-06T09:55:46Z</time>
      </trkpt>
      <trkpt lat="43.59611" lon="7.02174">
        <ele>211.63</ele>
        <time>2015-06-06T09:55:47Z</time>
      </trkpt>
      <trkpt lat="43.59613" lon="7.02172">
        <ele>211.63</ele>
        <time>2015-06-06T09:55:48Z</time>
      </trkpt>
      <trkpt lat="43.59615" lon="7.02169">
        <ele>211.15</ele>
        <time>2015-06-06T09:55:49Z</time>
      </trkpt>
      <trkpt lat="43.59617" lon="7.02168">
        <ele>211.15</ele>
        <time>2015-06-06T09:55:50Z</time>
      </trkpt>
      <trkpt lat="43.59643" lon="7.02141">
        <ele>207.78</ele>
        <time>2015-06-06T09:56:01Z</time>
      </trkpt>
      <trkpt lat="43.5965" lon="7.02131">
        <ele>207.3</ele>
        <time>2015-06-06T09:56:03Z</time>
      </trkpt>
      <trkpt lat="43.59654" lon="7.02127">
        <ele>205.86</ele>
        <time>2015-06-06T09:56:04Z</time>
      </trkpt>
      <trkpt lat="43.59669" lon="7.02113">
        <ele>204.9</ele>
        <time>2015-06-06T09:56:07Z</time>
      </trkpt>
      <trkpt lat="43.59735" lon="7.02046">
        <ele>201.05</ele>
        <time>2015-06-06T09:56:18Z</time>
      </trkpt>
      <trkpt lat="43.59747" lon="7.0203">
        <ele>199.61</ele>
        <time>2015-06-06T09:56:24Z</time>
      </trkpt>
      <trkpt lat="43.59748" lon="7.02027">
        <ele>199.61</ele>
        <time>2015-06-06T09:56:25Z</time>
      </trkpt>
      <trkpt lat="43.59749" lon="7.02026">
        <ele>199.61</ele>
        <time>2015-06-06T09:56:26Z</time>
      </trkpt>
      <trkpt lat="43.5975" lon="7.02023">
        <ele>200.09</ele>
        <time>2015-06-06T09:56:27Z</time>
      </trkpt>
      <trkpt lat="43.59751" lon="7.02021">
        <ele>200.09</ele>
        <time>2015-06-06T09:56:28Z</time>
      </trkpt>
      <trkpt lat="43.59753" lon="7.02017">
        <ele>200.09</ele>
        <time>2015-06-06T09:56:29Z</time>
      </trkpt>
      <trkpt lat="43.59753" lon="7.02014">
        <ele>199.61</ele>
        <time>2015-06-06T09:56:30Z</time>
      </trkpt>
      <trkpt lat="43.59755" lon="7.0201">
        <ele>199.61</ele>
        <time>2015-06-06T09:56:31Z</time>
      </trkpt>
      <trkpt lat="43.59756" lon="7.02007">
        <ele>199.61</ele>
        <time>2015-06-06T09:56:32Z</time>
      </trkpt>
      <trkpt lat="43.59757" lon="7.02004">
        <ele>199.61</ele>
        <time>2015-06-06T09:56:33Z</time>
      </trkpt>
      <trkpt lat="43.59759" lon="7.02001">
        <ele>199.61</ele>
        <time>2015-06-06T09:56:34Z</time>
      </trkpt>
      <trkpt lat="43.5976" lon="7.01998">
        <ele>199.13</ele>
        <time>2015-06-06T09:56:35Z</time>
      </trkpt>
      <trkpt lat="43.59761" lon="7.01994">
        <ele>199.13</ele>
        <time>2015-06-06T09:56:36Z</time>
      </trkpt>
      <trkpt lat="43.59763" lon="7.01991">
        <ele>199.13</ele>
        <time>2015-06-06T09:56:37Z</time>
      </trkpt>
      <trkpt lat="43.59776" lon="7.01948">
        <ele>198.17</ele>
        <time>2015-06-06T09:56:47Z</time>
      </trkpt>
      <trkpt lat="43.59782" lon="7.01896">
        <ele>195.28</ele>
        <time>2015-06-06T09:56:56Z</time>
      </trkpt>
      <trkpt lat="43.59784" lon="7.0189">
        <ele>194.8</ele>
        <time>2015-06-06T09:56:57Z</time>
      </trkpt>
      <trkpt lat="43.59795" lon="7.01853">
        <ele>194.32</ele>
        <time>2015-06-06T09:57:05Z</time>
      </trkpt>
      <trkpt lat="43.59795" lon="7.01849">
        <ele>194.32</ele>
        <time>2015-06-06T09:57:06Z</time>
      </trkpt>
      <trkpt lat="43.59794" lon="7.01845">
        <ele>194.32</ele>
        <time>2015-06-06T09:57:07Z</time>
      </trkpt>
      <trkpt lat="43.59793" lon="7.01842">
        <ele>193.84</ele>
        <time>2015-06-06T09:57:08Z</time>
      </trkpt>
      <trkpt lat="43.59792" lon="7.01838">
        <ele>193.84</ele>
        <time>2015-06-06T09:57:09Z</time>
      </trkpt>
      <trkpt lat="43.59792" lon="7.01834">
        <ele>193.84</ele>
        <time>2015-06-06T09:57:10Z</time>
      </trkpt>
      <trkpt lat="43.59791" lon="7.01831">
        <ele>193.84</ele>
        <time>2015-06-06T09:57:11Z</time>
      </trkpt>
      <trkpt lat="43.59787" lon="7.01818">
        <ele>193.84</ele>
        <time>2015-06-06T09:57:14Z</time>
      </trkpt>
      <trkpt lat="43.59785" lon="7.01773">
        <ele>196.25</ele>
        <time>2015-06-06T09:57:25Z</time>
      </trkpt>
      <trkpt lat="43.59778" lon="7.01733">
        <ele>197.21</ele>
        <time>2015-06-06T09:57:37Z</time>
      </trkpt>
      <trkpt lat="43.59769" lon="7.01703">
        <ele>199.61</ele>
        <time>2015-06-06T09:57:48Z</time>
      </trkpt>
      <trkpt lat="43.59784" lon="7.01673">
        <ele>199.61</ele>
        <time>2015-06-06T09:58:00Z</time>
      </trkpt>
      <trkpt lat="43.59786" lon="7.01674">
        <ele>199.61</ele>
        <time>2015-06-06T09:58:02Z</time>
      </trkpt>
      <trkpt lat="43.59787" lon="7.01674">
        <ele>199.61</ele>
        <time>2015-06-06T09:58:03Z</time>
      </trkpt>
      <trkpt lat="43.5979" lon="7.01674">
        <ele>199.61</ele>
        <time>2015-06-06T09:58:04Z</time>
      </trkpt>
      <trkpt lat="43.59793" lon="7.01672">
        <ele>198.17</ele>
        <time>2015-06-06T09:58:05Z</time>
      </trkpt>
      <trkpt lat="43.59795" lon="7.0167">
        <ele>197.69</ele>
        <time>2015-06-06T09:58:06Z</time>
      </trkpt>
      <trkpt lat="43.59797" lon="7.01667">
        <ele>197.69</ele>
        <time>2015-06-06T09:58:07Z</time>
      </trkpt>
      <trkpt lat="43.59799" lon="7.01664">
        <ele>197.21</ele>
        <time>2015-06-06T09:58:08Z</time>
      </trkpt>
      <trkpt lat="43.59816" lon="7.01643">
        <ele>195.28</ele>
        <time>2015-06-06T09:58:14Z</time>
      </trkpt>
      <trkpt lat="43.59818" lon="7.01638">
        <ele>194.8</ele>
        <time>2015-06-06T09:58:15Z</time>
      </trkpt>
      <trkpt lat="43.59836" lon="7.01618">
        <ele>192.4</ele>
        <time>2015-06-06T09:58:22Z</time>
      </trkpt>
      <trkpt lat="43.59838" lon="7.01615">
        <ele>191.92</ele>
        <time>2015-06-06T09:58:23Z</time>
      </trkpt>
      <trkpt lat="43.59842" lon="7.01608">
        <ele>190.96</ele>
        <time>2015-06-06T09:58:25Z</time>
      </trkpt>
      <trkpt lat="43.59846" lon="7.01604">
        <ele>190.48</ele>
        <time>2015-06-06T09:58:26Z</time>
      </trkpt>
      <trkpt lat="43.59849" lon="7.01601">
        <ele>190.48</ele>
        <time>2015-06-06T09:58:27Z</time>
      </trkpt>
      <trkpt lat="43.59852" lon="7.01596">
        <ele>189.04</ele>
        <time>2015-06-06T09:58:28Z</time>
      </trkpt>
      <trkpt lat="43.59856" lon="7.01591">
        <ele>188.56</ele>
        <time>2015-06-06T09:58:29Z</time>
      </trkpt>
      <trkpt lat="43.5986" lon="7.01586">
        <ele>188.08</ele>
        <time>2015-06-06T09:58:30Z</time>
      </trkpt>
      <trkpt lat="43.59865" lon="7.01581">
        <ele>188.08</ele>
        <time>2015-06-06T09:58:31Z</time>
      </trkpt>
      <trkpt lat="43.5987" lon="7.01576">
        <ele>188.08</ele>
        <time>2015-06-06T09:58:32Z</time>
      </trkpt>
      <trkpt lat="43.59885" lon="7.01562">
        <ele>187.11</ele>
        <time>2015-06-06T09:58:36Z</time>
      </trkpt>
      <trkpt lat="43.59887" lon="7.01561">
        <ele>187.11</ele>
        <time>2015-06-06T09:58:37Z</time>
      </trkpt>
      <trkpt lat="43.59895" lon="7.0155">
        <ele>185.67</ele>
        <time>2015-06-06T09:58:48Z</time>
      </trkpt>
      <trkpt lat="43.59897" lon="7.01546">
        <ele>185.67</ele>
        <time>2015-06-06T09:58:50Z</time>
      </trkpt>
      <trkpt lat="43.59898" lon="7.01543">
        <ele>185.67</ele>
        <time>2015-06-06T09:58:51Z</time>
      </trkpt>
      <trkpt lat="43.59899" lon="7.01541">
        <ele>185.67</ele>
        <time>2015-06-06T09:58:52Z</time>
      </trkpt>
      <trkpt lat="43.59899" lon="7.01539">
        <ele>185.67</ele>
        <time>2015-06-06T09:58:53Z</time>
      </trkpt>
      <trkpt lat="43.59899" lon="7.01537">
        <ele>185.67</ele>
        <time>2015-06-06T09:58:54Z</time>
      </trkpt>
      <trkpt lat="43.59898" lon="7.01534">
        <ele>185.67</ele>
        <time>2015-06-06T09:58:55Z</time>
      </trkpt>
      <trkpt lat="43.59898" lon="7.01532">
        <ele>185.67</ele>
        <time>2015-06-06T09:58:56Z</time>
      </trkpt>
      <trkpt lat="43.59897" lon="7.01529">
        <ele>185.19</ele>
        <time>2015-06-06T09:58:57Z</time>
      </trkpt>
      <trkpt lat="43.59897" lon="7.01526">
        <ele>185.19</ele>
        <time>2015-06-06T09:58:58Z</time>
      </trkpt>
      <trkpt lat="43.59896" lon="7.01523">
        <ele>185.19</ele>
        <time>2015-06-06T09:58:59Z</time>
      </trkpt>
      <trkpt lat="43.59896" lon="7.0152">
        <ele>185.19</ele>
        <time>2015-06-06T09:59:00Z</time>
      </trkpt>
      <trkpt lat="43.59896" lon="7.01517">
        <ele>185.19</ele>
        <time>2015-06-06T09:59:01Z</time>
      </trkpt>
      <trkpt lat="43.59893" lon="7.01458">
        <ele>185.19</ele>
        <time>2015-06-06T09:59:17Z</time>
      </trkpt>
      <trkpt lat="43.59892" lon="7.01382">
        <ele>184.71</ele>
        <time>2015-06-06T09:59:34Z</time>
      </trkpt>
      <trkpt lat="43.59892" lon="7.01304">
        <ele>183.75</ele>
        <time>2015-06-06T09:59:49Z</time>
      </trkpt>
      <trkpt lat="43.59893" lon="7.01238">
        <ele>183.75</ele>
        <time>2015-06-06T10:00:02Z</time>
      </trkpt>
      <trkpt lat="43.59892" lon="7.01162">
        <ele>183.27</ele>
        <time>2015-06-06T10:00:17Z</time>
      </trkpt>
      <trkpt lat="43.59887" lon="7.01102">
        <ele>184.71</ele>
        <time>2015-06-06T10:00:29Z</time>
      </trkpt>
      <trkpt lat="43.59882" lon="7.01025">
        <ele>186.63</ele>
        <time>2015-06-06T10:00:45Z</time>
      </trkpt>
      <trkpt lat="43.5988" lon="7.00973">
        <ele>188.56</ele>
        <time>2015-06-06T10:00:58Z</time>
      </trkpt>
      <trkpt lat="43.59877" lon="7.00954">
        <ele>190.48</ele>
        <time>2015-06-06T10:01:04Z</time>
      </trkpt>
      <trkpt lat="43.59875" lon="7.00953">
        <ele>190.48</ele>
        <time>2015-06-06T10:01:05Z</time>
      </trkpt>
      <trkpt lat="43.59874" lon="7.00952">
        <ele>190.48</ele>
        <time>2015-06-06T10:01:06Z</time>
      </trkpt>
      <trkpt lat="43.59873" lon="7.0095">
        <ele>190.48</ele>
        <time>2015-06-06T10:01:07Z</time>
      </trkpt>
      <trkpt lat="43.59872" lon="7.0095">
        <ele>190.48</ele>
        <time>2015-06-06T10:01:09Z</time>
      </trkpt>
      <trkpt lat="43.5987" lon="7.0095">
        <ele>190.48</ele>
        <time>2015-06-06T10:01:10Z</time>
      </trkpt>
      <trkpt lat="43.59869" lon="7.0095">
        <ele>190.48</ele>
        <time>2015-06-06T10:01:11Z</time>
      </trkpt>
      <trkpt lat="43.59867" lon="7.00948">
        <ele>190.48</ele>
        <time>2015-06-06T10:01:12Z</time>
      </trkpt>
      <trkpt lat="43.59866" lon="7.00946">
        <ele>190.48</ele>
        <time>2015-06-06T10:01:13Z</time>
      </trkpt>
      <trkpt lat="43.59865" lon="7.00944">
        <ele>190.96</ele>
        <time>2015-06-06T10:01:14Z</time>
      </trkpt>
      <trkpt lat="43.59863" lon="7.00942">
        <ele>190.96</ele>
        <time>2015-06-06T10:01:15Z</time>
      </trkpt>
      <trkpt lat="43.59862" lon="7.00941">
        <ele>190.96</ele>
        <time>2015-06-06T10:01:16Z</time>
      </trkpt>
      <trkpt lat="43.59838" lon="7.00915">
        <ele>191.92</ele>
        <time>2015-06-06T10:01:30Z</time>
      </trkpt>
      <trkpt lat="43.59837" lon="7.00914">
        <ele>192.4</ele>
        <time>2015-06-06T10:01:31Z</time>
      </trkpt>
      <trkpt lat="43.59836" lon="7.00912">
        <ele>192.4</ele>
        <time>2015-06-06T10:01:32Z</time>
      </trkpt>
      <trkpt lat="43.59824" lon="7.00903">
        <ele>192.4</ele>
        <time>2015-06-06T10:01:39Z</time>
      </trkpt>
      <trkpt lat="43.59823" lon="7.00903">
        <ele>192.4</ele>
        <time>2015-06-06T10:01:40Z</time>
      </trkpt>
      <trkpt lat="43.59821" lon="7.00902">
        <ele>192.4</ele>
        <time>2015-06-06T10:01:41Z</time>
      </trkpt>
      <trkpt lat="43.59819" lon="7.00901">
        <ele>192.4</ele>
        <time>2015-06-06T10:01:42Z</time>
      </trkpt>
      <trkpt lat="43.59817" lon="7.00901">
        <ele>192.4</ele>
        <time>2015-06-06T10:01:43Z</time>
      </trkpt>
      <trkpt lat="43.59787" lon="7.00878">
        <ele>192.4</ele>
        <time>2015-06-06T10:01:54Z</time>
      </trkpt>
      <trkpt lat="43.59746" lon="7.00865">
        <ele>192.4</ele>
        <time>2015-06-06T10:02:08Z</time>
      </trkpt>
      <trkpt lat="43.59736" lon="7.00864">
        <ele>192.4</ele>
        <time>2015-06-06T10:02:12Z</time>
      </trkpt>
      <trkpt lat="43.59733" lon="7.00864">
        <ele>192.4</ele>
        <time>2015-06-06T10:02:13Z</time>
      </trkpt>
      <trkpt lat="43.59711" lon="7.00866">
        <ele>192.88</ele>
        <time>2015-06-06T10:02:18Z</time>
      </trkpt>
      <trkpt lat="43.59705" lon="7.00866">
        <ele>192.88</ele>
        <time>2015-06-06T10:02:19Z</time>
      </trkpt>
      <trkpt lat="43.59699" lon="7.00866">
        <ele>192.88</ele>
        <time>2015-06-06T10:02:20Z</time>
      </trkpt>
      <trkpt lat="43.59694" lon="7.00867">
        <ele>192.88</ele>
        <time>2015-06-06T10:02:21Z</time>
      </trkpt>
      <trkpt lat="43.59689" lon="7.00867">
        <ele>192.88</ele>
        <time>2015-06-06T10:02:22Z</time>
      </trkpt>
      <trkpt lat="43.59686" lon="7.00866">
        <ele>192.88</ele>
        <time>2015-06-06T10:02:23Z</time>
      </trkpt>
      <trkpt lat="43.59686" lon="7.00867">
        <ele>192.88</ele>
        <time>2015-06-06T10:02:34Z</time>
      </trkpt>
      <trkpt lat="43.59685" lon="7.00867">
        <ele>192.88</ele>
        <time>2015-06-06T10:02:35Z</time>
      </trkpt>
      <trkpt lat="43.59684" lon="7.00866">
        <ele>192.88</ele>
        <time>2015-06-06T10:02:36Z</time>
      </trkpt>
      <trkpt lat="43.59682" lon="7.00866">
        <ele>192.88</ele>
        <time>2015-06-06T10:02:37Z</time>
      </trkpt>
      <trkpt lat="43.5964" lon="7.00859">
        <ele>192.88</ele>
        <time>2015-06-06T10:02:47Z</time>
      </trkpt>
      <trkpt lat="43.59604" lon="7.0086">
        <ele>191.92</ele>
        <time>2015-06-06T10:02:56Z</time>
      </trkpt>
      <trkpt lat="43.59572" lon="7.00861">
        <ele>191.92</ele>
        <time>2015-06-06T10:03:08Z</time>
      </trkpt>
      <trkpt lat="43.59536" lon="7.00866">
        <ele>191.92</ele>
        <time>2015-06-06T10:03:22Z</time>
      </trkpt>
      <trkpt lat="43.59493" lon="7.00864">
        <ele>191.44</ele>
        <time>2015-06-06T10:03:38Z</time>
      </trkpt>
      <trkpt lat="43.59458" lon="7.00868">
        <ele>191.44</ele>
        <time>2015-06-06T10:03:52Z</time>
      </trkpt>
      <trkpt lat="43.59454" lon="7.00866">
        <ele>191.44</ele>
        <time>2015-06-06T10:04:01Z</time>
      </trkpt>
      <trkpt lat="43.59451" lon="7.00869">
        <ele>191.44</ele>
        <time>2015-06-06T10:04:41Z</time>
      </trkpt>
      <trkpt lat="43.59451" lon="7.00866">
        <ele>191.92</ele>
        <time>2015-06-06T10:05:11Z</time>
      </trkpt>
      <trkpt lat="43.59451" lon="7.00866">
        <ele>191.92</ele>
        <time>2015-06-06T10:05:45Z</time>
      </trkpt>
      <trkpt lat="43.59454" lon="7.00868">
        <ele>191.92</ele>
        <time>2015-06-06T10:06:39Z</time>
      </trkpt>
      <trkpt lat="43.59453" lon="7.00868">
        <ele>191.92</ele>
        <time>2015-06-06T10:07:27Z</time>
      </trkpt>
      <trkpt lat="43.59454" lon="7.00868">
        <ele>191.92</ele>
        <time>2015-06-06T10:07:57Z</time>
      </trkpt>
      <trkpt lat="43.59454" lon="7.00868">
        <ele>192.4</ele>
        <time>2015-06-06T10:08:13Z</time>
      </trkpt>
      <trkpt lat="43.59456" lon="7.00868">
        <ele>192.4</ele>
        <time>2015-06-06T10:08:41Z</time>
      </trkpt>
      <trkpt lat="43.59452" lon="7.00869">
        <ele>192.4</ele>
        <time>2015-06-06T10:08:55Z</time>
      </trkpt>
      <trkpt lat="43.5945" lon="7.00871">
        <ele>192.4</ele>
        <time>2015-06-06T10:09:22Z</time>
      </trkpt>
      <trkpt lat="43.59449" lon="7.00872">
        <ele>192.4</ele>
        <time>2015-06-06T10:09:23Z</time>
      </trkpt>
      <trkpt lat="43.59432" lon="7.00869">
        <ele>192.4</ele>
        <time>2015-06-06T10:09:36Z</time>
      </trkpt>
      <trkpt lat="43.59421" lon="7.00872">
        <ele>192.4</ele>
        <time>2015-06-06T10:09:47Z</time>
      </trkpt>
      <trkpt lat="43.59418" lon="7.00873">
        <ele>192.4</ele>
        <time>2015-06-06T10:09:53Z</time>
      </trkpt>
      <trkpt lat="43.59417" lon="7.00873">
        <ele>192.4</ele>
        <time>2015-06-06T10:09:54Z</time>
      </trkpt>
      <trkpt lat="43.59411" lon="7.00874">
        <ele>192.4</ele>
        <time>2015-06-06T10:10:05Z</time>
      </trkpt>
      <trkpt lat="43.59405" lon="7.0087">
        <ele>193.36</ele>
        <time>2015-06-06T10:10:18Z</time>
      </trkpt>
      <trkpt lat="43.59402" lon="7.00869">
        <ele>193.36</ele>
        <time>2015-06-06T10:10:22Z</time>
      </trkpt>
      <trkpt lat="43.59397" lon="7.00866">
        <ele>193.84</ele>
        <time>2015-06-06T10:10:34Z</time>
      </trkpt>
      <trkpt lat="43.59395" lon="7.00866">
        <ele>193.84</ele>
        <time>2015-06-06T10:11:08Z</time>
      </trkpt>
      <trkpt lat="43.59397" lon="7.00865">
        <ele>193.84</ele>
        <time>2015-06-06T10:11:48Z</time>
      </trkpt>
      <trkpt lat="43.59397" lon="7.00864">
        <ele>193.36</ele>
        <time>2015-06-06T10:12:24Z</time>
      </trkpt>
      <trkpt lat="43.59399" lon="7.00863">
        <ele>193.84</ele>
        <time>2015-06-06T10:13:04Z</time>
      </trkpt>
      <trkpt lat="43.59398" lon="7.00864">
        <ele>193.84</ele>
        <time>2015-06-06T10:13:36Z</time>
      </trkpt>
      <trkpt lat="43.59399" lon="7.00863">
        <ele>193.84</ele>
        <time>2015-06-06T10:14:08Z</time>
      </trkpt>
      <trkpt lat="43.59397" lon="7.00863">
        <ele>193.84</ele>
        <time>2015-06-06T10:14:54Z</time>
      </trkpt>
      <trkpt lat="43.59399" lon="7.00863">
        <ele>193.84</ele>
        <time>2015-06-06T10:15:24Z</time>
      </trkpt>
      <trkpt lat="43.59397" lon="7.00859">
        <ele>193.84</ele>
        <time>2015-06-06T10:16:11Z</time>
      </trkpt>
      <trkpt lat="43.59396" lon="7.00862">
        <ele>193.84</ele>
        <time>2015-06-06T10:16:56Z</time>
      </trkpt>
      <trkpt lat="43.59398" lon="7.00863">
        <ele>193.84</ele>
        <time>2015-06-06T10:17:35Z</time>
      </trkpt>
      <trkpt lat="43.59397" lon="7.00861">
        <ele>193.84</ele>
        <time>2015-06-06T10:18:02Z</time>
      </trkpt>
      <trkpt lat="43.59396" lon="7.0086">
        <ele>193.36</ele>
        <time>2015-06-06T10:18:35Z</time>
      </trkpt>
      <trkpt lat="43.59397" lon="7.00862">
        <ele>193.36</ele>
        <time>2015-06-06T10:19:15Z</time>
      </trkpt>
      <trkpt lat="43.59399" lon="7.00862">
        <ele>193.36</ele>
        <time>2015-06-06T10:19:51Z</time>
      </trkpt>
      <trkpt lat="43.59399" lon="7.00865">
        <ele>193.36</ele>
        <time>2015-06-06T10:20:20Z</time>
      </trkpt>
      <trkpt lat="43.594" lon="7.00865">
        <ele>193.36</ele>
        <time>2015-06-06T10:20:54Z</time>
      </trkpt>
      <trkpt lat="43.59399" lon="7.00861">
        <ele>193.36</ele>
        <time>2015-06-06T10:21:18Z</time>
      </trkpt>
      <trkpt lat="43.594" lon="7.00866">
        <ele>193.36</ele>
        <time>2015-06-06T10:21:46Z</time>
      </trkpt>
      <trkpt lat="43.594" lon="7.00869">
        <ele>193.84</ele>
        <time>2015-06-06T10:22:10Z</time>
      </trkpt>
      <trkpt lat="43.59401" lon="7.00867">
        <ele>193.84</ele>
        <time>2015-06-06T10:22:32Z</time>
      </trkpt>
      <trkpt lat="43.59401" lon="7.00864">
        <ele>193.36</ele>
        <time>2015-06-06T10:23:00Z</time>
      </trkpt>
      <trkpt lat="43.59403" lon="7.00863">
        <ele>193.36</ele>
        <time>2015-06-06T10:23:29Z</time>
      </trkpt>
      <trkpt lat="43.59401" lon="7.00865">
        <ele>193.36</ele>
        <time>2015-06-06T10:23:59Z</time>
      </trkpt>
      <trkpt lat="43.59402" lon="7.00865">
        <ele>192.88</ele>
        <time>2015-06-06T10:24:29Z</time>
      </trkpt>
      <trkpt lat="43.59403" lon="7.00864">
        <ele>192.88</ele>
        <time>2015-06-06T10:24:58Z</time>
      </trkpt>
      <trkpt lat="43.59404" lon="7.00863">
        <ele>192.4</ele>
        <time>2015-06-06T10:25:28Z</time>
      </trkpt>
      <trkpt lat="43.59401" lon="7.00864">
        <ele>192.4</ele>
        <time>2015-06-06T10:25:41Z</time>
      </trkpt>
      <trkpt lat="43.59398" lon="7.00869">
        <ele>192.4</ele>
        <time>2015-06-06T10:26:20Z</time>
      </trkpt>
      <trkpt lat="43.594" lon="7.00869">
        <ele>192.4</ele>
        <time>2015-06-06T10:26:51Z</time>
      </trkpt>
      <trkpt lat="43.59399" lon="7.00865">
        <ele>191.92</ele>
        <time>2015-06-06T10:27:24Z</time>
      </trkpt>
      <trkpt lat="43.594" lon="7.00863">
        <ele>191.92</ele>
        <time>2015-06-06T10:28:00Z</time>
      </trkpt>
      <trkpt lat="43.59403" lon="7.00863">
        <ele>191.92</ele>
        <time>2015-06-06T10:28:31Z</time>
      </trkpt>
      <trkpt lat="43.59402" lon="7.00863">
        <ele>191.92</ele>
        <time>2015-06-06T10:28:49Z</time>
      </trkpt>
      <trkpt lat="43.59402" lon="7.00864">
        <ele>191.92</ele>
        <time>2015-06-06T10:29:17Z</time>
      </trkpt>
      <trkpt lat="43.59402" lon="7.00864">
        <ele>191.92</ele>
        <time>2015-06-06T10:29:39Z</time>
      </trkpt>
      <trkpt lat="43.59401" lon="7.00861">
        <ele>191.92</ele>
        <time>2015-06-06T10:30:02Z</time>
      </trkpt>
      <trkpt lat="43.594" lon="7.00863">
        <ele>191.92</ele>
        <time>2015-06-06T10:30:19Z</time>
      </trkpt>
      <trkpt lat="43.59401" lon="7.00867">
        <ele>191.92</ele>
        <time>2015-06-06T10:30:40Z</time>
      </trkpt>
      <trkpt lat="43.59403" lon="7.00865">
        <ele>191.92</ele>
        <time>2015-06-06T10:31:06Z</time>
      </trkpt>
      <trkpt lat="43.59405" lon="7.00865">
        <ele>191.92</ele>
        <time>2015-06-06T10:31:14Z</time>
      </trkpt>
      <trkpt lat="43.59408" lon="7.00867">
        <ele>191.92</ele>
        <time>2015-06-06T10:31:28Z</time>
      </trkpt>
      <trkpt lat="43.59406" lon="7.00868">
        <ele>191.92</ele>
        <time>2015-06-06T10:31:54Z</time>
      </trkpt>
      <trkpt lat="43.59406" lon="7.00867">
        <ele>191.92</ele>
        <time>2015-06-06T10:32:10Z</time>
      </trkpt>
      <trkpt lat="43.59409" lon="7.00871">
        <ele>191.92</ele>
        <time>2015-06-06T10:32:19Z</time>
      </trkpt>
      <trkpt lat="43.59411" lon="7.00872">
        <ele>191.92</ele>
        <time>2015-06-06T10:32:20Z</time>
      </trkpt>
      <trkpt lat="43.59413" lon="7.00873">
        <ele>191.92</ele>
        <time>2015-06-06T10:32:21Z</time>
      </trkpt>
      <trkpt lat="43.59414" lon="7.00873">
        <ele>191.92</ele>
        <time>2015-06-06T10:32:22Z</time>
      </trkpt>
      <trkpt lat="43.59416" lon="7.00872">
        <ele>191.92</ele>
        <time>2015-06-06T10:32:23Z</time>
      </trkpt>
      <trkpt lat="43.59418" lon="7.00871">
        <ele>191.92</ele>
        <time>2015-06-06T10:32:24Z</time>
      </trkpt>
      <trkpt lat="43.5942" lon="7.0087">
        <ele>191.92</ele>
        <time>2015-06-06T10:32:25Z</time>
      </trkpt>
      <trkpt lat="43.59421" lon="7.00869">
        <ele>191.92</ele>
        <time>2015-06-06T10:32:26Z</time>
      </trkpt>
      <trkpt lat="43.59423" lon="7.00869">
        <ele>191.92</ele>
        <time>2015-06-06T10:32:27Z</time>
      </trkpt>
      <trkpt lat="43.59425" lon="7.00868">
        <ele>191.92</ele>
        <time>2015-06-06T10:32:28Z</time>
      </trkpt>
      <trkpt lat="43.59448" lon="7.00871">
        <ele>191.92</ele>
        <time>2015-06-06T10:32:37Z</time>
      </trkpt>
      <trkpt lat="43.5945" lon="7.00884">
        <ele>190.96</ele>
        <time>2015-06-06T10:32:40Z</time>
      </trkpt>
      <trkpt lat="43.59449" lon="7.00895">
        <ele>190.96</ele>
        <time>2015-06-06T10:32:42Z</time>
      </trkpt>
      <trkpt lat="43.59454" lon="7.00906">
        <ele>190</ele>
        <time>2015-06-06T10:32:44Z</time>
      </trkpt>
      <trkpt lat="43.59464" lon="7.00918">
        <ele>190</ele>
        <time>2015-06-06T10:32:47Z</time>
      </trkpt>
      <trkpt lat="43.59468" lon="7.00921">
        <ele>189.52</ele>
        <time>2015-06-06T10:32:48Z</time>
      </trkpt>
      <trkpt lat="43.59513" lon="7.00964">
        <ele>188.08</ele>
        <time>2015-06-06T10:32:59Z</time>
      </trkpt>
      <trkpt lat="43.59562" lon="7.01013">
        <ele>187.11</ele>
        <time>2015-06-06T10:33:09Z</time>
      </trkpt>
      <trkpt lat="43.59587" lon="7.01047">
        <ele>187.11</ele>
        <time>2015-06-06T10:33:14Z</time>
      </trkpt>
      <trkpt lat="43.59645" lon="7.01142">
        <ele>185.67</ele>
        <time>2015-06-06T10:33:26Z</time>
      </trkpt>
      <trkpt lat="43.59725" lon="7.01273">
        <ele>184.23</ele>
        <time>2015-06-06T10:33:41Z</time>
      </trkpt>
      <trkpt lat="43.5973" lon="7.01281">
        <ele>184.23</ele>
        <time>2015-06-06T10:33:42Z</time>
      </trkpt>
      <trkpt lat="43.59769" lon="7.01333">
        <ele>184.23</ele>
        <time>2015-06-06T10:33:49Z</time>
      </trkpt>
      <trkpt lat="43.59775" lon="7.0134">
        <ele>184.23</ele>
        <time>2015-06-06T10:33:50Z</time>
      </trkpt>
      <trkpt lat="43.59781" lon="7.01344">
        <ele>184.23</ele>
        <time>2015-06-06T10:33:51Z</time>
      </trkpt>
      <trkpt lat="43.59823" lon="7.01381">
        <ele>184.23</ele>
        <time>2015-06-06T10:33:58Z</time>
      </trkpt>
      <trkpt lat="43.59828" lon="7.01388">
        <ele>184.23</ele>
        <time>2015-06-06T10:33:59Z</time>
      </trkpt>
      <trkpt lat="43.59832" lon="7.01396">
        <ele>184.23</ele>
        <time>2015-06-06T10:34:00Z</time>
      </trkpt>
      <trkpt lat="43.59836" lon="7.01403">
        <ele>184.23</ele>
        <time>2015-06-06T10:34:01Z</time>
      </trkpt>
      <trkpt lat="43.5984" lon="7.01409">
        <ele>184.23</ele>
        <time>2015-06-06T10:34:02Z</time>
      </trkpt>
      <trkpt lat="43.59844" lon="7.01414">
        <ele>184.23</ele>
        <time>2015-06-06T10:34:03Z</time>
      </trkpt>
      <trkpt lat="43.59848" lon="7.01418">
        <ele>184.23</ele>
        <time>2015-06-06T10:34:04Z</time>
      </trkpt>
      <trkpt lat="43.59852" lon="7.01421">
        <ele>184.23</ele>
        <time>2015-06-06T10:34:05Z</time>
      </trkpt>
      <trkpt lat="43.59863" lon="7.0143">
        <ele>184.23</ele>
        <time>2015-06-06T10:34:07Z</time>
      </trkpt>
      <trkpt lat="43.59867" lon="7.01435">
        <ele>184.23</ele>
        <time>2015-06-06T10:34:08Z</time>
      </trkpt>
    </trkseg>
  </trk>
</gpx>